Wetterdaten: Dienstag, 10.05.2016
Datum Zeit Temp. A. Feuchte A. Luftdruck Regen Wind Richtung Richtung Sonnenschein ET UV Solar Taupunkt Windchill Windben Empfang
10.05.2016 00:00 14,2 C 76 % 1012,7 hPa 0,0 l/m 10,9 km/h (2 Bft) N-NO 28 0 min 0,000 mm 0,0 UV-I 0 W/m 10,0 C 11,8 C 16,1 km/h (3 Bft) 100,00 %
10.05.2016 00:02 14,2 C 76 % 1012,7 hPa 0,0 l/m 8,3 km/h (2 Bft) O-NO 65 0 min 0,000 mm 0,0 UV-I 0 W/m 10,0 C 13,1 C 12,9 km/h (3 Bft) 94,87 %
10.05.2016 00:03 14,2 C 76 % 1012,7 hPa 0,0 l/m 11,8 km/h (2 Bft) NO 48 0 min 0,000 mm 0,0 UV-I 0 W/m 10,0 C 11,4 C 14,5 km/h (3 Bft) 100,00 %
10.05.2016 00:04 14,2 C 76 % 1012,7 hPa 0,0 l/m 10,2 km/h (2 Bft) O 79 0 min 0,000 mm 0,0 UV-I 0 W/m 10,0 C 12,1 C 12,9 km/h (3 Bft) 100,00 %
10.05.2016 00:05 14,2 C 76 % 1012,7 hPa 0,0 l/m 9,2 km/h (2 Bft) O-NO 68 0 min 0,000 mm 0,0 UV-I 0 W/m 10,0 C 12,6 C 12,9 km/h (3 Bft) 100,00 %
10.05.2016 00:06 14,2 C 76 % 1012,7 hPa 0,0 l/m 12,8 km/h (3 Bft) NO 35 0 min 0,000 mm 0,0 UV-I 0 W/m 10,0 C 11,0 C 16,1 km/h (3 Bft) 100,00 %
10.05.2016 00:07 14,2 C 76 % 1012,7 hPa 0,0 l/m 11,3 km/h (2 Bft) NO 53 0 min 0,000 mm 0,0 UV-I 0 W/m 10,0 C 11,6 C 14,5 km/h (3 Bft) 100,00 %
10.05.2016 00:08 14,2 C 76 % 1012,7 hPa 0,0 l/m 9,8 km/h (2 Bft) O-NO 64 0 min 0,000 mm 0,0 UV-I 0 W/m 10,0 C 12,3 C 14,5 km/h (3 Bft) 96,15 %
10.05.2016 00:09 14,2 C 76 % 1012,7 hPa 0,0 l/m 11,3 km/h (2 Bft) O-NO 66 0 min 0,000 mm 0,0 UV-I 0 W/m 10,0 C 11,6 C 14,5 km/h (3 Bft) 100,00 %
10.05.2016 00:10 14,1 C 76 % 1012,7 hPa 0,0 l/m 9,4 km/h (2 Bft) O-NO 65 0 min 0,000 mm 0,0 UV-I 0 W/m 9,9 C 12,4 C 14,5 km/h (3 Bft) 100,00 %
10.05.2016 00:11 14,1 C 76 % 1012,7 hPa 0,0 l/m 9,1 km/h (2 Bft) O 79 0 min 0,000 mm 0,0 UV-I 0 W/m 9,9 C 12,6 C 14,5 km/h (3 Bft) 96,30 %
10.05.2016 00:12 14,1 C 76 % 1012,7 hPa 0,0 l/m 10,5 km/h (2 Bft) O-NO 63 0 min 0,000 mm 0,0 UV-I 0 W/m 9,9 C 11,9 C 14,5 km/h (3 Bft) 100,00 %
10.05.2016 00:13 14,1 C 76 % 1012,7 hPa 0,0 l/m 14,9 km/h (3 Bft) O 79 0 min 0,000 mm 0,0 UV-I 0 W/m 9,9 C 10,1 C 17,7 km/h (3 Bft) 96,30 %
10.05.2016 00:14 14,1 C 76 % 1012,7 hPa 0,0 l/m 13,3 km/h (3 Bft) O-NO 73 0 min 0,000 mm 0,0 UV-I 0 W/m 9,9 C 10,7 C 17,7 km/h (3 Bft) 96,15 %
10.05.2016 00:15 14,1 C 76 % 1012,7 hPa 0,0 l/m 12,1 km/h (2 Bft) O-NO 71 0 min 0,000 mm 0,0 UV-I 0 W/m 9,9 C 11,2 C 16,1 km/h (3 Bft) 100,00 %
10.05.2016 00:16 14,1 C 76 % 1012,7 hPa 0,0 l/m 12,6 km/h (3 Bft) O 80 0 min 0,000 mm 0,0 UV-I 0 W/m 9,9 C 11,0 C 17,7 km/h (3 Bft) 100,00 %
10.05.2016 00:17 14,1 C 76 % 1012,7 hPa 0,0 l/m 10,8 km/h (2 Bft) O-NO 60 0 min 0,000 mm 0,0 UV-I 0 W/m 9,9 C 11,8 C 16,1 km/h (3 Bft) 100,00 %
10.05.2016 00:18 14,1 C 76 % 1012,7 hPa 0,0 l/m 14,3 km/h (3 Bft) O-NO 58 0 min 0,000 mm 0,0 UV-I 0 W/m 9,9 C 10,3 C 17,7 km/h (3 Bft) 100,00 %
10.05.2016 00:19 14,1 C 76 % 1012,7 hPa 0,0 l/m 16,4 km/h (3 Bft) O-NO 67 0 min 0,000 mm 0,0 UV-I 0 W/m 9,9 C 9,6 C 22,5 km/h (4 Bft) 100,00 %
10.05.2016 00:20 14,1 C 76 % 1012,7 hPa 0,0 l/m 12,6 km/h (3 Bft) NO 55 0 min 0,000 mm 0,0 UV-I 0 W/m 9,9 C 11,0 C 14,5 km/h (3 Bft) 100,00 %
10.05.2016 00:21 14,1 C 77 % 1012,7 hPa 0,0 l/m 12,5 km/h (3 Bft) O-NO 76 0 min 0,000 mm 0,0 UV-I 0 W/m 10,1 C 11,0 C 16,1 km/h (3 Bft) 95,65 %
10.05.2016 00:22 14,1 C 77 % 1012,7 hPa 0,0 l/m 13,4 km/h (3 Bft) O-NO 60 0 min 0,000 mm 0,0 UV-I 0 W/m 10,1 C 10,7 C 17,7 km/h (3 Bft) 100,00 %
10.05.2016 00:23 14,1 C 77 % 1012,7 hPa 0,0 l/m 13,4 km/h (3 Bft) O-NO 73 0 min 0,000 mm 0,0 UV-I 0 W/m 10,1 C 10,7 C 19,3 km/h (3 Bft) 100,00 %
10.05.2016 00:24 14,1 C 77 % 1012,7 hPa 0,0 l/m 14,6 km/h (3 Bft) O 80 0 min 0,000 mm 0,0 UV-I 0 W/m 10,1 C 10,2 C 20,9 km/h (4 Bft) 96,30 %
10.05.2016 00:25 14,1 C 76 % 1012,8 hPa 0,0 l/m 13,8 km/h (3 Bft) NO 56 0 min 0,000 mm 0,0 UV-I 0 W/m 9,9 C 10,5 C 17,7 km/h (3 Bft) 100,00 %
10.05.2016 00:26 14,1 C 77 % 1012,8 hPa 0,0 l/m 12,8 km/h (3 Bft) O-NO 78 0 min 0,000 mm 0,0 UV-I 0 W/m 10,1 C 10,9 C 17,7 km/h (3 Bft) 100,00 %
10.05.2016 00:27 14,1 C 77 % 1012,7 hPa 0,0 l/m 15,8 km/h (3 Bft) O 86 0 min 0,000 mm 0,0 UV-I 0 W/m 10,1 C 9,8 C 19,3 km/h (3 Bft) 96,15 %
10.05.2016 00:28 14,1 C 77 % 1012,7 hPa 0,0 l/m 13,3 km/h (3 Bft) NO 41 0 min 0,000 mm 0,0 UV-I 0 W/m 10,1 C 10,7 C 17,7 km/h (3 Bft) 100,00 %
10.05.2016 00:29 14,1 C 77 % 1012,7 hPa 0,0 l/m 12,8 km/h (3 Bft) O-NO 61 0 min 0,000 mm 0,0 UV-I 0 W/m 10,1 C 10,9 C 17,7 km/h (3 Bft) 100,00 %
10.05.2016 00:30 14,1 C 77 % 1012,7 hPa 0,0 l/m 13,0 km/h (3 Bft) NO 53 0 min 0,000 mm 0,0 UV-I 0 W/m 10,1 C 10,8 C 17,7 km/h (3 Bft) 100,00 %
10.05.2016 00:31 14,1 C 77 % 1012,7 hPa 0,0 l/m 11,2 km/h (2 Bft) O 84 0 min 0,000 mm 0,0 UV-I 0 W/m 10,1 C 11,6 C 14,5 km/h (3 Bft) 98,71 %
10.05.2016 00:32 14,1 C 77 % 1012,7 hPa 0,0 l/m 12,2 km/h (2 Bft) O-NO 65 0 min 0,000 mm 0,0 UV-I 0 W/m 10,1 C 11,2 C 17,7 km/h (3 Bft) 100,00 %
10.05.2016 00:33 14,1 C 77 % 1012,7 hPa 0,0 l/m 11,3 km/h (2 Bft) O-NO 65 0 min 0,000 mm 0,0 UV-I 0 W/m 10,1 C 11,5 C 14,5 km/h (3 Bft) 100,00 %
10.05.2016 00:34 14,1 C 77 % 1012,7 hPa 0,0 l/m 12,6 km/h (3 Bft) NO 53 0 min 0,000 mm 0,0 UV-I 0 W/m 10,1 C 11,0 C 17,7 km/h (3 Bft) 100,00 %
10.05.2016 00:35 14,1 C 77 % 1012,6 hPa 0,0 l/m 11,0 km/h (2 Bft) NO 49 0 min 0,000 mm 0,0 UV-I 0 W/m 10,1 C 11,7 C 16,1 km/h (3 Bft) 100,00 %
10.05.2016 00:36 14,1 C 77 % 1012,7 hPa 0,0 l/m 14,1 km/h (3 Bft) O-NO 59 0 min 0,000 mm 0,0 UV-I 0 W/m 10,1 C 10,4 C 20,9 km/h (4 Bft) 100,00 %
10.05.2016 00:37 14,1 C 77 % 1012,6 hPa 0,0 l/m 16,7 km/h (3 Bft) O-NO 71 0 min 0,000 mm 0,0 UV-I 0 W/m 10,1 C 9,5 C 19,3 km/h (3 Bft) 100,00 %
10.05.2016 00:38 14,1 C 77 % 1012,6 hPa 0,0 l/m 11,1 km/h (2 Bft) O-NO 67 0 min 0,000 mm 0,0 UV-I 0 W/m 10,1 C 11,6 C 14,5 km/h (3 Bft) 97,56 %
10.05.2016 00:39 14,1 C 77 % 1012,6 hPa 0,0 l/m 10,2 km/h (2 Bft) NO 54 0 min 0,000 mm 0,0 UV-I 0 W/m 10,1 C 12,0 C 14,5 km/h (3 Bft) 100,00 %
10.05.2016 00:40 14,1 C 77 % 1012,6 hPa 0,0 l/m 9,9 km/h (2 Bft) NO 40 0 min 0,000 mm 0,0 UV-I 0 W/m 10,1 C 12,2 C 14,5 km/h (3 Bft) 100,00 %
10.05.2016 00:41 14,1 C 77 % 1012,6 hPa 0,0 l/m 13,3 km/h (3 Bft) NO 50 0 min 0,000 mm 0,0 UV-I 0 W/m 10,1 C 10,7 C 17,7 km/h (3 Bft) 100,00 %
10.05.2016 00:42 14,0 C 77 % 1012,6 hPa 0,0 l/m 15,9 km/h (3 Bft) NO 56 0 min 0,000 mm 0,0 UV-I 0 W/m 10,0 C 9,7 C 22,5 km/h (4 Bft) 100,00 %
10.05.2016 00:43 14,0 C 77 % 1012,6 hPa 0,0 l/m 14,1 km/h (3 Bft) O-NO 77 0 min 0,000 mm 0,0 UV-I 0 W/m 10,0 C 10,3 C 20,9 km/h (4 Bft) 91,67 %
10.05.2016 00:44 14,0 C 77 % 1012,6 hPa 0,0 l/m 13,2 km/h (3 Bft) O 81 0 min 0,000 mm 0,0 UV-I 0 W/m 10,0 C 10,6 C 16,1 km/h (3 Bft) 96,30 %
10.05.2016 00:45 14,0 C 77 % 1012,6 hPa 0,0 l/m 11,8 km/h (2 Bft) NO 55 0 min 0,000 mm 0,0 UV-I 0 W/m 10,0 C 11,2 C 16,1 km/h (3 Bft) 95,83 %
10.05.2016 00:46 14,0 C 77 % 1012,6 hPa 0,0 l/m 13,1 km/h (3 Bft) O-NO 66 0 min 0,000 mm 0,0 UV-I 0 W/m 10,0 C 10,7 C 17,7 km/h (3 Bft) 95,65 %
10.05.2016 00:47 14,0 C 77 % 1012,6 hPa 0,0 l/m 14,6 km/h (3 Bft) O-NO 60 0 min 0,000 mm 0,0 UV-I 0 W/m 10,0 C 10,1 C 17,7 km/h (3 Bft) 100,00 %
10.05.2016 00:48 13,9 C 77 % 1012,6 hPa 0,0 l/m 14,4 km/h (3 Bft) O-NO 65 0 min 0,000 mm 0,0 UV-I 0 W/m 9,9 C 10,1 C 20,9 km/h (4 Bft) 95,65 %
10.05.2016 00:49 13,9 C 77 % 1012,6 hPa 0,0 l/m 14,6 km/h (3 Bft) O-NO 58 0 min 0,000 mm 0,0 UV-I 0 W/m 9,9 C 10,0 C 19,3 km/h (3 Bft) 96,30 %
10.05.2016 00:50 13,9 C 77 % 1012,6 hPa 0,0 l/m 11,6 km/h (2 Bft) NO 50 0 min 0,000 mm 0,0 UV-I 0 W/m 9,9 C 11,2 C 16,1 km/h (3 Bft) 92,31 %
10.05.2016 00:51 13,9 C 77 % 1012,6 hPa 0,0 l/m 16,7 km/h (3 Bft) O-NO 69 0 min 0,000 mm 0,0 UV-I 0 W/m 9,9 C 9,3 C 19,3 km/h (3 Bft) 100,00 %
10.05.2016 00:52 13,9 C 77 % 1012,6 hPa 0,0 l/m 13,3 km/h (3 Bft) NO 55 0 min 0,000 mm 0,0 UV-I 0 W/m 9,9 C 10,5 C 19,3 km/h (3 Bft) 96,55 %
10.05.2016 00:53 13,9 C 77 % 1012,6 hPa 0,0 l/m 12,6 km/h (3 Bft) O-NO 75 0 min 0,000 mm 0,0 UV-I 0 W/m 9,9 C 10,8 C 16,1 km/h (3 Bft) 100,00 %
10.05.2016 00:54 13,9 C 77 % 1012,6 hPa 0,0 l/m 12,7 km/h (3 Bft) NO 45 0 min 0,000 mm 0,0 UV-I 0 W/m 9,9 C 10,7 C 19,3 km/h (3 Bft) 91,67 %
10.05.2016 00:55 13,9 C 77 % 1012,5 hPa 0,0 l/m 12,9 km/h (3 Bft) O-NO 71 0 min 0,000 mm 0,0 UV-I 0 W/m 9,9 C 10,6 C 17,7 km/h (3 Bft) 92,31 %
10.05.2016 00:56 13,9 C 77 % 1012,5 hPa 0,0 l/m 15,9 km/h (3 Bft) O-NO 74 0 min 0,000 mm 0,0 UV-I 0 W/m 9,9 C 9,6 C 20,9 km/h (4 Bft) 96,15 %
10.05.2016 00:57 13,8 C 77 % 1012,5 hPa 0,0 l/m 13,0 km/h (3 Bft) O-NO 74 0 min 0,000 mm 0,0 UV-I 0 W/m 9,8 C 10,5 C 16,1 km/h (3 Bft) 92,59 %
10.05.2016 00:58 13,8 C 77 % 1012,5 hPa 0,0 l/m 10,2 km/h (2 Bft) O 80 0 min 0,000 mm 0,0 UV-I 0 W/m 9,8 C 11,7 C 12,9 km/h (3 Bft) 100,00 %
10.05.2016 00:59 13,8 C 78 % 1012,5 hPa 0,0 l/m 12,1 km/h (2 Bft) O-NO 71 0 min 0,000 mm 0,0 UV-I 0 W/m 10,0 C 10,8 C 17,7 km/h (3 Bft) 96,55 %
10.05.2016 01:00 13,8 C 78 % 1012,5 hPa 0,0 l/m 13,6 km/h (3 Bft) NO 56 0 min 0,051 mm 0,0 UV-I 0 W/m 10,0 C 10,2 C 19,3 km/h (3 Bft) 100,00 %
10.05.2016 01:01 13,8 C 78 % 1012,5 hPa 0,0 l/m 12,9 km/h (3 Bft) O-NO 59 0 min 0,000 mm 0,0 UV-I 0 W/m 10,0 C 10,5 C 17,7 km/h (3 Bft) 95,65 %
10.05.2016 01:02 13,7 C 78 % 1012,5 hPa 0,0 l/m 12,9 km/h (3 Bft) NO 55 0 min 0,000 mm 0,0 UV-I 0 W/m 9,9 C 10,4 C 19,3 km/h (3 Bft) 95,83 %
10.05.2016 01:03 13,7 C 78 % 1012,5 hPa 0,0 l/m 11,8 km/h (2 Bft) NO 54 0 min 0,000 mm 0,0 UV-I 0 W/m 9,9 C 10,9 C 16,1 km/h (3 Bft) 100,00 %
10.05.2016 01:04 13,7 C 78 % 1012,5 hPa 0,0 l/m 13,0 km/h (3 Bft) O-NO 78 0 min 0,000 mm 0,0 UV-I 0 W/m 9,9 C 10,4 C 20,9 km/h (4 Bft) 96,30 %
10.05.2016 01:05 13,7 C 78 % 1012,5 hPa 0,0 l/m 13,6 km/h (3 Bft) O-NO 76 0 min 0,000 mm 0,0 UV-I 0 W/m 9,9 C 10,1 C 17,7 km/h (3 Bft) 100,00 %
10.05.2016 01:06 13,7 C 78 % 1012,5 hPa 0,0 l/m 12,8 km/h (3 Bft) O-NO 58 0 min 0,000 mm 0,0 UV-I 0 W/m 9,9 C 10,4 C 17,7 km/h (3 Bft) 96,30 %
10.05.2016 01:07 13,7 C 78 % 1012,4 hPa 0,0 l/m 14,8 km/h (3 Bft) O-NO 57 0 min 0,000 mm 0,0 UV-I 0 W/m 9,9 C 9,7 C 20,9 km/h (4 Bft) 100,00 %
10.05.2016 01:08 13,7 C 78 % 1012,4 hPa 0,0 l/m 15,5 km/h (3 Bft) O-NO 70 0 min 0,000 mm 0,0 UV-I 0 W/m 9,9 C 9,4 C 22,5 km/h (4 Bft) 96,67 %
10.05.2016 01:09 13,7 C 78 % 1012,4 hPa 0,0 l/m 12,7 km/h (3 Bft) NO 53 0 min 0,000 mm 0,0 UV-I 0 W/m 9,9 C 10,5 C 16,1 km/h (3 Bft) 100,00 %
10.05.2016 01:10 13,7 C 78 % 1012,4 hPa 0,0 l/m 12,8 km/h (3 Bft) O-NO 76 0 min 0,000 mm 0,0 UV-I 0 W/m 9,9 C 10,4 C 19,3 km/h (3 Bft) 92,31 %
10.05.2016 01:11 13,7 C 78 % 1012,4 hPa 0,0 l/m 13,2 km/h (3 Bft) O-NO 67 0 min 0,000 mm 0,0 UV-I 0 W/m 9,9 C 10,3 C 19,3 km/h (3 Bft) 96,55 %
10.05.2016 01:12 13,7 C 78 % 1012,4 hPa 0,0 l/m 12,6 km/h (3 Bft) O-NO 58 0 min 0,000 mm 0,0 UV-I 0 W/m 9,9 C 10,5 C 16,1 km/h (3 Bft) 100,00 %
10.05.2016 01:13 13,7 C 78 % 1012,4 hPa 0,0 l/m 13,3 km/h (3 Bft) O-NO 71 0 min 0,000 mm 0,0 UV-I 0 W/m 9,9 C 10,2 C 17,7 km/h (3 Bft) 95,65 %
10.05.2016 01:14 13,7 C 78 % 1012,4 hPa 0,0 l/m 16,5 km/h (3 Bft) O-NO 73 0 min 0,000 mm 0,0 UV-I 0 W/m 9,9 C 9,1 C 20,9 km/h (4 Bft) 100,00 %
10.05.2016 01:15 13,7 C 78 % 1012,4 hPa 0,0 l/m 12,5 km/h (3 Bft) O-NO 78 0 min 0,000 mm 0,0 UV-I 0 W/m 9,9 C 10,6 C 17,7 km/h (3 Bft) 91,30 %
10.05.2016 01:16 13,7 C 78 % 1012,4 hPa 0,0 l/m 12,1 km/h (2 Bft) O-NO 65 0 min 0,000 mm 0,0 UV-I 0 W/m 9,9 C 10,7 C 17,7 km/h (3 Bft) 100,00 %
10.05.2016 01:17 13,7 C 78 % 1012,4 hPa 0,0 l/m 15,0 km/h (3 Bft) O-NO 67 0 min 0,000 mm 0,0 UV-I 0 W/m 9,9 C 9,6 C 17,7 km/h (3 Bft) 96,67 %
10.05.2016 01:18 13,6 C 78 % 1012,4 hPa 0,0 l/m 13,4 km/h (3 Bft) NO 42 0 min 0,000 mm 0,0 UV-I 0 W/m 9,8 C 10,1 C 17,7 km/h (3 Bft) 100,00 %
10.05.2016 01:19 13,6 C 78 % 1012,4 hPa 0,0 l/m 14,5 km/h (3 Bft) O-NO 71 0 min 0,000 mm 0,0 UV-I 0 W/m 9,8 C 9,7 C 17,7 km/h (3 Bft) 100,00 %
10.05.2016 01:20 13,6 C 78 % 1012,3 hPa 0,0 l/m 13,9 km/h (3 Bft) NO 50 0 min 0,000 mm 0,0 UV-I 0 W/m 9,8 C 9,9 C 19,3 km/h (3 Bft) 100,00 %
10.05.2016 01:21 13,6 C 78 % 1012,3 hPa 0,0 l/m 13,6 km/h (3 Bft) O-NO 72 0 min 0,000 mm 0,0 UV-I 0 W/m 9,8 C 10,0 C 16,1 km/h (3 Bft) 100,00 %
10.05.2016 01:22 13,6 C 78 % 1012,3 hPa 0,0 l/m 13,9 km/h (3 Bft) O-NO 66 0 min 0,000 mm 0,0 UV-I 0 W/m 9,8 C 9,9 C 17,7 km/h (3 Bft) 96,15 %
10.05.2016 01:23 13,6 C 78 % 1012,3 hPa 0,0 l/m 12,6 km/h (3 Bft) NO 49 0 min 0,000 mm 0,0 UV-I 0 W/m 9,8 C 10,4 C 16,1 km/h (3 Bft) 100,00 %
10.05.2016 01:24 13,6 C 78 % 1012,2 hPa 0,0 l/m 15,7 km/h (3 Bft) O-NO 73 0 min 0,000 mm 0,0 UV-I 0 W/m 9,8 C 9,3 C 20,9 km/h (4 Bft) 95,65 %
10.05.2016 01:25 13,6 C 78 % 1012,3 hPa 0,0 l/m 16,8 km/h (3 Bft) O-NO 67 0 min 0,000 mm 0,0 UV-I 0 W/m 9,8 C 8,9 C 20,9 km/h (4 Bft) 100,00 %
10.05.2016 01:26 13,6 C 78 % 1012,2 hPa 0,0 l/m 15,2 km/h (3 Bft) O-NO 73 0 min 0,000 mm 0,0 UV-I 0 W/m 9,8 C 9,4 C 17,7 km/h (3 Bft) 91,30 %
10.05.2016 01:27 13,6 C 78 % 1012,2 hPa 0,0 l/m 14,8 km/h (3 Bft) NO 55 0 min 0,000 mm 0,0 UV-I 0 W/m 9,8 C 9,6 C 19,3 km/h (3 Bft) 100,00 %
10.05.2016 01:28 13,6 C 78 % 1012,3 hPa 0,0 l/m 11,5 km/h (2 Bft) NO 42 0 min 0,000 mm 0,0 UV-I 0 W/m 9,8 C 10,9 C 16,1 km/h (3 Bft) 100,00 %
10.05.2016 01:29 13,6 C 78 % 1012,2 hPa 0,0 l/m 12,1 km/h (2 Bft) O-NO 61 0 min 0,000 mm 0,0 UV-I 0 W/m 9,8 C 10,6 C 16,1 km/h (3 Bft) 100,00 %
10.05.2016 01:30 13,6 C 78 % 1012,3 hPa 0,0 l/m 12,2 km/h (2 Bft) O-NO 68 0 min 0,000 mm 0,0 UV-I 0 W/m 9,8 C 10,6 C 16,1 km/h (3 Bft) 100,00 %
10.05.2016 01:31 13,6 C 78 % 1012,3 hPa 0,0 l/m 11,1 km/h (2 Bft) O-NO 62 0 min 0,000 mm 0,0 UV-I 0 W/m 9,8 C 11,1 C 19,3 km/h (3 Bft) 100,00 %
10.05.2016 01:32 13,6 C 78 % 1012,2 hPa 0,0 l/m 12,4 km/h (3 Bft) NO 53 0 min 0,000 mm 0,0 UV-I 0 W/m 9,8 C 10,5 C 16,1 km/h (3 Bft) 95,65 %
10.05.2016 01:33 13,6 C 78 % 1012,3 hPa 0,0 l/m 13,6 km/h (3 Bft) O-NO 57 0 min 0,000 mm 0,0 UV-I 0 W/m 9,8 C 10,0 C 17,7 km/h (3 Bft) 100,00 %
10.05.2016 01:34 13,5 C 78 % 1012,2 hPa 0,0 l/m 13,4 km/h (3 Bft) O-NO 66 0 min 0,000 mm 0,0 UV-I 0 W/m 9,7 C 10,0 C 19,3 km/h (3 Bft) 100,00 %
10.05.2016 01:35 13,5 C 78 % 1012,3 hPa 0,0 l/m 12,9 km/h (3 Bft) O-NO 61 0 min 0,000 mm 0,0 UV-I 0 W/m 9,7 C 10,2 C 17,7 km/h (3 Bft) 100,00 %
10.05.2016 01:36 13,5 C 79 % 1012,2 hPa 0,0 l/m 13,8 km/h (3 Bft) NO 52 0 min 0,000 mm 0,0 UV-I 0 W/m 9,9 C 9,8 C 17,7 km/h (3 Bft) 100,00 %
10.05.2016 01:37 13,5 C 79 % 1012,2 hPa 0,0 l/m 14,4 km/h (3 Bft) O-NO 67 0 min 0,000 mm 0,0 UV-I 0 W/m 9,9 C 9,6 C 20,9 km/h (4 Bft) 100,00 %
10.05.2016 01:38 13,4 C 79 % 1012,3 hPa 0,0 l/m 11,2 km/h (2 Bft) O-NO 61 0 min 0,000 mm 0,0 UV-I 0 W/m 9,8 C 10,8 C 17,7 km/h (3 Bft) 100,00 %
10.05.2016 01:39 13,4 C 79 % 1012,2 hPa 0,0 l/m 10,6 km/h (2 Bft) O-NO 63 0 min 0,000 mm 0,0 UV-I 0 W/m 9,8 C 11,1 C 14,5 km/h (3 Bft) 96,55 %
10.05.2016 01:40 13,4 C 79 % 1012,2 hPa 0,0 l/m 13,9 km/h (3 Bft) NO 35 0 min 0,000 mm 0,0 UV-I 0 W/m 9,8 C 9,7 C 16,1 km/h (3 Bft) 100,00 %
10.05.2016 01:41 13,4 C 79 % 1012,2 hPa 0,0 l/m 13,3 km/h (3 Bft) O-NO 65 0 min 0,000 mm 0,0 UV-I 0 W/m 9,8 C 9,9 C 19,3 km/h (3 Bft) 100,00 %
10.05.2016 01:42 13,4 C 79 % 1012,2 hPa 0,0 l/m 13,9 km/h (3 Bft) O-NO 76 0 min 0,000 mm 0,0 UV-I 0 W/m 9,8 C 9,7 C 19,3 km/h (3 Bft) 100,00 %
10.05.2016 01:43 13,4 C 79 % 1012,2 hPa 0,0 l/m 11,5 km/h (2 Bft) O-NO 70 0 min 0,000 mm 0,0 UV-I 0 W/m 9,8 C 10,6 C 16,1 km/h (3 Bft) 100,00 %
10.05.2016 01:44 13,3 C 79 % 1012,2 hPa 0,0 l/m 11,8 km/h (2 Bft) NO 50 0 min 0,000 mm 0,0 UV-I 0 W/m 9,7 C 10,4 C 16,1 km/h (3 Bft) 100,00 %
10.05.2016 01:45 13,3 C 79 % 1012,2 hPa 0,0 l/m 13,8 km/h (3 Bft) O-NO 71 0 min 0,000 mm 0,0 UV-I 0 W/m 9,7 C 9,6 C 16,1 km/h (3 Bft) 95,65 %
10.05.2016 01:46 13,3 C 79 % 1012,2 hPa 0,0 l/m 14,8 km/h (3 Bft) O-NO 77 0 min 0,000 mm 0,0 UV-I 0 W/m 9,7 C 9,2 C 20,9 km/h (4 Bft) 100,00 %
10.05.2016 01:47 13,3 C 79 % 1012,2 hPa 0,0 l/m 16,2 km/h (3 Bft) NO 41 0 min 0,000 mm 0,0 UV-I 0 W/m 9,7 C 8,7 C 20,9 km/h (4 Bft) 100,00 %
10.05.2016 01:48 13,3 C 79 % 1012,2 hPa 0,0 l/m 12,5 km/h (3 Bft) O-NO 71 0 min 0,000 mm 0,0 UV-I 0 W/m 9,7 C 10,1 C 17,7 km/h (3 Bft) 100,00 %
10.05.2016 01:49 13,3 C 79 % 1012,2 hPa 0,0 l/m 16,3 km/h (3 Bft) O-NO 59 0 min 0,000 mm 0,0 UV-I 0 W/m 9,7 C 8,7 C 22,5 km/h (4 Bft) 100,00 %
10.05.2016 01:50 13,3 C 79 % 1012,2 hPa 0,0 l/m 9,5 km/h (2 Bft) O-NO 60 0 min 0,000 mm 0,0 UV-I 0 W/m 9,7 C 11,5 C 16,1 km/h (3 Bft) 100,00 %
10.05.2016 01:51 13,3 C 79 % 1012,2 hPa 0,0 l/m 13,8 km/h (3 Bft) O-NO 67 0 min 0,000 mm 0,0 UV-I 0 W/m 9,7 C 9,6 C 17,7 km/h (3 Bft) 100,00 %
10.05.2016 01:52 13,3 C 79 % 1012,2 hPa 0,0 l/m 12,7 km/h (3 Bft) NO 56 0 min 0,000 mm 0,0 UV-I 0 W/m 9,7 C 10,0 C 22,5 km/h (4 Bft) 96,15 %
10.05.2016 01:53 13,3 C 79 % 1012,2 hPa 0,0 l/m 18,2 km/h (3 Bft) O 90 0 min 0,000 mm 0,0 UV-I 0 W/m 9,7 C 8,1 C 27,4 km/h (4 Bft) 100,00 %
10.05.2016 01:54 13,3 C 79 % 1012,2 hPa 0,0 l/m 15,7 km/h (3 Bft) O-NO 60 0 min 0,000 mm 0,0 UV-I 0 W/m 9,7 C 8,9 C 20,9 km/h (4 Bft) 100,00 %
10.05.2016 01:55 13,3 C 79 % 1012,2 hPa 0,0 l/m 13,5 km/h (3 Bft) O-NO 60 0 min 0,000 mm 0,0 UV-I 0 W/m 9,7 C 9,7 C 20,9 km/h (4 Bft) 100,00 %
10.05.2016 01:56 13,3 C 79 % 1012,2 hPa 0,0 l/m 17,2 km/h (3 Bft) O-NO 63 0 min 0,000 mm 0,0 UV-I 0 W/m 9,7 C 8,4 C 25,7 km/h (4 Bft) 92,31 %
10.05.2016 01:57 13,3 C 79 % 1012,2 hPa 0,0 l/m 16,5 km/h (3 Bft) NO 53 0 min 0,000 mm 0,0 UV-I 0 W/m 9,7 C 8,6 C 22,5 km/h (4 Bft) 100,00 %
10.05.2016 01:58 13,3 C 79 % 1012,2 hPa 0,0 l/m 17,2 km/h (3 Bft) O-NO 57 0 min 0,000 mm 0,0 UV-I 0 W/m 9,7 C 8,4 C 24,1 km/h (4 Bft) 91,30 %
10.05.2016 01:59 13,3 C 79 % 1012,1 hPa 0,0 l/m 16,6 km/h (3 Bft) NO 49 0 min 0,000 mm 0,0 UV-I 0 W/m 9,7 C 8,6 C 20,9 km/h (4 Bft) 100,00 %
10.05.2016 02:00 13,3 C 79 % 1012,2 hPa 0,0 l/m 18,0 km/h (3 Bft) O-NO 65 0 min 0,025 mm 0,0 UV-I 0 W/m 9,7 C 8,1 C 24,1 km/h (4 Bft) 100,00 %
10.05.2016 02:01 13,4 C 79 % 1012,1 hPa 0,0 l/m 16,2 km/h (3 Bft) O-NO 62 0 min 0,000 mm 0,0 UV-I 0 W/m 9,8 C 8,8 C 20,9 km/h (4 Bft) 100,00 %
10.05.2016 02:02 13,4 C 79 % 1012,1 hPa 0,0 l/m 13,2 km/h (3 Bft) O 84 0 min 0,000 mm 0,0 UV-I 0 W/m 9,8 C 9,9 C 20,9 km/h (4 Bft) 100,00 %
10.05.2016 02:03 13,4 C 79 % 1012,1 hPa 0,0 l/m 15,3 km/h (3 Bft) O-NO 63 0 min 0,000 mm 0,0 UV-I 0 W/m 9,8 C 9,1 C 19,3 km/h (3 Bft) 100,00 %
10.05.2016 02:04 13,4 C 79 % 1012,1 hPa 0,0 l/m 15,8 km/h (3 Bft) O 95 0 min 0,000 mm 0,0 UV-I 0 W/m 9,8 C 9,0 C 20,9 km/h (4 Bft) 100,00 %
10.05.2016 02:05 13,4 C 79 % 1012,1 hPa 0,0 l/m 13,4 km/h (3 Bft) O-NO 70 0 min 0,000 mm 0,0 UV-I 0 W/m 9,8 C 9,9 C 17,7 km/h (3 Bft) 100,00 %
10.05.2016 02:06 13,3 C 79 % 1012,1 hPa 0,0 l/m 19,0 km/h (3 Bft) O 86 0 min 0,000 mm 0,0 UV-I 0 W/m 9,7 C 7,8 C 22,5 km/h (4 Bft) 100,00 %
10.05.2016 02:07 13,3 C 79 % 1012,1 hPa 0,0 l/m 15,3 km/h (3 Bft) O-NO 76 0 min 0,000 mm 0,0 UV-I 0 W/m 9,7 C 9,0 C 20,9 km/h (4 Bft) 100,00 %
10.05.2016 02:08 13,3 C 79 % 1012,1 hPa 0,0 l/m 16,6 km/h (3 Bft) O 85 0 min 0,000 mm 0,0 UV-I 0 W/m 9,7 C 8,6 C 20,9 km/h (4 Bft) 100,00 %
10.05.2016 02:09 13,3 C 79 % 1012,1 hPa 0,0 l/m 16,2 km/h (3 Bft) NO 39 0 min 0,000 mm 0,0 UV-I 0 W/m 9,7 C 8,7 C 20,9 km/h (4 Bft) 100,00 %
10.05.2016 02:10 13,3 C 79 % 1012,1 hPa 0,0 l/m 12,2 km/h (2 Bft) NO 49 0 min 0,000 mm 0,0 UV-I 0 W/m 9,7 C 10,2 C 17,7 km/h (3 Bft) 100,00 %
10.05.2016 02:11 13,3 C 79 % 1012,1 hPa 0,0 l/m 12,1 km/h (2 Bft) O-NO 67 0 min 0,000 mm 0,0 UV-I 0 W/m 9,7 C 10,3 C 19,3 km/h (3 Bft) 96,15 %
10.05.2016 02:12 13,3 C 79 % 1012,1 hPa 0,0 l/m 16,6 km/h (3 Bft) O-NO 74 0 min 0,000 mm 0,0 UV-I 0 W/m 9,7 C 8,6 C 24,1 km/h (4 Bft) 100,00 %
10.05.2016 02:13 13,3 C 79 % 1012,1 hPa 0,0 l/m 14,8 km/h (3 Bft) O-NO 61 0 min 0,000 mm 0,0 UV-I 0 W/m 9,7 C 9,2 C 22,5 km/h (4 Bft) 100,00 %
10.05.2016 02:14 13,3 C 79 % 1012,2 hPa 0,0 l/m 16,4 km/h (3 Bft) O-NO 70 0 min 0,000 mm 0,0 UV-I 0 W/m 9,7 C 8,6 C 20,9 km/h (4 Bft) 100,00 %
10.05.2016 02:15 13,3 C 79 % 1012,2 hPa 0,0 l/m 15,6 km/h (3 Bft) O-NO 74 0 min 0,000 mm 0,0 UV-I 0 W/m 9,7 C 8,9 C 19,3 km/h (3 Bft) 100,00 %
10.05.2016 02:16 13,3 C 79 % 1012,1 hPa 0,0 l/m 13,9 km/h (3 Bft) O-NO 61 0 min 0,000 mm 0,0 UV-I 0 W/m 9,7 C 9,5 C 16,1 km/h (3 Bft) 96,30 %
10.05.2016 02:17 13,2 C 79 % 1012,1 hPa 0,0 l/m 14,6 km/h (3 Bft) O-NO 76 0 min 0,000 mm 0,0 UV-I 0 W/m 9,6 C 9,2 C 24,1 km/h (4 Bft) 96,15 %
10.05.2016 02:18 13,2 C 79 % 1012,1 hPa 0,0 l/m 13,6 km/h (3 Bft) O-NO 78 0 min 0,000 mm 0,0 UV-I 0 W/m 9,6 C 9,5 C 17,7 km/h (3 Bft) 100,00 %
10.05.2016 02:19 13,2 C 79 % 1012,1 hPa 0,0 l/m 13,1 km/h (3 Bft) O 82 0 min 0,000 mm 0,0 UV-I 0 W/m 9,6 C 9,7 C 17,7 km/h (3 Bft) 100,00 %
10.05.2016 02:20 13,2 C 79 % 1012,1 hPa 0,0 l/m 14,7 km/h (3 Bft) O-NO 72 0 min 0,000 mm 0,0 UV-I 0 W/m 9,6 C 9,1 C 24,1 km/h (4 Bft) 100,00 %
10.05.2016 02:21 13,2 C 79 % 1012,1 hPa 0,0 l/m 15,0 km/h (3 Bft) NO 49 0 min 0,000 mm 0,0 UV-I 0 W/m 9,6 C 9,0 C 20,9 km/h (4 Bft) 100,00 %
10.05.2016 02:22 13,2 C 79 % 1012,0 hPa 0,0 l/m 17,6 km/h (3 Bft) O-NO 65 0 min 0,000 mm 0,0 UV-I 0 W/m 9,6 C 8,1 C 22,5 km/h (4 Bft) 100,00 %
10.05.2016 02:23 13,2 C 79 % 1012,0 hPa 0,0 l/m 20,2 km/h (4 Bft) O-NO 76 0 min 0,000 mm 0,0 UV-I 0 W/m 9,6 C 7,4 C 25,7 km/h (4 Bft) 100,00 %
10.05.2016 02:24 13,2 C 79 % 1012,0 hPa 0,0 l/m 15,4 km/h (3 Bft) O-NO 67 0 min 0,000 mm 0,0 UV-I 0 W/m 9,6 C 8,9 C 19,3 km/h (3 Bft) 100,00 %
10.05.2016 02:25 13,1 C 79 % 1012,0 hPa 0,0 l/m 16,3 km/h (3 Bft) O-NO 62 0 min 0,000 mm 0,0 UV-I 0 W/m 9,5 C 8,4 C 24,1 km/h (4 Bft) 100,00 %
10.05.2016 02:26 13,1 C 79 % 1011,9 hPa 0,0 l/m 17,5 km/h (3 Bft) O 83 0 min 0,000 mm 0,0 UV-I 0 W/m 9,5 C 8,0 C 24,1 km/h (4 Bft) 100,00 %
10.05.2016 02:27 13,1 C 79 % 1011,9 hPa 0,0 l/m 16,6 km/h (3 Bft) NO 46 0 min 0,000 mm 0,0 UV-I 0 W/m 9,5 C 8,3 C 24,1 km/h (4 Bft) 100,00 %
10.05.2016 02:28 13,1 C 79 % 1011,9 hPa 0,0 l/m 16,2 km/h (3 Bft) O-NO 73 0 min 0,000 mm 0,0 UV-I 0 W/m 9,5 C 8,5 C 24,1 km/h (4 Bft) 95,83 %
10.05.2016 02:29 13,1 C 80 % 1011,9 hPa 0,0 l/m 17,2 km/h (3 Bft) O-NO 57 0 min 0,000 mm 0,0 UV-I 0 W/m 9,7 C 8,1 C 22,5 km/h (4 Bft) 96,15 %
10.05.2016 02:30 13,1 C 79 % 1011,9 hPa 0,0 l/m 18,0 km/h (3 Bft) O-NO 69 0 min 0,000 mm 0,0 UV-I 0 W/m 9,5 C 7,9 C 22,5 km/h (4 Bft) 100,00 %
10.05.2016 02:31 13,0 C 79 % 1011,9 hPa 0,0 l/m 16,2 km/h (3 Bft) O-NO 61 0 min 0,000 mm 0,0 UV-I 0 W/m 9,4 C 8,3 C 22,5 km/h (4 Bft) 96,97 %
10.05.2016 02:32 13,0 C 80 % 1011,9 hPa 0,0 l/m 14,8 km/h (3 Bft) NO 55 0 min 0,000 mm 0,0 UV-I 0 W/m 9,6 C 8,8 C 17,7 km/h (3 Bft) 100,00 %
10.05.2016 02:33 12,9 C 80 % 1011,9 hPa 0,0 l/m 12,6 km/h (3 Bft) O-NO 68 0 min 0,000 mm 0,0 UV-I 0 W/m 9,5 C 9,6 C 17,7 km/h (3 Bft) 96,15 %
10.05.2016 02:34 12,9 C 80 % 1011,9 hPa 0,0 l/m 12,0 km/h (2 Bft) O-NO 68 0 min 0,000 mm 0,0 UV-I 0 W/m 9,5 C 9,9 C 19,3 km/h (3 Bft) 100,00 %
10.05.2016 02:35 12,9 C 80 % 1011,9 hPa 0,0 l/m 16,9 km/h (3 Bft) O 82 0 min 0,000 mm 0,0 UV-I 0 W/m 9,5 C 8,0 C 22,5 km/h (4 Bft) 100,00 %
10.05.2016 02:36 12,9 C 80 % 1011,9 hPa 0,0 l/m 19,1 km/h (3 Bft) O-NO 59 0 min 0,000 mm 0,0 UV-I 0 W/m 9,5 C 7,3 C 25,7 km/h (4 Bft) 100,00 %
10.05.2016 02:37 12,9 C 80 % 1011,8 hPa 0,0 l/m 18,9 km/h (3 Bft) O-NO 78 0 min 0,000 mm 0,0 UV-I 0 W/m 9,5 C 7,4 C 27,4 km/h (4 Bft) 100,00 %
10.05.2016 02:38 12,9 C 80 % 1011,8 hPa 0,0 l/m 18,6 km/h (3 Bft) NO 51 0 min 0,000 mm 0,0 UV-I 0 W/m 9,5 C 7,4 C 24,1 km/h (4 Bft) 100,00 %
10.05.2016 02:39 12,9 C 80 % 1011,9 hPa 0,0 l/m 15,2 km/h (3 Bft) O 84 0 min 0,000 mm 0,0 UV-I 0 W/m 9,5 C 8,6 C 24,1 km/h (4 Bft) 100,00 %
10.05.2016 02:40 12,9 C 80 % 1011,9 hPa 0,0 l/m 16,0 km/h (3 Bft) NO 49 0 min 0,000 mm 0,0 UV-I 0 W/m 9,5 C 8,3 C 22,5 km/h (4 Bft) 100,00 %
10.05.2016 02:41 12,8 C 80 % 1011,9 hPa 0,0 l/m 14,0 km/h (3 Bft) O-NO 75 0 min 0,000 mm 0,0 UV-I 0 W/m 9,4 C 8,9 C 19,3 km/h (3 Bft) 100,00 %
10.05.2016 02:42 12,8 C 80 % 1011,9 hPa 0,0 l/m 16,8 km/h (3 Bft) O-NO 69 0 min 0,000 mm 0,0 UV-I 0 W/m 9,4 C 7,9 C 19,3 km/h (3 Bft) 100,00 %
10.05.2016 02:43 12,8 C 80 % 1011,8 hPa 0,0 l/m 17,3 km/h (3 Bft) O-NO 57 0 min 0,000 mm 0,0 UV-I 0 W/m 9,4 C 7,7 C 27,4 km/h (4 Bft) 96,30 %
10.05.2016 02:44 12,8 C 80 % 1011,9 hPa 0,0 l/m 22,1 km/h (4 Bft) O-NO 65 0 min 0,000 mm 0,0 UV-I 0 W/m 9,4 C 6,3 C 27,4 km/h (4 Bft) 92,86 %
10.05.2016 02:45 12,8 C 80 % 1011,9 hPa 0,0 l/m 20,4 km/h (4 Bft) NO 39 0 min 0,000 mm 0,0 UV-I 0 W/m 9,4 C 6,8 C 25,7 km/h (4 Bft) 93,33 %
10.05.2016 02:46 12,8 C 80 % 1011,9 hPa 0,0 l/m 16,7 km/h (3 Bft) O 80 0 min 0,000 mm 0,0 UV-I 0 W/m 9,4 C 7,9 C 22,5 km/h (4 Bft) 96,55 %
10.05.2016 02:47 12,8 C 80 % 1011,8 hPa 0,0 l/m 17,4 km/h (3 Bft) O-NO 59 0 min 0,000 mm 0,0 UV-I 0 W/m 9,4 C 7,7 C 24,1 km/h (4 Bft) 96,67 %
10.05.2016 02:48 12,8 C 80 % 1011,8 hPa 0,0 l/m 16,0 km/h (3 Bft) O-NO 62 0 min 0,000 mm 0,0 UV-I 0 W/m 9,4 C 8,2 C 22,5 km/h (4 Bft) 95,65 %
10.05.2016 02:49 12,8 C 80 % 1011,9 hPa 0,0 l/m 16,8 km/h (3 Bft) O-NO 71 0 min 0,000 mm 0,0 UV-I 0 W/m 9,4 C 7,9 C 22,5 km/h (4 Bft) 100,00 %
10.05.2016 02:50 12,8 C 80 % 1011,9 hPa 0,0 l/m 17,6 km/h (3 Bft) O-NO 59 0 min 0,000 mm 0,0 UV-I 0 W/m 9,4 C 7,6 C 20,9 km/h (4 Bft) 91,67 %
10.05.2016 02:51 12,8 C 80 % 1011,9 hPa 0,0 l/m 16,3 km/h (3 Bft) NO 55 0 min 0,000 mm 0,0 UV-I 0 W/m 9,4 C 8,1 C 20,9 km/h (4 Bft) 96,88 %
10.05.2016 02:52 12,8 C 80 % 1011,9 hPa 0,0 l/m 19,1 km/h (3 Bft) O-NO 71 0 min 0,000 mm 0,0 UV-I 0 W/m 9,4 C 7,2 C 30,6 km/h (5 Bft) 96,15 %
10.05.2016 02:53 12,7 C 80 % 1011,9 hPa 0,0 l/m 18,5 km/h (3 Bft) O-NO 58 0 min 0,000 mm 0,0 UV-I 0 W/m 9,3 C 7,2 C 22,5 km/h (4 Bft) 100,00 %
10.05.2016 02:54 12,7 C 80 % 1011,9 hPa 0,0 l/m 19,7 km/h (3 Bft) O-NO 76 0 min 0,000 mm 0,0 UV-I 0 W/m 9,3 C 6,9 C 25,7 km/h (4 Bft) 96,30 %
10.05.2016 02:55 12,7 C 80 % 1011,9 hPa 0,0 l/m 17,7 km/h (3 Bft) O-NO 69 0 min 0,000 mm 0,0 UV-I 0 W/m 9,3 C 7,5 C 22,5 km/h (4 Bft) 96,15 %
10.05.2016 02:56 12,7 C 80 % 1011,9 hPa 0,0 l/m 13,4 km/h (3 Bft) O 97 0 min 0,000 mm 0,0 UV-I 0 W/m 9,3 C 9,0 C 19,3 km/h (3 Bft) 93,33 %
10.05.2016 02:57 12,7 C 80 % 1011,9 hPa 0,0 l/m 12,0 km/h (2 Bft) NO 56 0 min 0,000 mm 0,0 UV-I 0 W/m 9,3 C 9,6 C 19,3 km/h (3 Bft) 96,88 %
10.05.2016 02:58 12,7 C 80 % 1011,9 hPa 0,0 l/m 12,4 km/h (3 Bft) O-NO 71 0 min 0,000 mm 0,0 UV-I 0 W/m 9,3 C 9,4 C 19,3 km/h (3 Bft) 100,00 %
10.05.2016 02:59 12,7 C 80 % 1011,9 hPa 0,0 l/m 17,7 km/h (3 Bft) O-NO 77 0 min 0,000 mm 0,0 UV-I 0 W/m 9,3 C 7,5 C 20,9 km/h (4 Bft) 92,31 %
10.05.2016 03:00 12,7 C 80 % 1011,9 hPa 0,0 l/m 15,7 km/h (3 Bft) NO 56 0 min 0,051 mm 0,0 UV-I 0 W/m 9,3 C 8,2 C 22,5 km/h (4 Bft) 100,00 %
10.05.2016 03:01 12,7 C 80 % 1011,9 hPa 0,0 l/m 15,3 km/h (3 Bft) O 80 0 min 0,000 mm 0,0 UV-I 0 W/m 9,3 C 8,3 C 19,3 km/h (3 Bft) 95,65 %
10.05.2016 03:02 12,6 C 80 % 1011,9 hPa 0,0 l/m 11,7 km/h (2 Bft) O-NO 68 0 min 0,000 mm 0,0 UV-I 0 W/m 9,2 C 9,6 C 16,1 km/h (3 Bft) 100,00 %
10.05.2016 03:03 12,6 C 80 % 1011,9 hPa 0,0 l/m 14,0 km/h (3 Bft) O-NO 61 0 min 0,000 mm 0,0 UV-I 0 W/m 9,2 C 8,7 C 19,3 km/h (3 Bft) 96,15 %
10.05.2016 03:04 12,6 C 81 % 1011,9 hPa 0,0 l/m 13,7 km/h (3 Bft) NO 52 0 min 0,000 mm 0,0 UV-I 0 W/m 9,4 C 8,8 C 17,7 km/h (3 Bft) 100,00 %
10.05.2016 03:05 12,6 C 81 % 1011,8 hPa 0,0 l/m 11,7 km/h (2 Bft) O-NO 70 0 min 0,000 mm 0,0 UV-I 0 W/m 9,4 C 9,6 C 17,7 km/h (3 Bft) 96,15 %
10.05.2016 03:06 12,5 C 81 % 1011,9 hPa 0,0 l/m 13,7 km/h (3 Bft) O-NO 57 0 min 0,000 mm 0,0 UV-I 0 W/m 9,3 C 8,7 C 19,3 km/h (3 Bft) 96,30 %
10.05.2016 03:07 12,5 C 81 % 1011,9 hPa 0,0 l/m 16,7 km/h (3 Bft) O-NO 67 0 min 0,000 mm 0,0 UV-I 0 W/m 9,3 C 7,6 C 24,1 km/h (4 Bft) 100,00 %
10.05.2016 03:08 12,4 C 81 % 1011,9 hPa 0,0 l/m 15,8 km/h (3 Bft) O-NO 74 0 min 0,000 mm 0,0 UV-I 0 W/m 9,2 C 7,7 C 20,9 km/h (4 Bft) 93,10 %
10.05.2016 03:09 12,4 C 81 % 1011,9 hPa 0,0 l/m 18,5 km/h (3 Bft) O 80 0 min 0,000 mm 0,0 UV-I 0 W/m 9,2 C 6,8 C 24,1 km/h (4 Bft) 100,00 %
10.05.2016 03:10 12,4 C 81 % 1011,9 hPa 0,0 l/m 12,1 km/h (2 Bft) O-NO 59 0 min 0,000 mm 0,0 UV-I 0 W/m 9,2 C 9,2 C 17,7 km/h (3 Bft) 96,55 %
10.05.2016 03:11 12,4 C 81 % 1011,9 hPa 0,0 l/m 16,5 km/h (3 Bft) O-NO 67 0 min 0,000 mm 0,0 UV-I 0 W/m 9,2 C 7,5 C 22,5 km/h (4 Bft) 100,00 %
10.05.2016 03:12 12,4 C 81 % 1011,9 hPa 0,0 l/m 17,6 km/h (3 Bft) O-NO 74 0 min 0,000 mm 0,0 UV-I 0 W/m 9,2 C 7,1 C 24,1 km/h (4 Bft) 95,65 %
10.05.2016 03:13 12,4 C 81 % 1011,9 hPa 0,0 l/m 15,3 km/h (3 Bft) O 82 0 min 0,000 mm 0,0 UV-I 0 W/m 9,2 C 7,9 C 20,9 km/h (4 Bft) 96,30 %
10.05.2016 03:14 12,4 C 81 % 1011,8 hPa 0,0 l/m 15,2 km/h (3 Bft) O-NO 63 0 min 0,000 mm 0,0 UV-I 0 W/m 9,2 C 8,0 C 22,5 km/h (4 Bft) 100,00 %
10.05.2016 03:15 12,4 C 81 % 1011,8 hPa 0,0 l/m 15,8 km/h (3 Bft) O-NO 78 0 min 0,000 mm 0,0 UV-I 0 W/m 9,2 C 7,7 C 19,3 km/h (3 Bft) 95,83 %
10.05.2016 03:16 12,4 C 81 % 1011,8 hPa 0,0 l/m 17,3 km/h (3 Bft) NO 55 0 min 0,000 mm 0,0 UV-I 0 W/m 9,2 C 7,2 C 22,5 km/h (4 Bft) 100,00 %
10.05.2016 03:17 12,4 C 81 % 1011,8 hPa 0,0 l/m 15,9 km/h (3 Bft) O-NO 67 0 min 0,000 mm 0,0 UV-I 0 W/m 9,2 C 7,7 C 20,9 km/h (4 Bft) 100,00 %
10.05.2016 03:18 12,4 C 81 % 1011,8 hPa 0,0 l/m 15,4 km/h (3 Bft) NO 51 0 min 0,000 mm 0,0 UV-I 0 W/m 9,2 C 7,9 C 20,9 km/h (4 Bft) 96,15 %
10.05.2016 03:19 12,3 C 81 % 1011,8 hPa 0,0 l/m 15,2 km/h (3 Bft) O-NO 63 0 min 0,000 mm 0,0 UV-I 0 W/m 9,1 C 7,8 C 17,7 km/h (3 Bft) 100,00 %
10.05.2016 03:20 12,4 C 81 % 1011,8 hPa 0,0 l/m 14,9 km/h (3 Bft) NO 52 0 min 0,000 mm 0,0 UV-I 0 W/m 9,2 C 8,1 C 19,3 km/h (3 Bft) 100,00 %
10.05.2016 03:21 12,3 C 81 % 1011,8 hPa 0,0 l/m 16,3 km/h (3 Bft) NO 55 0 min 0,000 mm 0,0 UV-I 0 W/m 9,1 C 7,4 C 22,5 km/h (4 Bft) 96,67 %
10.05.2016 03:22 12,3 C 81 % 1011,7 hPa 0,0 l/m 15,9 km/h (3 Bft) O-NO 73 0 min 0,000 mm 0,0 UV-I 0 W/m 9,1 C 7,6 C 20,9 km/h (4 Bft) 100,00 %
10.05.2016 03:23 12,3 C 81 % 1011,7 hPa 0,0 l/m 16,0 km/h (3 Bft) NO 47 0 min 0,000 mm 0,0 UV-I 0 W/m 9,1 C 7,6 C 20,9 km/h (4 Bft) 100,00 %
10.05.2016 03:24 12,3 C 81 % 1011,7 hPa 0,0 l/m 16,3 km/h (3 Bft) O-NO 59 0 min 0,000 mm 0,0 UV-I 0 W/m 9,1 C 7,4 C 19,3 km/h (3 Bft) 100,00 %
10.05.2016 03:25 12,3 C 81 % 1011,7 hPa 0,0 l/m 19,2 km/h (3 Bft) O-NO 61 0 min 0,000 mm 0,0 UV-I 0 W/m 9,1 C 6,5 C 25,7 km/h (4 Bft) 92,59 %
10.05.2016 03:26 12,3 C 81 % 1011,7 hPa 0,0 l/m 16,7 km/h (3 Bft) NO 51 0 min 0,000 mm 0,0 UV-I 0 W/m 9,1 C 7,3 C 22,5 km/h (4 Bft) 100,00 %
10.05.2016 03:27 12,3 C 81 % 1011,6 hPa 0,0 l/m 14,1 km/h (3 Bft) O-NO 59 0 min 0,000 mm 0,0 UV-I 0 W/m 9,1 C 8,3 C 20,9 km/h (4 Bft) 100,00 %
10.05.2016 03:28 12,2 C 82 % 1011,6 hPa 0,0 l/m 15,7 km/h (3 Bft) NO 56 0 min 0,000 mm 0,0 UV-I 0 W/m 9,2 C 7,5 C 22,5 km/h (4 Bft) 95,65 %
10.05.2016 03:29 12,2 C 82 % 1011,6 hPa 0,0 l/m 13,6 km/h (3 Bft) NO 46 0 min 0,000 mm 0,0 UV-I 0 W/m 9,2 C 8,4 C 16,1 km/h (3 Bft) 100,00 %
10.05.2016 03:30 12,2 C 82 % 1011,7 hPa 0,0 l/m 10,9 km/h (2 Bft) NO 55 0 min 0,000 mm 0,0 UV-I 0 W/m 9,2 C 9,6 C 14,5 km/h (3 Bft) 96,55 %
10.05.2016 03:31 12,2 C 82 % 1011,6 hPa 0,0 l/m 13,5 km/h (3 Bft) O-NO 77 0 min 0,000 mm 0,0 UV-I 0 W/m 9,2 C 8,4 C 20,9 km/h (4 Bft) 100,00 %
10.05.2016 03:32 12,2 C 82 % 1011,7 hPa 0,0 l/m 16,1 km/h (3 Bft) NO 48 0 min 0,000 mm 0,0 UV-I 0 W/m 9,2 C 7,4 C 22,5 km/h (4 Bft) 100,00 %
10.05.2016 03:33 12,1 C 82 % 1011,7 hPa 0,0 l/m 13,4 km/h (3 Bft) NO 51 0 min 0,000 mm 0,0 UV-I 0 W/m 9,1 C 8,3 C 19,3 km/h (3 Bft) 100,00 %
10.05.2016 03:34 12,1 C 82 % 1011,7 hPa 0,0 l/m 13,3 km/h (3 Bft) O-NO 57 0 min 0,000 mm 0,0 UV-I 0 W/m 9,1 C 8,4 C 17,7 km/h (3 Bft) 100,00 %
10.05.2016 03:35 12,1 C 82 % 1011,7 hPa 0,0 l/m 10,1 km/h (2 Bft) NO 50 0 min 0,000 mm 0,0 UV-I 0 W/m 9,1 C 9,9 C 16,1 km/h (3 Bft) 100,00 %
10.05.2016 03:36 12,1 C 82 % 1011,7 hPa 0,0 l/m 10,4 km/h (2 Bft) O-NO 66 0 min 0,000 mm 0,0 UV-I 0 W/m 9,1 C 9,7 C 16,1 km/h (3 Bft) 100,00 %
10.05.2016 03:37 12,1 C 82 % 1011,7 hPa 0,0 l/m 8,0 km/h (2 Bft) O-NO 58 0 min 0,000 mm 0,0 UV-I 0 W/m 9,1 C 11,1 C 12,9 km/h (3 Bft) 100,00 %
10.05.2016 03:38 12,1 C 82 % 1011,7 hPa 0,0 l/m 12,6 km/h (3 Bft) O-NO 77 0 min 0,000 mm 0,0 UV-I 0 W/m 9,1 C 8,7 C 16,1 km/h (3 Bft) 100,00 %
10.05.2016 03:39 12,0 C 82 % 1011,6 hPa 0,0 l/m 14,7 km/h (3 Bft) O-NO 58 0 min 0,000 mm 0,0 UV-I 0 W/m 9,0 C 7,7 C 20,9 km/h (4 Bft) 100,00 %
10.05.2016 03:40 12,0 C 82 % 1011,6 hPa 0,0 l/m 15,0 km/h (3 Bft) O-NO 71 0 min 0,000 mm 0,0 UV-I 0 W/m 9,0 C 7,6 C 19,3 km/h (3 Bft) 100,00 %
10.05.2016 03:41 11,9 C 82 % 1011,7 hPa 0,0 l/m 10,4 km/h (2 Bft) O-NO 76 0 min 0,000 mm 0,0 UV-I 0 W/m 8,9 C 9,5 C 17,7 km/h (3 Bft) 100,00 %
10.05.2016 03:42 11,9 C 82 % 1011,6 hPa 0,0 l/m 9,1 km/h (2 Bft) O-NO 65 0 min 0,000 mm 0,0 UV-I 0 W/m 8,9 C 10,2 C 14,5 km/h (3 Bft) 100,00 %
10.05.2016 03:43 11,9 C 83 % 1011,7 hPa 0,0 l/m 13,4 km/h (3 Bft) O 88 0 min 0,000 mm 0,0 UV-I 0 W/m 9,1 C 8,1 C 16,1 km/h (3 Bft) 96,15 %
10.05.2016 03:44 11,9 C 83 % 1011,7 hPa 0,0 l/m 9,7 km/h (2 Bft) O-SO 110 0 min 0,000 mm 0,0 UV-I 0 W/m 9,1 C 9,9 C 14,5 km/h (3 Bft) 100,00 %
10.05.2016 03:45 11,9 C 82 % 1011,7 hPa 0,0 l/m 12,7 km/h (3 Bft) O 82 0 min 0,000 mm 0,0 UV-I 0 W/m 8,9 C 8,4 C 17,7 km/h (3 Bft) 100,00 %
10.05.2016 03:46 11,9 C 83 % 1011,7 hPa 0,0 l/m 15,5 km/h (3 Bft) O 87 0 min 0,000 mm 0,0 UV-I 0 W/m 9,1 C 7,2 C 20,9 km/h (4 Bft) 100,00 %
10.05.2016 03:47 11,9 C 83 % 1011,7 hPa 0,0 l/m 9,9 km/h (2 Bft) O-NO 71 0 min 0,000 mm 0,0 UV-I 0 W/m 9,1 C 9,7 C 16,1 km/h (3 Bft) 100,00 %
10.05.2016 03:48 11,8 C 83 % 1011,7 hPa 0,0 l/m 12,1 km/h (2 Bft) O-NO 75 0 min 0,000 mm 0,0 UV-I 0 W/m 9,0 C 8,5 C 16,1 km/h (3 Bft) 100,00 %
10.05.2016 03:49 11,8 C 83 % 1011,7 hPa 0,0 l/m 8,4 km/h (2 Bft) O-NO 77 0 min 0,000 mm 0,0 UV-I 0 W/m 9,0 C 10,5 C 16,1 km/h (3 Bft) 100,00 %
10.05.2016 03:50 11,8 C 83 % 1011,7 hPa 0,0 l/m 13,4 km/h (3 Bft) O 90 0 min 0,000 mm 0,0 UV-I 0 W/m 9,0 C 8,0 C 22,5 km/h (4 Bft) 100,00 %
10.05.2016 03:51 11,8 C 83 % 1011,6 hPa 0,0 l/m 13,9 km/h (3 Bft) O-NO 63 0 min 0,000 mm 0,0 UV-I 0 W/m 9,0 C 7,8 C 17,7 km/h (3 Bft) 100,00 %
10.05.2016 03:52 11,8 C 83 % 1011,6 hPa 0,0 l/m 18,1 km/h (3 Bft) O-NO 63 0 min 0,000 mm 0,0 UV-I 0 W/m 9,0 C 6,2 C 24,1 km/h (4 Bft) 100,00 %
10.05.2016 03:53 11,8 C 83 % 1011,6 hPa 0,0 l/m 16,5 km/h (3 Bft) NO 46 0 min 0,000 mm 0,0 UV-I 0 W/m 9,0 C 6,8 C 19,3 km/h (3 Bft) 100,00 %
10.05.2016 03:54 11,8 C 83 % 1011,6 hPa 0,0 l/m 14,0 km/h (3 Bft) NO 56 0 min 0,000 mm 0,0 UV-I 0 W/m 9,0 C 7,7 C 19,3 km/h (3 Bft) 100,00 %
10.05.2016 03:55 11,8 C 83 % 1011,6 hPa 0,0 l/m 16,5 km/h (3 Bft) NO 39 0 min 0,000 mm 0,0 UV-I 0 W/m 9,0 C 6,8 C 20,9 km/h (4 Bft) 100,00 %
10.05.2016 03:56 11,8 C 83 % 1011,6 hPa 0,0 l/m 15,2 km/h (3 Bft) O 79 0 min 0,000 mm 0,0 UV-I 0 W/m 9,0 C 7,2 C 19,3 km/h (3 Bft) 100,00 %
10.05.2016 03:57 11,8 C 83 % 1011,6 hPa 0,0 l/m 13,0 km/h (3 Bft) O 88 0 min 0,000 mm 0,0 UV-I 0 W/m 9,0 C 8,1 C 16,1 km/h (3 Bft) 100,00 %
10.05.2016 03:58 11,8 C 83 % 1011,6 hPa 0,0 l/m 11,5 km/h (2 Bft) O-NO 70 0 min 0,000 mm 0,0 UV-I 0 W/m 9,0 C 8,8 C 16,1 km/h (3 Bft) 100,00 %
10.05.2016 03:59 11,8 C 83 % 1011,6 hPa 0,0 l/m 14,0 km/h (3 Bft) NO 48 0 min 0,000 mm 0,0 UV-I 0 W/m 9,0 C 7,7 C 20,9 km/h (4 Bft) 100,00 %
10.05.2016 04:00 11,8 C 83 % 1011,6 hPa 0,0 l/m 12,3 km/h (3 Bft) NO 56 0 min 0,000 mm 0,0 UV-I 0 W/m 9,0 C 8,4 C 16,1 km/h (3 Bft) 100,00 %
10.05.2016 04:01 11,8 C 83 % 1011,7 hPa 0,0 l/m 14,4 km/h (3 Bft) O-NO 73 0 min 0,025 mm 0,0 UV-I 0 W/m 9,0 C 7,6 C 19,3 km/h (3 Bft) 88,89 %
10.05.2016 04:02 11,8 C 83 % 1011,7 hPa 0,0 l/m 16,5 km/h (3 Bft) NO 55 0 min 0,000 mm 0,0 UV-I 0 W/m 9,0 C 6,8 C 22,5 km/h (4 Bft) 100,00 %
10.05.2016 04:03 11,7 C 83 % 1011,6 hPa 0,0 l/m 13,6 km/h (3 Bft) O 86 0 min 0,000 mm 0,0 UV-I 0 W/m 8,9 C 7,8 C 24,1 km/h (4 Bft) 96,30 %
10.05.2016 04:04 11,7 C 83 % 1011,6 hPa 0,0 l/m 13,6 km/h (3 Bft) O-NO 59 0 min 0,000 mm 0,0 UV-I 0 W/m 8,9 C 7,8 C 16,1 km/h (3 Bft) 100,00 %
10.05.2016 04:05 11,7 C 83 % 1011,6 hPa 0,0 l/m 10,1 km/h (2 Bft) NO 55 0 min 0,000 mm 0,0 UV-I 0 W/m 8,9 C 9,4 C 17,7 km/h (3 Bft) 100,00 %
10.05.2016 04:06 11,7 C 83 % 1011,6 hPa 0,0 l/m 13,9 km/h (3 Bft) O 90 0 min 0,000 mm 0,0 UV-I 0 W/m 8,9 C 7,6 C 19,3 km/h (3 Bft) 100,00 %
10.05.2016 04:07 11,7 C 83 % 1011,6 hPa 0,0 l/m 13,2 km/h (3 Bft) NO 53 0 min 0,000 mm 0,0 UV-I 0 W/m 8,9 C 7,9 C 16,1 km/h (3 Bft) 100,00 %
10.05.2016 04:08 11,7 C 83 % 1011,6 hPa 0,0 l/m 18,8 km/h (3 Bft) NO 46 0 min 0,000 mm 0,0 UV-I 0 W/m 8,9 C 5,9 C 25,7 km/h (4 Bft) 100,00 %
10.05.2016 04:09 11,7 C 83 % 1011,6 hPa 0,0 l/m 16,2 km/h (3 Bft) O-NO 69 0 min 0,000 mm 0,0 UV-I 0 W/m 8,9 C 6,7 C 22,5 km/h (4 Bft) 100,00 %
10.05.2016 04:10 11,7 C 83 % 1011,6 hPa 0,0 l/m 16,7 km/h (3 Bft) NO 46 0 min 0,000 mm 0,0 UV-I 0 W/m 8,9 C 6,6 C 24,1 km/h (4 Bft) 100,00 %
10.05.2016 04:11 11,7 C 83 % 1011,7 hPa 0,0 l/m 16,1 km/h (3 Bft) O-NO 60 0 min 0,000 mm 0,0 UV-I 0 W/m 8,9 C 6,8 C 19,3 km/h (3 Bft) 100,00 %
10.05.2016 04:12 11,7 C 83 % 1011,7 hPa 0,0 l/m 16,5 km/h (3 Bft) O-NO 60 0 min 0,000 mm 0,0 UV-I 0 W/m 8,9 C 6,6 C 20,9 km/h (4 Bft) 100,00 %
10.05.2016 04:13 11,6 C 83 % 1011,7 hPa 0,0 l/m 13,5 km/h (3 Bft) O 81 0 min 0,000 mm 0,0 UV-I 0 W/m 8,8 C 7,7 C 17,7 km/h (3 Bft) 100,00 %
10.05.2016 04:14 11,6 C 83 % 1011,7 hPa 0,0 l/m 12,5 km/h (3 Bft) NO 52 0 min 0,000 mm 0,0 UV-I 0 W/m 8,8 C 8,1 C 17,7 km/h (3 Bft) 100,00 %
10.05.2016 04:15 11,6 C 83 % 1011,7 hPa 0,0 l/m 13,8 km/h (3 Bft) O-NO 66 0 min 0,000 mm 0,0 UV-I 0 W/m 8,8 C 7,6 C 19,3 km/h (3 Bft) 100,00 %
10.05.2016 04:16 11,6 C 83 % 1011,6 hPa 0,0 l/m 16,5 km/h (3 Bft) O-NO 78 0 min 0,000 mm 0,0 UV-I 0 W/m 8,8 C 6,5 C 22,5 km/h (4 Bft) 100,00 %
10.05.2016 04:17 11,6 C 83 % 1011,6 hPa 0,0 l/m 12,1 km/h (2 Bft) NO 42 0 min 0,000 mm 0,0 UV-I 0 W/m 8,8 C 8,3 C 19,3 km/h (3 Bft) 100,00 %
10.05.2016 04:18 11,6 C 83 % 1011,6 hPa 0,0 l/m 15,8 km/h (3 Bft) O-NO 66 0 min 0,000 mm 0,0 UV-I 0 W/m 8,8 C 6,8 C 20,9 km/h (4 Bft) 100,00 %
10.05.2016 04:19 11,6 C 84 % 1011,6 hPa 0,0 l/m 15,8 km/h (3 Bft) O-NO 70 0 min 0,000 mm 0,0 UV-I 0 W/m 9,0 C 6,8 C 22,5 km/h (4 Bft) 100,00 %
10.05.2016 04:20 11,5 C 84 % 1011,6 hPa 0,0 l/m 10,6 km/h (2 Bft) NO 44 0 min 0,000 mm 0,0 UV-I 0 W/m 8,9 C 8,9 C 14,5 km/h (3 Bft) 100,00 %
10.05.2016 04:21 11,5 C 84 % 1011,6 hPa 0,0 l/m 15,7 km/h (3 Bft) NO 42 0 min 0,000 mm 0,0 UV-I 0 W/m 8,9 C 6,7 C 20,9 km/h (4 Bft) 99,56 %
10.05.2016 04:22 11,5 C 84 % 1011,6 hPa 0,0 l/m 13,7 km/h (3 Bft) O-NO 57 0 min 0,000 mm 0,0 UV-I 0 W/m 8,9 C 7,5 C 22,5 km/h (4 Bft) 100,00 %
10.05.2016 04:23 11,5 C 84 % 1011,6 hPa 0,0 l/m 19,0 km/h (3 Bft) O-NO 61 0 min 0,000 mm 0,0 UV-I 0 W/m 8,9 C 5,5 C 27,4 km/h (4 Bft) 95,65 %
10.05.2016 04:24 11,5 C 84 % 1011,6 hPa 0,0 l/m 20,1 km/h (4 Bft) O-NO 59 0 min 0,000 mm 0,0 UV-I 0 W/m 8,9 C 5,2 C 25,7 km/h (4 Bft) 100,00 %
10.05.2016 04:25 11,4 C 84 % 1011,6 hPa 0,0 l/m 17,6 km/h (3 Bft) O-NO 63 0 min 0,000 mm 0,0 UV-I 0 W/m 8,8 C 5,9 C 24,1 km/h (4 Bft) 100,00 %
10.05.2016 04:26 11,4 C 84 % 1011,6 hPa 0,0 l/m 12,5 km/h (3 Bft) O-NO 59 0 min 0,000 mm 0,0 UV-I 0 W/m 8,8 C 7,9 C 19,3 km/h (3 Bft) 100,00 %
10.05.2016 04:27 11,4 C 84 % 1011,6 hPa 0,0 l/m 14,3 km/h (3 Bft) O-NO 62 0 min 0,000 mm 0,0 UV-I 0 W/m 8,8 C 7,1 C 20,9 km/h (4 Bft) 100,00 %
10.05.2016 04:28 11,4 C 84 % 1011,6 hPa 0,0 l/m 12,8 km/h (3 Bft) O 88 0 min 0,000 mm 0,0 UV-I 0 W/m 8,8 C 7,8 C 16,1 km/h (3 Bft) 100,00 %
10.05.2016 04:29 11,4 C 84 % 1011,6 hPa 0,0 l/m 17,6 km/h (3 Bft) O-NO 67 0 min 0,000 mm 0,0 UV-I 0 W/m 8,8 C 5,9 C 25,7 km/h (4 Bft) 100,00 %
10.05.2016 04:30 11,4 C 84 % 1011,6 hPa 0,0 l/m 18,6 km/h (3 Bft) O-NO 57 0 min 0,000 mm 0,0 UV-I 0 W/m 8,8 C 5,5 C 25,7 km/h (4 Bft) 100,00 %
10.05.2016 04:31 11,4 C 84 % 1011,6 hPa 0,0 l/m 18,3 km/h (3 Bft) O-NO 57 0 min 0,000 mm 0,0 UV-I 0 W/m 8,8 C 5,6 C 22,5 km/h (4 Bft) 100,00 %
10.05.2016 04:32 11,4 C 84 % 1011,6 hPa 0,0 l/m 21,0 km/h (4 Bft) O-NO 60 0 min 0,000 mm 0,0 UV-I 0 W/m 8,8 C 4,8 C 25,7 km/h (4 Bft) 100,00 %
10.05.2016 04:33 11,4 C 84 % 1011,6 hPa 0,0 l/m 17,2 km/h (3 Bft) O 80 0 min 0,000 mm 0,0 UV-I 0 W/m 8,8 C 6,0 C 24,1 km/h (4 Bft) 100,00 %
10.05.2016 04:34 11,4 C 84 % 1011,6 hPa 0,0 l/m 20,7 km/h (4 Bft) O-NO 60 0 min 0,000 mm 0,0 UV-I 0 W/m 8,8 C 4,9 C 32,2 km/h (5 Bft) 100,00 %
10.05.2016 04:35 11,4 C 84 % 1011,6 hPa 0,0 l/m 19,5 km/h (3 Bft) O-NO 77 0 min 0,000 mm 0,0 UV-I 0 W/m 8,8 C 5,3 C 29,0 km/h (5 Bft) 100,00 %
10.05.2016 04:36 11,4 C 84 % 1011,6 hPa 0,0 l/m 17,0 km/h (3 Bft) O-NO 70 0 min 0,000 mm 0,0 UV-I 0 W/m 8,8 C 6,1 C 22,5 km/h (4 Bft) 100,00 %
10.05.2016 04:37 11,4 C 84 % 1011,6 hPa 0,0 l/m 21,6 km/h (4 Bft) O-NO 68 0 min 0,000 mm 0,0 UV-I 0 W/m 8,8 C 4,6 C 27,4 km/h (4 Bft) 100,00 %
10.05.2016 04:38 11,4 C 84 % 1011,6 hPa 0,0 l/m 21,2 km/h (4 Bft) O-NO 74 0 min 0,000 mm 0,0 UV-I 0 W/m 8,8 C 4,7 C 25,7 km/h (4 Bft) 100,00 %
10.05.2016 04:39 11,4 C 84 % 1011,6 hPa 0,0 l/m 17,2 km/h (3 Bft) O 88 0 min 0,000 mm 0,0 UV-I 0 W/m 8,8 C 6,0 C 24,1 km/h (4 Bft) 100,00 %
10.05.2016 04:40 11,4 C 84 % 1011,6 hPa 0,0 l/m 13,8 km/h (3 Bft) O-NO 59 0 min 0,000 mm 0,0 UV-I 0 W/m 8,8 C 7,3 C 19,3 km/h (3 Bft) 100,00 %
10.05.2016 04:41 11,4 C 84 % 1011,6 hPa 0,0 l/m 15,6 km/h (3 Bft) O 90 0 min 0,000 mm 0,0 UV-I 0 W/m 8,8 C 6,6 C 19,3 km/h (3 Bft) 100,00 %
10.05.2016 04:42 11,4 C 84 % 1011,6 hPa 0,0 l/m 16,4 km/h (3 Bft) O-NO 69 0 min 0,000 mm 0,0 UV-I 0 W/m 8,8 C 6,3 C 22,5 km/h (4 Bft) 95,65 %
10.05.2016 04:43 11,4 C 84 % 1011,6 hPa 0,0 l/m 18,8 km/h (3 Bft) O 83 0 min 0,000 mm 0,0 UV-I 0 W/m 8,8 C 5,5 C 29,0 km/h (5 Bft) 100,00 %
10.05.2016 04:44 11,3 C 84 % 1011,5 hPa 0,0 l/m 18,2 km/h (3 Bft) O-NO 59 0 min 0,000 mm 0,0 UV-I 0 W/m 8,7 C 5,5 C 24,1 km/h (4 Bft) 100,00 %
10.05.2016 04:45 11,3 C 84 % 1011,5 hPa 0,0 l/m 17,4 km/h (3 Bft) O 79 0 min 0,000 mm 0,0 UV-I 0 W/m 8,7 C 5,8 C 24,1 km/h (4 Bft) 96,55 %
10.05.2016 04:46 11,3 C 84 % 1011,5 hPa 0,0 l/m 16,3 km/h (3 Bft) O 81 0 min 0,000 mm 0,0 UV-I 0 W/m 8,7 C 6,2 C 19,3 km/h (3 Bft) 100,00 %
10.05.2016 04:47 11,3 C 84 % 1011,5 hPa 0,0 l/m 17,6 km/h (3 Bft) O-NO 75 0 min 0,000 mm 0,0 UV-I 0 W/m 8,7 C 5,7 C 24,1 km/h (4 Bft) 93,33 %
10.05.2016 04:48 11,3 C 84 % 1011,5 hPa 0,0 l/m 19,4 km/h (3 Bft) O-NO 69 0 min 0,000 mm 0,0 UV-I 0 W/m 8,7 C 5,2 C 24,1 km/h (4 Bft) 95,12 %
10.05.2016 04:49 11,3 C 84 % 1011,5 hPa 0,0 l/m 17,4 km/h (3 Bft) NO 36 0 min 0,000 mm 0,0 UV-I 0 W/m 8,7 C 5,8 C 22,5 km/h (4 Bft) 100,00 %
10.05.2016 04:50 11,3 C 84 % 1011,5 hPa 0,0 l/m 19,0 km/h (3 Bft) O-NO 65 0 min 0,000 mm 0,0 UV-I 0 W/m 8,7 C 5,3 C 27,4 km/h (4 Bft) 100,00 %
10.05.2016 04:51 11,3 C 84 % 1011,5 hPa 0,0 l/m 16,5 km/h (3 Bft) O-NO 78 0 min 0,000 mm 0,0 UV-I 0 W/m 8,7 C 6,1 C 24,1 km/h (4 Bft) 97,73 %
10.05.2016 04:52 11,3 C 84 % 1011,5 hPa 0,0 l/m 16,3 km/h (3 Bft) O-NO 59 0 min 0,000 mm 0,0 UV-I 0 W/m 8,7 C 6,2 C 24,1 km/h (4 Bft) 91,67 %
10.05.2016 04:53 11,3 C 84 % 1011,5 hPa 0,0 l/m 22,0 km/h (4 Bft) O 93 0 min 0,000 mm 0,0 UV-I 0 W/m 8,7 C 4,4 C 30,6 km/h (5 Bft) 100,00 %
10.05.2016 04:54 11,3 C 84 % 1011,5 hPa 0,0 l/m 22,4 km/h (4 Bft) O-NO 59 0 min 0,000 mm 0,0 UV-I 0 W/m 8,7 C 4,3 C 37,0 km/h (5 Bft) 95,83 %
10.05.2016 04:55 11,3 C 84 % 1011,5 hPa 0,0 l/m 22,0 km/h (4 Bft) O-NO 63 0 min 0,000 mm 0,0 UV-I 0 W/m 8,7 C 4,4 C 30,6 km/h (5 Bft) 100,00 %
10.05.2016 04:56 11,3 C 84 % 1011,4 hPa 0,0 l/m 22,6 km/h (4 Bft) O-NO 74 0 min 0,000 mm 0,0 UV-I 0 W/m 8,7 C 4,2 C 33,8 km/h (5 Bft) 95,83 %
10.05.2016 04:57 11,3 C 84 % 1011,4 hPa 0,0 l/m 23,5 km/h (4 Bft) O-NO 67 0 min 0,000 mm 0,0 UV-I 0 W/m 8,7 C 4,0 C 35,4 km/h (5 Bft) 96,15 %
10.05.2016 04:58 11,3 C 84 % 1011,4 hPa 0,0 l/m 23,7 km/h (4 Bft) O-NO 58 0 min 0,000 mm 0,0 UV-I 0 W/m 8,7 C 3,9 C 32,2 km/h (5 Bft) 100,00 %
10.05.2016 04:59 11,3 C 84 % 1011,4 hPa 0,0 l/m 20,4 km/h (4 Bft) N-NO 26 0 min 0,000 mm 0,0 UV-I 0 W/m 8,7 C 4,8 C 30,6 km/h (5 Bft) 96,15 %
10.05.2016 05:00 11,3 C 84 % 1011,4 hPa 0,0 l/m 23,0 km/h (4 Bft) O-NO 68 0 min 0,026 mm 0,0 UV-I 0 W/m 8,7 C 4,1 C 29,0 km/h (5 Bft) 100,00 %
10.05.2016 05:01 11,4 C 84 % 1011,4 hPa 0,0 l/m 21,8 km/h (4 Bft) O-NO 71 0 min 0,000 mm 0,0 UV-I 0 W/m 8,8 C 4,6 C 32,2 km/h (5 Bft) 91,67 %
10.05.2016 05:02 11,3 C 84 % 1011,4 hPa 0,0 l/m 24,8 km/h (4 Bft) O-NO 69 0 min 0,000 mm 0,0 UV-I 0 W/m 8,7 C 3,6 C 32,2 km/h (5 Bft) 100,00 %
10.05.2016 05:03 11,4 C 84 % 1011,4 hPa 0,0 l/m 20,7 km/h (4 Bft) O-NO 70 0 min 0,000 mm 0,0 UV-I 0 W/m 8,8 C 4,9 C 27,4 km/h (4 Bft) 96,15 %
10.05.2016 05:04 11,3 C 84 % 1011,4 hPa 0,0 l/m 20,0 km/h (4 Bft) O-NO 71 0 min 0,000 mm 0,0 UV-I 0 W/m 8,7 C 5,0 C 27,4 km/h (4 Bft) 100,00 %
10.05.2016 05:05 11,3 C 84 % 1011,4 hPa 0,0 l/m 18,4 km/h (3 Bft) O 88 0 min 0,000 mm 0,0 UV-I 0 W/m 8,7 C 5,5 C 27,4 km/h (4 Bft) 96,15 %
10.05.2016 05:06 11,4 C 84 % 1011,4 hPa 0,0 l/m 24,2 km/h (4 Bft) O-NO 61 0 min 0,000 mm 0,0 UV-I 0 W/m 8,8 C 3,9 C 30,6 km/h (5 Bft) 100,00 %
10.05.2016 05:07 11,3 C 84 % 1011,4 hPa 0,0 l/m 23,7 km/h (4 Bft) O-NO 63 0 min 0,000 mm 0,0 UV-I 0 W/m 8,7 C 3,9 C 30,6 km/h (5 Bft) 96,30 %
10.05.2016 05:08 11,3 C 84 % 1011,4 hPa 0,0 l/m 23,6 km/h (4 Bft) O-NO 67 0 min 0,000 mm 0,0 UV-I 0 W/m 8,7 C 3,9 C 32,2 km/h (5 Bft) 96,15 %
10.05.2016 05:09 11,3 C 84 % 1011,4 hPa 0,0 l/m 19,7 km/h (3 Bft) NO 55 0 min 0,000 mm 0,0 UV-I 0 W/m 8,7 C 5,1 C 25,7 km/h (4 Bft) 100,00 %
10.05.2016 05:10 11,3 C 84 % 1011,4 hPa 0,0 l/m 21,1 km/h (4 Bft) O-NO 63 0 min 0,000 mm 0,0 UV-I 0 W/m 8,7 C 4,6 C 25,7 km/h (4 Bft) 95,00 %
10.05.2016 05:11 11,3 C 84 % 1011,4 hPa 0,0 l/m 20,9 km/h (4 Bft) O-NO 72 0 min 0,000 mm 0,0 UV-I 0 W/m 8,7 C 4,7 C 27,4 km/h (4 Bft) 100,00 %
10.05.2016 05:12 11,3 C 84 % 1011,4 hPa 0,0 l/m 21,0 km/h (4 Bft) O-NO 63 0 min 0,000 mm 0,0 UV-I 0 W/m 8,7 C 4,7 C 27,4 km/h (4 Bft) 91,30 %
10.05.2016 05:13 11,3 C 84 % 1011,4 hPa 0,0 l/m 18,1 km/h (3 Bft) O 80 0 min 0,000 mm 0,0 UV-I 0 W/m 8,7 C 5,6 C 22,5 km/h (4 Bft) 100,00 %
10.05.2016 05:14 11,3 C 84 % 1011,3 hPa 0,0 l/m 18,4 km/h (3 Bft) NO 40 0 min 0,000 mm 0,0 UV-I 0 W/m 8,7 C 5,5 C 22,5 km/h (4 Bft) 92,86 %
10.05.2016 05:15 11,3 C 84 % 1011,3 hPa 0,0 l/m 20,2 km/h (4 Bft) O-NO 71 0 min 0,000 mm 0,0 UV-I 0 W/m 8,7 C 4,9 C 25,7 km/h (4 Bft) 100,00 %
10.05.2016 05:16 11,3 C 84 % 1011,3 hPa 0,0 l/m 14,4 km/h (3 Bft) O-NO 73 0 min 0,000 mm 0,0 UV-I 0 W/m 8,7 C 7,0 C 20,9 km/h (4 Bft) 94,12 %
10.05.2016 05:17 11,3 C 84 % 1011,3 hPa 0,0 l/m 19,3 km/h (3 Bft) O-NO 67 0 min 0,000 mm 0,0 UV-I 0 W/m 8,7 C 5,2 C 27,4 km/h (4 Bft) 97,62 %
10.05.2016 05:18 11,2 C 84 % 1011,3 hPa 0,0 l/m 18,4 km/h (3 Bft) O-NO 57 0 min 0,000 mm 0,0 UV-I 0 W/m 8,6 C 5,4 C 29,0 km/h (5 Bft) 100,00 %
10.05.2016 05:19 11,2 C 84 % 1011,3 hPa 0,0 l/m 17,7 km/h (3 Bft) O-NO 77 0 min 0,000 mm 0,0 UV-I 0 W/m 8,6 C 5,6 C 25,7 km/h (4 Bft) 100,00 %
10.05.2016 05:20 11,2 C 84 % 1011,3 hPa 0,0 l/m 16,5 km/h (3 Bft) O-NO 69 0 min 0,000 mm 0,0 UV-I 0 W/m 8,6 C 6,0 C 25,7 km/h (4 Bft) 96,88 %
10.05.2016 05:21 11,2 C 84 % 1011,3 hPa 0,0 l/m 20,9 km/h (4 Bft) O-NO 65 0 min 0,000 mm 0,0 UV-I 0 W/m 8,6 C 4,6 C 27,4 km/h (4 Bft) 100,00 %
10.05.2016 05:22 11,2 C 84 % 1011,3 hPa 0,0 l/m 18,8 km/h (3 Bft) NO 53 0 min 0,000 mm 0,0 UV-I 2 W/m 8,6 C 5,2 C 29,0 km/h (5 Bft) 100,00 %
10.05.2016 05:23 11,2 C 84 % 1011,3 hPa 0,0 l/m 18,6 km/h (3 Bft) NO 34 0 min 0,000 mm 0,0 UV-I 5 W/m 8,6 C 5,3 C 25,7 km/h (4 Bft) 100,00 %
10.05.2016 05:24 11,2 C 84 % 1011,3 hPa 0,0 l/m 19,6 km/h (3 Bft) O-NO 73 0 min 0,000 mm 0,0 UV-I 5 W/m 8,6 C 5,0 C 30,6 km/h (5 Bft) 95,65 %
10.05.2016 05:25 11,1 C 85 % 1011,3 hPa 0,0 l/m 21,6 km/h (4 Bft) NO 46 0 min 0,000 mm 0,0 UV-I 5 W/m 8,7 C 4,2 C 29,0 km/h (5 Bft) 100,00 %
10.05.2016 05:26 11,1 C 85 % 1011,3 hPa 0,0 l/m 19,8 km/h (3 Bft) O-NO 58 0 min 0,000 mm 0,0 UV-I 5 W/m 8,7 C 4,8 C 27,4 km/h (4 Bft) 95,65 %
10.05.2016 05:27 11,1 C 85 % 1011,3 hPa 0,0 l/m 19,4 km/h (3 Bft) O 79 0 min 0,000 mm 0,0 UV-I 5 W/m 8,7 C 4,9 C 24,1 km/h (4 Bft) 100,00 %
10.05.2016 05:28 11,1 C 85 % 1011,3 hPa 0,0 l/m 18,3 km/h (3 Bft) O-NO 67 0 min 0,000 mm 0,0 UV-I 5 W/m 8,7 C 5,3 C 25,7 km/h (4 Bft) 100,00 %
10.05.2016 05:29 11,1 C 85 % 1011,2 hPa 0,0 l/m 20,6 km/h (4 Bft) NO 38 0 min 0,000 mm 0,0 UV-I 5 W/m 8,7 C 4,5 C 27,4 km/h (4 Bft) 100,00 %
10.05.2016 05:30 11,1 C 85 % 1011,2 hPa 0,0 l/m 18,1 km/h (3 Bft) O-NO 64 0 min 0,000 mm 0,0 UV-I 6 W/m 8,7 C 5,3 C 22,5 km/h (4 Bft) 100,00 %
10.05.2016 05:31 11,1 C 85 % 1011,2 hPa 0,0 l/m 21,8 km/h (4 Bft) O-NO 69 0 min 0,000 mm 0,0 UV-I 7 W/m 8,7 C 4,2 C 29,0 km/h (5 Bft) 100,00 %
10.05.2016 05:32 11,1 C 85 % 1011,2 hPa 0,0 l/m 22,5 km/h (4 Bft) NO 34 0 min 0,000 mm 0,0 UV-I 7 W/m 8,7 C 4,0 C 29,0 km/h (5 Bft) 100,00 %
10.05.2016 05:33 11,1 C 85 % 1011,2 hPa 0,0 l/m 20,9 km/h (4 Bft) O-NO 66 0 min 0,000 mm 0,0 UV-I 7 W/m 8,7 C 4,4 C 27,4 km/h (4 Bft) 94,12 %
10.05.2016 05:34 11,1 C 85 % 1011,1 hPa 0,0 l/m 19,8 km/h (3 Bft) NO 55 0 min 0,000 mm 0,0 UV-I 7 W/m 8,7 C 4,8 C 27,4 km/h (4 Bft) 100,00 %
10.05.2016 05:35 11,1 C 85 % 1011,1 hPa 0,0 l/m 19,2 km/h (3 Bft) O-NO 59 0 min 0,000 mm 0,0 UV-I 8 W/m 8,7 C 5,0 C 25,7 km/h (4 Bft) 100,00 %
10.05.2016 05:36 11,1 C 85 % 1011,2 hPa 0,0 l/m 19,2 km/h (3 Bft) N-NO 32 0 min 0,000 mm 0,0 UV-I 9 W/m 8,7 C 5,0 C 25,7 km/h (4 Bft) 96,67 %
10.05.2016 05:37 11,1 C 85 % 1011,1 hPa 0,0 l/m 18,2 km/h (3 Bft) O-NO 60 0 min 0,000 mm 0,0 UV-I 9 W/m 8,7 C 5,3 C 25,7 km/h (4 Bft) 100,00 %
10.05.2016 05:38 11,1 C 85 % 1011,1 hPa 0,0 l/m 17,8 km/h (3 Bft) O-SO 103 0 min 0,000 mm 0,0 UV-I 11 W/m 8,7 C 5,4 C 22,5 km/h (4 Bft) 95,83 %
10.05.2016 05:39 11,0 C 85 % 1011,1 hPa 0,0 l/m 13,6 km/h (3 Bft) O-NO 78 0 min 0,000 mm 0,0 UV-I 11 W/m 8,6 C 6,9 C 24,1 km/h (4 Bft) 100,00 %
10.05.2016 05:40 11,0 C 85 % 1011,2 hPa 0,0 l/m 17,1 km/h (3 Bft) O-NO 63 0 min 0,000 mm 0,0 UV-I 11 W/m 8,6 C 5,5 C 25,7 km/h (4 Bft) 100,00 %
10.05.2016 05:41 11,0 C 85 % 1011,2 hPa 0,0 l/m 19,1 km/h (3 Bft) O-NO 63 0 min 0,000 mm 0,0 UV-I 12 W/m 8,6 C 4,9 C 22,5 km/h (4 Bft) 100,00 %
10.05.2016 05:42 11,0 C 85 % 1011,2 hPa 0,0 l/m 20,9 km/h (4 Bft) O 80 0 min 0,000 mm 0,0 UV-I 12 W/m 8,6 C 4,3 C 29,0 km/h (5 Bft) 100,00 %
10.05.2016 05:43 11,0 C 85 % 1011,1 hPa 0,0 l/m 19,1 km/h (3 Bft) O 82 1 min 0,000 mm 0,0 UV-I 13 W/m 8,6 C 4,9 C 24,1 km/h (4 Bft) 100,00 %
10.05.2016 05:44 11,0 C 85 % 1011,1 hPa 0,0 l/m 22,7 km/h (4 Bft) O-NO 78 1 min 0,000 mm 0,0 UV-I 14 W/m 8,6 C 3,8 C 29,0 km/h (5 Bft) 100,00 %
10.05.2016 05:45 11,0 C 85 % 1011,2 hPa 0,0 l/m 16,0 km/h (3 Bft) N-NO 30 1 min 0,000 mm 0,0 UV-I 14 W/m 8,6 C 6,0 C 25,7 km/h (4 Bft) 100,00 %
10.05.2016 05:46 11,0 C 85 % 1011,2 hPa 0,0 l/m 22,1 km/h (4 Bft) O 84 1 min 0,000 mm 0,0 UV-I 16 W/m 8,6 C 4,0 C 25,7 km/h (4 Bft) 100,00 %
10.05.2016 05:47 10,9 C 85 % 1011,2 hPa 0,0 l/m 20,7 km/h (4 Bft) O-NO 74 1 min 0,000 mm 0,0 UV-I 16 W/m 8,5 C 4,2 C 27,4 km/h (4 Bft) 100,00 %
10.05.2016 05:48 10,9 C 85 % 1011,2 hPa 0,0 l/m 22,0 km/h (4 Bft) O-NO 58 1 min 0,000 mm 0,0 UV-I 17 W/m 8,5 C 3,9 C 27,4 km/h (4 Bft) 100,00 %
10.05.2016 05:49 10,9 C 85 % 1011,2 hPa 0,0 l/m 21,5 km/h (4 Bft) O-NO 76 1 min 0,000 mm 0,0 UV-I 18 W/m 8,5 C 4,0 C 27,4 km/h (4 Bft) 100,00 %
10.05.2016 05:50 11,0 C 85 % 1011,2 hPa 0,0 l/m 20,3 km/h (4 Bft) O-NO 63 0 min 0,000 mm 0,0 UV-I 19 W/m 8,6 C 4,5 C 32,2 km/h (5 Bft) 100,00 %
10.05.2016 05:51 11,0 C 85 % 1011,2 hPa 0,0 l/m 24,9 km/h (4 Bft) NO 53 0 min 0,000 mm 0,0 UV-I 19 W/m 8,6 C 3,2 C 29,0 km/h (5 Bft) 100,00 %
10.05.2016 05:52 11,0 C 85 % 1011,2 hPa 0,0 l/m 20,9 km/h (4 Bft) NO 50 0 min 0,000 mm 0,0 UV-I 20 W/m 8,6 C 4,3 C 29,0 km/h (5 Bft) 100,00 %
10.05.2016 05:53 11,0 C 85 % 1011,2 hPa 0,0 l/m 21,6 km/h (4 Bft) O-NO 57 0 min 0,000 mm 0,0 UV-I 21 W/m 8,6 C 4,1 C 27,4 km/h (4 Bft) 100,00 %
10.05.2016 05:54 11,0 C 85 % 1011,2 hPa 0,0 l/m 22,9 km/h (4 Bft) NO 52 0 min 0,000 mm 0,0 UV-I 21 W/m 8,6 C 3,7 C 29,0 km/h (5 Bft) 100,00 %
10.05.2016 05:55 11,0 C 85 % 1011,1 hPa 0,0 l/m 24,1 km/h (4 Bft) O-NO 57 0 min 0,000 mm 0,0 UV-I 21 W/m 8,6 C 3,4 C 37,0 km/h (5 Bft) 95,83 %
10.05.2016 05:56 11,0 C 85 % 1011,2 hPa 0,0 l/m 27,2 km/h (4 Bft) O-NO 68 0 min 0,000 mm 0,0 UV-I 23 W/m 8,6 C 2,7 C 35,4 km/h (5 Bft) 100,00 %
10.05.2016 05:57 11,0 C 85 % 1011,2 hPa 0,0 l/m 24,5 km/h (4 Bft) NO 51 0 min 0,000 mm 0,0 UV-I 23 W/m 8,6 C 3,3 C 30,6 km/h (5 Bft) 100,00 %
10.05.2016 05:58 11,0 C 85 % 1011,2 hPa 0,0 l/m 24,5 km/h (4 Bft) O-NO 59 0 min 0,000 mm 0,0 UV-I 24 W/m 8,6 C 3,3 C 29,0 km/h (5 Bft) 100,00 %
10.05.2016 05:59 11,1 C 85 % 1011,2 hPa 0,0 l/m 22,9 km/h (4 Bft) O-NO 76 0 min 0,000 mm 0,0 UV-I 25 W/m 8,7 C 3,9 C 33,8 km/h (5 Bft) 100,00 %
10.05.2016 06:00 11,1 C 85 % 1011,2 hPa 0,0 l/m 24,1 km/h (4 Bft) O-NO 63 0 min 0,051 mm 0,0 UV-I 25 W/m 8,7 C 3,6 C 33,8 km/h (5 Bft) 100,00 %
10.05.2016 06:01 11,1 C 85 % 1011,2 hPa 0,0 l/m 25,2 km/h (4 Bft) O 89 0 min 0,000 mm 0,0 UV-I 25 W/m 8,7 C 3,3 C 32,2 km/h (5 Bft) 100,00 %
10.05.2016 06:02 11,1 C 85 % 1011,2 hPa 0,0 l/m 23,1 km/h (4 Bft) NO 47 0 min 0,000 mm 0,0 UV-I 26 W/m 8,7 C 3,8 C 29,0 km/h (5 Bft) 100,00 %
10.05.2016 06:03 11,1 C 85 % 1011,2 hPa 0,0 l/m 19,0 km/h (3 Bft) O-NO 78 0 min 0,000 mm 0,0 UV-I 26 W/m 8,7 C 5,0 C 30,6 km/h (5 Bft) 100,00 %
10.05.2016 06:04 11,1 C 85 % 1011,3 hPa 0,0 l/m 20,6 km/h (4 Bft) O-NO 74 0 min 0,000 mm 0,0 UV-I 26 W/m 8,7 C 4,5 C 24,1 km/h (4 Bft) 100,00 %
10.05.2016 06:05 11,1 C 85 % 1011,2 hPa 0,0 l/m 23,6 km/h (4 Bft) NO 42 0 min 0,000 mm 0,0 UV-I 26 W/m 8,7 C 3,7 C 35,4 km/h (5 Bft) 100,00 %
10.05.2016 06:06 11,1 C 85 % 1011,3 hPa 0,0 l/m 23,1 km/h (4 Bft) O-NO 58 0 min 0,000 mm 0,0 UV-I 27 W/m 8,7 C 3,8 C 33,8 km/h (5 Bft) 100,00 %
10.05.2016 06:07 11,1 C 85 % 1011,3 hPa 0,0 l/m 25,9 km/h (4 Bft) O-NO 70 0 min 0,000 mm 0,0 UV-I 28 W/m 8,7 C 3,1 C 30,6 km/h (5 Bft) 100,00 %
10.05.2016 06:08 11,1 C 85 % 1011,2 hPa 0,0 l/m 24,1 km/h (4 Bft) O-NO 76 0 min 0,000 mm 0,0 UV-I 28 W/m 8,7 C 3,6 C 32,2 km/h (5 Bft) 100,00 %
10.05.2016 06:09 11,0 C 85 % 1011,2 hPa 0,0 l/m 17,1 km/h (3 Bft) O-NO 76 0 min 0,000 mm 0,0 UV-I 29 W/m 8,6 C 5,5 C 20,9 km/h (4 Bft) 95,65 %
10.05.2016 06:10 11,1 C 85 % 1011,2 hPa 0,0 l/m 20,4 km/h (4 Bft) O 80 0 min 0,000 mm 0,0 UV-I 30 W/m 8,7 C 4,6 C 25,7 km/h (4 Bft) 100,00 %
10.05.2016 06:11 11,0 C 85 % 1011,2 hPa 0,0 l/m 23,3 km/h (4 Bft) O-NO 71 0 min 0,000 mm 0,0 UV-I 30 W/m 8,6 C 3,6 C 35,4 km/h (5 Bft) 100,00 %
10.05.2016 06:12 11,0 C 85 % 1011,2 hPa 0,0 l/m 19,4 km/h (3 Bft) O 89 0 min 0,000 mm 0,0 UV-I 30 W/m 8,6 C 4,8 C 29,0 km/h (5 Bft) 100,00 %
10.05.2016 06:13 11,0 C 85 % 1011,2 hPa 0,0 l/m 23,6 km/h (4 Bft) O-NO 63 0 min 0,000 mm 0,0 UV-I 32 W/m 8,6 C 3,5 C 33,8 km/h (5 Bft) 100,00 %
10.05.2016 06:14 11,1 C 85 % 1011,2 hPa 0,0 l/m 20,4 km/h (4 Bft) O 80 0 min 0,000 mm 0,0 UV-I 32 W/m 8,7 C 4,6 C 27,4 km/h (4 Bft) 100,00 %
10.05.2016 06:15 11,0 C 85 % 1011,3 hPa 0,0 l/m 18,1 km/h (3 Bft) NO 52 0 min 0,000 mm 0,0 UV-I 32 W/m 8,6 C 5,2 C 25,7 km/h (4 Bft) 96,55 %
10.05.2016 06:16 11,1 C 85 % 1011,3 hPa 0,0 l/m 20,8 km/h (4 Bft) O 82 0 min 0,000 mm 0,0 UV-I 32 W/m 8,7 C 4,5 C 24,1 km/h (4 Bft) 100,00 %
10.05.2016 06:17 11,1 C 85 % 1011,3 hPa 0,0 l/m 22,1 km/h (4 Bft) O-NO 65 0 min 0,000 mm 0,0 UV-I 33 W/m 8,7 C 4,1 C 32,2 km/h (5 Bft) 100,00 %
10.05.2016 06:18 11,1 C 85 % 1011,3 hPa 0,0 l/m 22,1 km/h (4 Bft) O-NO 63 0 min 0,000 mm 0,0 UV-I 33 W/m 8,7 C 4,1 C 29,0 km/h (5 Bft) 100,00 %
10.05.2016 06:19 11,1 C 85 % 1011,3 hPa 0,0 l/m 21,1 km/h (4 Bft) O 81 0 min 0,000 mm 0,0 UV-I 35 W/m 8,7 C 4,4 C 30,6 km/h (5 Bft) 100,00 %
10.05.2016 06:20 11,1 C 85 % 1011,3 hPa 0,0 l/m 21,6 km/h (4 Bft) O 84 0 min 0,000 mm 0,0 UV-I 35 W/m 8,7 C 4,2 C 32,2 km/h (5 Bft) 95,83 %
10.05.2016 06:21 11,1 C 85 % 1011,3 hPa 0,0 l/m 21,7 km/h (4 Bft) O-NO 64 0 min 0,000 mm 0,0 UV-I 35 W/m 8,7 C 4,2 C 30,6 km/h (5 Bft) 100,00 %
10.05.2016 06:22 11,1 C 85 % 1011,3 hPa 0,0 l/m 24,9 km/h (4 Bft) O-NO 75 0 min 0,000 mm 0,0 UV-I 36 W/m 8,7 C 3,3 C 33,8 km/h (5 Bft) 100,00 %
10.05.2016 06:23 11,1 C 85 % 1011,3 hPa 0,0 l/m 23,2 km/h (4 Bft) O-NO 73 0 min 0,000 mm 0,0 UV-I 37 W/m 8,7 C 3,8 C 29,0 km/h (5 Bft) 90,91 %
10.05.2016 06:24 11,1 C 85 % 1011,3 hPa 0,0 l/m 17,6 km/h (3 Bft) O-NO 77 0 min 0,000 mm 0,0 UV-I 37 W/m 8,7 C 5,5 C 25,7 km/h (4 Bft) 100,00 %
10.05.2016 06:25 11,1 C 85 % 1011,3 hPa 0,0 l/m 18,3 km/h (3 Bft) O 80 0 min 0,000 mm 0,0 UV-I 37 W/m 8,7 C 5,3 C 24,1 km/h (4 Bft) 100,00 %
10.05.2016 06:26 11,1 C 85 % 1011,3 hPa 0,0 l/m 16,6 km/h (3 Bft) O-NO 67 0 min 0,000 mm 0,0 UV-I 39 W/m 8,7 C 5,9 C 22,5 km/h (4 Bft) 100,00 %
10.05.2016 06:27 11,1 C 85 % 1011,3 hPa 0,0 l/m 18,8 km/h (3 Bft) NO 47 0 min 0,000 mm 0,0 UV-I 39 W/m 8,7 C 5,1 C 24,1 km/h (4 Bft) 96,15 %
10.05.2016 06:28 11,1 C 85 % 1011,3 hPa 0,0 l/m 18,2 km/h (3 Bft) O 95 0 min 0,000 mm 0,0 UV-I 39 W/m 8,7 C 5,3 C 25,7 km/h (4 Bft) 98,92 %
10.05.2016 06:29 11,1 C 85 % 1011,3 hPa 0,0 l/m 21,3 km/h (4 Bft) O-NO 64 0 min 0,000 mm 0,0 UV-I 40 W/m 8,7 C 4,3 C 32,2 km/h (5 Bft) 100,00 %
10.05.2016 06:30 11,1 C 85 % 1011,3 hPa 0,0 l/m 25,5 km/h (4 Bft) O-NO 76 0 min 0,000 mm 0,0 UV-I 40 W/m 8,7 C 3,2 C 33,8 km/h (5 Bft) 100,00 %
10.05.2016 06:31 11,2 C 85 % 1011,3 hPa 0,0 l/m 25,6 km/h (4 Bft) NO 50 0 min 0,000 mm 0,0 UV-I 40 W/m 8,8 C 3,3 C 32,2 km/h (5 Bft) 100,00 %
10.05.2016 06:32 11,2 C 85 % 1011,3 hPa 0,0 l/m 20,8 km/h (4 Bft) O-NO 63 0 min 0,000 mm 0,0 UV-I 40 W/m 8,8 C 4,6 C 29,0 km/h (5 Bft) 100,00 %
10.05.2016 06:33 11,2 C 85 % 1011,4 hPa 0,0 l/m 19,0 km/h (3 Bft) O-NO 74 0 min 0,000 mm 0,0 UV-I 42 W/m 8,8 C 5,2 C 27,4 km/h (4 Bft) 96,30 %
10.05.2016 06:34 11,2 C 85 % 1011,4 hPa 0,0 l/m 24,8 km/h (4 Bft) O-NO 72 0 min 0,000 mm 0,0 UV-I 42 W/m 8,8 C 3,5 C 32,2 km/h (5 Bft) 96,15 %
10.05.2016 06:35 11,2 C 85 % 1011,4 hPa 0,0 l/m 20,1 km/h (4 Bft) O 83 0 min 0,000 mm 0,0 UV-I 42 W/m 8,8 C 4,8 C 32,2 km/h (5 Bft) 96,30 %
10.05.2016 06:36 11,2 C 85 % 1011,4 hPa 0,0 l/m 18,8 km/h (3 Bft) O-NO 71 0 min 0,000 mm 0,0 UV-I 42 W/m 8,8 C 5,2 C 24,1 km/h (4 Bft) 100,00 %
10.05.2016 06:37 11,2 C 85 % 1011,4 hPa 0,0 l/m 20,0 km/h (4 Bft) O-NO 67 0 min 0,000 mm 0,0 UV-I 42 W/m 8,8 C 4,8 C 29,0 km/h (5 Bft) 95,83 %
10.05.2016 06:38 11,2 C 85 % 1011,3 hPa 0,0 l/m 17,4 km/h (3 Bft) O-NO 71 0 min 0,000 mm 0,0 UV-I 42 W/m 8,8 C 5,7 C 22,5 km/h (4 Bft) 100,00 %
10.05.2016 06:39 11,2 C 85 % 1011,4 hPa 0,0 l/m 19,4 km/h (3 Bft) O 92 0 min 0,000 mm 0,0 UV-I 42 W/m 8,8 C 5,0 C 32,2 km/h (5 Bft) 100,00 %
10.05.2016 06:40 11,2 C 85 % 1011,4 hPa 0,0 l/m 20,2 km/h (4 Bft) O-NO 70 0 min 0,000 mm 0,0 UV-I 42 W/m 8,8 C 4,8 C 24,1 km/h (4 Bft) 96,15 %
10.05.2016 06:41 11,2 C 85 % 1011,5 hPa 0,0 l/m 22,8 km/h (4 Bft) O 101 0 min 0,000 mm 0,0 UV-I 42 W/m 8,8 C 4,0 C 30,6 km/h (5 Bft) 100,00 %
10.05.2016 06:42 11,2 C 85 % 1011,5 hPa 0,0 l/m 14,8 km/h (3 Bft) O 89 0 min 0,000 mm 0,0 UV-I 44 W/m 8,8 C 6,7 C 19,3 km/h (3 Bft) 100,00 %
10.05.2016 06:43 11,2 C 85 % 1011,5 hPa 0,0 l/m 12,5 km/h (3 Bft) O 90 0 min 0,000 mm 0,0 UV-I 44 W/m 8,8 C 7,7 C 19,3 km/h (3 Bft) 100,00 %
10.05.2016 06:44 11,2 C 85 % 1011,6 hPa 0,0 l/m 8,1 km/h (2 Bft) SO 144 0 min 0,000 mm 0,0 UV-I 50 W/m 8,8 C 10,0 C 17,7 km/h (3 Bft) 100,00 %
10.05.2016 06:45 11,3 C 85 % 1011,6 hPa 0,0 l/m 16,7 km/h (3 Bft) O-NO 76 0 min 0,000 mm 0,0 UV-I 61 W/m 8,9 C 6,1 C 20,9 km/h (4 Bft) 100,00 %
10.05.2016 06:46 11,3 C 85 % 1011,6 hPa 0,0 l/m 19,5 km/h (3 Bft) O-NO 66 0 min 0,000 mm 0,0 UV-I 73 W/m 8,9 C 5,1 C 27,4 km/h (4 Bft) 93,33 %
10.05.2016 06:47 11,3 C 85 % 1011,6 hPa 0,0 l/m 23,6 km/h (4 Bft) O-NO 75 0 min 0,000 mm 0,0 UV-I 78 W/m 8,9 C 3,9 C 29,0 km/h (5 Bft) 96,15 %
10.05.2016 06:48 11,3 C 85 % 1011,5 hPa 0,0 l/m 18,8 km/h (3 Bft) NO 54 0 min 0,000 mm 0,0 UV-I 81 W/m 8,9 C 5,3 C 25,7 km/h (4 Bft) 100,00 %
10.05.2016 06:49 11,3 C 85 % 1011,5 hPa 0,0 l/m 18,1 km/h (3 Bft) O 101 0 min 0,000 mm 0,0 UV-I 83 W/m 8,9 C 5,6 C 24,1 km/h (4 Bft) 96,55 %
10.05.2016 06:50 11,3 C 85 % 1011,6 hPa 0,0 l/m 13,6 km/h (3 Bft) O-SO 103 0 min 0,000 mm 0,0 UV-I 84 W/m 8,9 C 7,3 C 20,9 km/h (4 Bft) 95,65 %
10.05.2016 06:51 11,3 C 85 % 1011,5 hPa 0,0 l/m 19,4 km/h (3 Bft) O-NO 77 0 min 0,000 mm 0,0 UV-I 85 W/m 8,9 C 5,2 C 30,6 km/h (5 Bft) 100,00 %
10.05.2016 06:52 11,3 C 85 % 1011,5 hPa 0,0 l/m 23,6 km/h (4 Bft) O-NO 78 0 min 0,000 mm 0,0 UV-I 82 W/m 8,9 C 3,9 C 29,0 km/h (5 Bft) 95,83 %
10.05.2016 06:53 11,3 C 84 % 1011,5 hPa 0,0 l/m 17,2 km/h (3 Bft) O-NO 75 0 min 0,000 mm 0,0 UV-I 79 W/m 8,7 C 5,9 C 24,1 km/h (4 Bft) 95,65 %
10.05.2016 06:54 11,3 C 84 % 1011,5 hPa 0,0 l/m 19,1 km/h (3 Bft) O-NO 73 0 min 0,000 mm 0,0 UV-I 77 W/m 8,7 C 5,2 C 29,0 km/h (5 Bft) 96,67 %
10.05.2016 06:55 11,3 C 84 % 1011,5 hPa 0,0 l/m 22,1 km/h (4 Bft) O 82 0 min 0,000 mm 0,0 UV-I 77 W/m 8,7 C 4,4 C 25,7 km/h (4 Bft) 100,00 %
10.05.2016 06:56 11,3 C 84 % 1011,4 hPa 0,0 l/m 20,8 km/h (4 Bft) O-NO 67 0 min 0,000 mm 0,0 UV-I 75 W/m 8,7 C 4,7 C 27,4 km/h (4 Bft) 96,67 %
10.05.2016 06:57 11,3 C 84 % 1011,5 hPa 0,0 l/m 24,1 km/h (4 Bft) O-NO 67 0 min 0,000 mm 0,0 UV-I 74 W/m 8,7 C 3,8 C 38,6 km/h (5 Bft) 92,31 %
10.05.2016 06:58 11,4 C 84 % 1011,5 hPa 0,0 l/m 25,3 km/h (4 Bft) NO 43 0 min 0,000 mm 0,0 UV-I 76 W/m 8,8 C 3,7 C 32,2 km/h (5 Bft) 100,00 %
10.05.2016 06:59 11,4 C 84 % 1011,4 hPa 0,0 l/m 19,8 km/h (3 Bft) O-NO 57 0 min 0,000 mm 0,0 UV-I 80 W/m 8,8 C 5,2 C 25,7 km/h (4 Bft) 94,12 %
10.05.2016 07:00 11,4 C 84 % 1011,4 hPa 0,0 l/m 18,9 km/h (3 Bft) O-NO 70 0 min 0,000 mm 0,0 UV-I 85 W/m 8,8 C 5,4 C 25,7 km/h (4 Bft) 100,00 %
10.05.2016 07:01 11,4 C 84 % 1011,5 hPa 0,0 l/m 21,3 km/h (4 Bft) NO 49 0 min 0,050 mm 0,0 UV-I 90 W/m 8,8 C 4,7 C 29,0 km/h (5 Bft) 96,15 %
10.05.2016 07:02 11,4 C 84 % 1011,4 hPa 0,0 l/m 21,6 km/h (4 Bft) O-NO 69 0 min 0,000 mm 0,0 UV-I 90 W/m 8,8 C 4,6 C 32,2 km/h (5 Bft) 100,00 %
10.05.2016 07:03 11,4 C 84 % 1011,5 hPa 0,0 l/m 18,4 km/h (3 Bft) O-NO 74 0 min 0,000 mm 0,0 UV-I 88 W/m 8,8 C 5,6 C 22,5 km/h (4 Bft) 92,31 %
10.05.2016 07:04 11,4 C 85 % 1011,4 hPa 0,0 l/m 17,3 km/h (3 Bft) NO 54 0 min 0,000 mm 0,0 UV-I 89 W/m 9,0 C 6,0 C 20,9 km/h (4 Bft) 100,00 %
10.05.2016 07:05 11,4 C 85 % 1011,4 hPa 0,0 l/m 12,3 km/h (3 Bft) O-NO 76 0 min 0,000 mm 0,0 UV-I 87 W/m 9,0 C 8,0 C 19,3 km/h (3 Bft) 95,65 %
10.05.2016 07:06 11,4 C 85 % 1011,4 hPa 0,0 l/m 12,6 km/h (3 Bft) O 88 0 min 0,000 mm 0,0 UV-I 90 W/m 9,0 C 7,8 C 17,7 km/h (3 Bft) 96,30 %
10.05.2016 07:07 11,4 C 85 % 1011,4 hPa 0,0 l/m 19,7 km/h (3 Bft) O-NO 65 0 min 0,000 mm 0,0 UV-I 94 W/m 9,0 C 5,2 C 30,6 km/h (5 Bft) 100,00 %
10.05.2016 07:08 11,4 C 85 % 1011,3 hPa 0,0 l/m 18,1 km/h (3 Bft) NO 55 0 min 0,000 mm 0,0 UV-I 99 W/m 9,0 C 5,7 C 29,0 km/h (5 Bft) 96,55 %
10.05.2016 07:09 11,4 C 85 % 1011,4 hPa 0,0 l/m 19,2 km/h (3 Bft) O 80 0 min 0,000 mm 0,0 UV-I 105 W/m 9,0 C 5,3 C 27,4 km/h (4 Bft) 96,15 %
10.05.2016 07:10 11,4 C 85 % 1011,4 hPa 0,0 l/m 17,3 km/h (3 Bft) NO 42 0 min 0,000 mm 0,0 UV-I 112 W/m 9,0 C 6,0 C 22,5 km/h (4 Bft) 93,33 %
10.05.2016 07:11 11,4 C 85 % 1011,4 hPa 0,0 l/m 19,1 km/h (3 Bft) NO 50 0 min 0,000 mm 0,0 UV-I 117 W/m 9,0 C 5,4 C 25,7 km/h (4 Bft) 100,00 %
10.05.2016 07:12 11,4 C 85 % 1011,4 hPa 0,0 l/m 20,2 km/h (4 Bft) O-NO 70 0 min 0,000 mm 0,0 UV-I 127 W/m 9,0 C 5,0 C 25,7 km/h (4 Bft) 81,82 %
10.05.2016 07:13 11,4 C 85 % 1011,4 hPa 0,0 l/m 15,3 km/h (3 Bft) O-NO 65 0 min 0,000 mm 0,0 UV-I 129 W/m 9,0 C 6,7 C 19,3 km/h (3 Bft) 100,00 %
10.05.2016 07:14 11,4 C 85 % 1011,4 hPa 0,0 l/m 11,0 km/h (2 Bft) NO 48 0 min 0,000 mm 0,0 UV-I 135 W/m 9,0 C 8,6 C 19,3 km/h (3 Bft) 95,65 %
10.05.2016 07:15 11,4 C 85 % 1011,4 hPa 0,0 l/m 13,1 km/h (3 Bft) O 91 0 min 0,000 mm 0,0 UV-I 139 W/m 9,0 C 7,6 C 19,3 km/h (3 Bft) 96,30 %
10.05.2016 07:16 11,4 C 85 % 1011,4 hPa 0,0 l/m 19,1 km/h (3 Bft) O-NO 66 1 min 0,000 mm 0,0 UV-I 148 W/m 9,0 C 5,4 C 27,4 km/h (4 Bft) 92,86 %
10.05.2016 07:17 11,5 C 85 % 1011,4 hPa 0,0 l/m 19,9 km/h (4 Bft) O-NO 68 1 min 0,000 mm 0,0 UV-I 154 W/m 9,1 C 5,3 C 27,4 km/h (4 Bft) 96,30 %
10.05.2016 07:18 11,5 C 85 % 1011,3 hPa 0,0 l/m 24,3 km/h (4 Bft) O-NO 63 1 min 0,000 mm 0,0 UV-I 156 W/m 9,1 C 4,0 C 32,2 km/h (5 Bft) 100,00 %
10.05.2016 07:19 11,6 C 85 % 1011,4 hPa 0,0 l/m 18,4 km/h (3 Bft) O-NO 70 1 min 0,000 mm 0,0 UV-I 158 W/m 9,2 C 5,9 C 27,4 km/h (4 Bft) 96,30 %
10.05.2016 07:20 11,6 C 85 % 1011,4 hPa 0,0 l/m 21,6 km/h (4 Bft) NO 52 1 min 0,000 mm 0,0 UV-I 162 W/m 9,2 C 4,9 C 30,6 km/h (5 Bft) 95,65 %
10.05.2016 07:21 11,6 C 85 % 1011,4 hPa 0,0 l/m 23,9 km/h (4 Bft) NO 50 1 min 0,000 mm 0,0 UV-I 172 W/m 9,2 C 4,3 C 33,8 km/h (5 Bft) 100,00 %
10.05.2016 07:22 11,6 C 84 % 1011,4 hPa 0,0 l/m 24,7 km/h (4 Bft) O-NO 59 1 min 0,000 mm 0,0 UV-I 183 W/m 9,0 C 4,1 C 33,8 km/h (5 Bft) 95,65 %
10.05.2016 07:23 11,7 C 84 % 1011,3 hPa 0,0 l/m 17,6 km/h (3 Bft) NO 55 1 min 0,000 mm 0,0 UV-I 185 W/m 9,1 C 6,2 C 22,5 km/h (4 Bft) 96,30 %
10.05.2016 07:24 11,7 C 84 % 1011,4 hPa 0,0 l/m 17,0 km/h (3 Bft) NO 55 1 min 0,000 mm 0,0 UV-I 183 W/m 9,1 C 6,5 C 27,4 km/h (4 Bft) 95,65 %
10.05.2016 07:25 11,7 C 84 % 1011,3 hPa 0,0 l/m 24,7 km/h (4 Bft) NO 48 1 min 0,000 mm 0,0 UV-I 185 W/m 9,1 C 4,2 C 32,2 km/h (5 Bft) 100,00 %
10.05.2016 07:26 11,7 C 84 % 1011,3 hPa 0,0 l/m 24,8 km/h (4 Bft) NO 49 1 min 0,000 mm 0,0 UV-I 188 W/m 9,1 C 4,2 C 30,6 km/h (5 Bft) 100,00 %
10.05.2016 07:27 11,7 C 84 % 1011,2 hPa 0,0 l/m 27,7 km/h (4 Bft) O-NO 70 1 min 0,000 mm 0,0 UV-I 196 W/m 9,1 C 3,5 C 37,0 km/h (5 Bft) 100,00 %
10.05.2016 07:28 11,8 C 84 % 1011,3 hPa 0,0 l/m 23,8 km/h (4 Bft) O 87 1 min 0,000 mm 0,0 UV-I 206 W/m 9,2 C 4,6 C 32,2 km/h (5 Bft) 92,31 %
10.05.2016 07:29 11,8 C 84 % 1011,3 hPa 0,0 l/m 23,0 km/h (4 Bft) O 85 1 min 0,000 mm 0,0 UV-I 211 W/m 9,2 C 4,8 C 29,0 km/h (5 Bft) 100,00 %
10.05.2016 07:30 11,8 C 84 % 1011,3 hPa 0,0 l/m 20,4 km/h (4 Bft) NO 53 1 min 0,000 mm 0,0 UV-I 204 W/m 9,2 C 5,5 C 29,0 km/h (5 Bft) 100,00 %
10.05.2016 07:31 11,8 C 84 % 1011,3 hPa 0,0 l/m 20,0 km/h (4 Bft) NO 44 1 min 0,000 mm 0,0 UV-I 216 W/m 9,2 C 5,6 C 24,1 km/h (4 Bft) 96,88 %
10.05.2016 07:32 11,8 C 84 % 1011,3 hPa 0,0 l/m 22,0 km/h (4 Bft) O-NO 65 1 min 0,000 mm 0,0 UV-I 222 W/m 9,2 C 5,0 C 27,4 km/h (4 Bft) 100,00 %
10.05.2016 07:33 11,8 C 84 % 1011,3 hPa 0,0 l/m 21,7 km/h (4 Bft) O-NO 71 1 min 0,000 mm 0,0 UV-I 224 W/m 9,2 C 5,1 C 32,2 km/h (5 Bft) 100,00 %
10.05.2016 07:34 11,9 C 83 % 1011,2 hPa 0,0 l/m 23,1 km/h (4 Bft) O-NO 66 1 min 0,000 mm 0,0 UV-I 231 W/m 9,1 C 4,9 C 30,6 km/h (5 Bft) 100,00 %
10.05.2016 07:35 11,9 C 84 % 1011,2 hPa 0,0 l/m 18,7 km/h (3 Bft) O-NO 74 1 min 0,000 mm 0,4 UV-I 230 W/m 9,3 C 6,1 C 22,5 km/h (4 Bft) 100,00 %
10.05.2016 07:36 11,9 C 84 % 1011,2 hPa 0,0 l/m 16,8 km/h (3 Bft) O-NO 78 1 min 0,000 mm 0,5 UV-I 241 W/m 9,3 C 6,8 C 22,5 km/h (4 Bft) 100,00 %
10.05.2016 07:37 11,9 C 84 % 1011,1 hPa 0,0 l/m 20,7 km/h (4 Bft) O-NO 63 1 min 0,000 mm 0,5 UV-I 242 W/m 9,3 C 5,5 C 32,2 km/h (5 Bft) 100,00 %
10.05.2016 07:38 12,0 C 84 % 1011,1 hPa 0,0 l/m 22,7 km/h (4 Bft) O-NO 57 1 min 0,000 mm 0,5 UV-I 241 W/m 9,4 C 5,1 C 32,2 km/h (5 Bft) 100,00 %
10.05.2016 07:39 12,0 C 83 % 1011,2 hPa 0,0 l/m 20,3 km/h (4 Bft) O-NO 69 1 min 0,000 mm 0,5 UV-I 243 W/m 9,2 C 5,8 C 25,7 km/h (4 Bft) 100,00 %
10.05.2016 07:40 12,1 C 84 % 1011,2 hPa 0,0 l/m 18,1 km/h (3 Bft) O-NO 67 1 min 0,000 mm 0,5 UV-I 248 W/m 9,5 C 6,6 C 29,0 km/h (5 Bft) 100,00 %
10.05.2016 07:41 12,1 C 84 % 1011,2 hPa 0,0 l/m 17,4 km/h (3 Bft) O-NO 65 1 min 0,000 mm 0,5 UV-I 250 W/m 9,5 C 6,8 C 25,7 km/h (4 Bft) 100,00 %
10.05.2016 07:42 12,1 C 83 % 1011,2 hPa 0,0 l/m 18,2 km/h (3 Bft) NO 55 1 min 0,000 mm 0,5 UV-I 248 W/m 9,3 C 6,6 C 24,1 km/h (4 Bft) 100,00 %
10.05.2016 07:43 12,1 C 83 % 1011,2 hPa 0,0 l/m 17,3 km/h (3 Bft) O-NO 64 1 min 0,000 mm 0,5 UV-I 263 W/m 9,3 C 6,9 C 24,1 km/h (4 Bft) 100,00 %
10.05.2016 07:44 12,2 C 83 % 1011,1 hPa 0,0 l/m 17,8 km/h (3 Bft) NO 53 1 min 0,000 mm 0,5 UV-I 259 W/m 9,4 C 6,8 C 22,5 km/h (4 Bft) 100,00 %
10.05.2016 07:45 12,2 C 83 % 1011,1 hPa 0,0 l/m 19,1 km/h (3 Bft) O-NO 65 1 min 0,000 mm 0,5 UV-I 253 W/m 9,4 C 6,4 C 22,5 km/h (4 Bft) 100,00 %
10.05.2016 07:46 12,2 C 83 % 1011,1 hPa 0,0 l/m 17,0 km/h (3 Bft) NO 44 1 min 0,000 mm 0,5 UV-I 254 W/m 9,4 C 7,1 C 22,5 km/h (4 Bft) 100,00 %
10.05.2016 07:47 12,2 C 83 % 1011,1 hPa 0,0 l/m 24,1 km/h (4 Bft) O-NO 69 1 min 0,000 mm 0,6 UV-I 267 W/m 9,4 C 5,0 C 32,2 km/h (5 Bft) 100,00 %
10.05.2016 07:48 12,3 C 83 % 1011,1 hPa 0,0 l/m 23,5 km/h (4 Bft) O-NO 63 1 min 0,000 mm 0,6 UV-I 266 W/m 9,5 C 5,3 C 35,4 km/h (5 Bft) 100,00 %
10.05.2016 07:49 12,3 C 83 % 1011,1 hPa 0,0 l/m 20,9 km/h (4 Bft) O 90 1 min 0,000 mm 0,6 UV-I 271 W/m 9,5 C 6,0 C 30,6 km/h (5 Bft) 100,00 %
10.05.2016 07:50 12,3 C 83 % 1011,1 hPa 0,0 l/m 17,8 km/h (3 Bft) O-NO 59 1 min 0,000 mm 0,6 UV-I 275 W/m 9,5 C 6,9 C 22,5 km/h (4 Bft) 95,65 %
10.05.2016 07:51 12,3 C 83 % 1011,1 hPa 0,0 l/m 17,4 km/h (3 Bft) O-NO 61 1 min 0,000 mm 0,6 UV-I 282 W/m 9,5 C 7,1 C 29,0 km/h (5 Bft) 100,00 %
10.05.2016 07:52 12,3 C 83 % 1011,1 hPa 0,0 l/m 19,4 km/h (3 Bft) NO 47 1 min 0,000 mm 0,6 UV-I 282 W/m 9,5 C 6,4 C 25,7 km/h (4 Bft) 100,00 %
10.05.2016 07:53 12,4 C 82 % 1011,1 hPa 0,0 l/m 26,8 km/h (4 Bft) NO 49 1 min 0,000 mm 0,6 UV-I 293 W/m 9,4 C 4,7 C 38,6 km/h (5 Bft) 100,00 %
10.05.2016 07:54 12,4 C 82 % 1011,1 hPa 0,0 l/m 22,9 km/h (4 Bft) O-NO 76 1 min 0,000 mm 0,6 UV-I 293 W/m 9,4 C 5,6 C 29,0 km/h (5 Bft) 100,00 %
10.05.2016 07:55 12,4 C 83 % 1011,1 hPa 0,0 l/m 23,3 km/h (4 Bft) O-NO 62 1 min 0,000 mm 0,6 UV-I 293 W/m 9,6 C 5,5 C 32,2 km/h (5 Bft) 100,00 %
10.05.2016 07:56 12,4 C 82 % 1011,1 hPa 0,0 l/m 24,1 km/h (4 Bft) NO 43 1 min 0,000 mm 0,7 UV-I 292 W/m 9,4 C 5,3 C 32,2 km/h (5 Bft) 100,00 %
10.05.2016 07:57 12,4 C 82 % 1011,0 hPa 0,0 l/m 27,7 km/h (4 Bft) O-NO 69 1 min 0,000 mm 0,7 UV-I 289 W/m 9,4 C 4,5 C 33,8 km/h (5 Bft) 100,00 %
10.05.2016 07:58 12,5 C 82 % 1011,1 hPa 0,0 l/m 21,0 km/h (4 Bft) O-NO 72 1 min 0,000 mm 0,7 UV-I 287 W/m 9,5 C 6,2 C 25,7 km/h (4 Bft) 96,15 %
10.05.2016 07:59 12,5 C 82 % 1011,1 hPa 0,0 l/m 17,3 km/h (3 Bft) NO 55 1 min 0,000 mm 0,7 UV-I 295 W/m 9,5 C 7,4 C 24,1 km/h (4 Bft) 98,61 %
10.05.2016 08:00 12,5 C 82 % 1011,1 hPa 0,0 l/m 25,4 km/h (4 Bft) O-NO 58 1 min 0,127 mm 0,7 UV-I 291 W/m 9,5 C 5,1 C 37,0 km/h (5 Bft) 100,00 %
10.05.2016 08:01 12,6 C 82 % 1011,0 hPa 0,0 l/m 28,5 km/h (4 Bft) O-NO 65 1 min 0,000 mm 0,7 UV-I 293 W/m 9,6 C 4,6 C 35,4 km/h (5 Bft) 100,00 %
10.05.2016 08:02 12,6 C 82 % 1011,1 hPa 0,0 l/m 22,2 km/h (4 Bft) NO 40 1 min 0,000 mm 0,7 UV-I 285 W/m 9,6 C 6,0 C 29,0 km/h (5 Bft) 100,00 %
10.05.2016 08:03 12,6 C 82 % 1011,1 hPa 0,0 l/m 21,1 km/h (4 Bft) NO 48 1 min 0,000 mm 0,7 UV-I 289 W/m 9,6 C 6,3 C 30,6 km/h (5 Bft) 100,00 %
10.05.2016 08:04 12,6 C 82 % 1011,0 hPa 0,0 l/m 21,1 km/h (4 Bft) O 80 1 min 0,000 mm 0,7 UV-I 255 W/m 9,6 C 6,3 C 27,4 km/h (4 Bft) 100,00 %
10.05.2016 08:05 12,6 C 82 % 1011,0 hPa 0,0 l/m 22,0 km/h (4 Bft) NO 43 1 min 0,000 mm 0,8 UV-I 288 W/m 9,6 C 6,1 C 32,2 km/h (5 Bft) 100,00 %
10.05.2016 08:06 12,7 C 82 % 1011,0 hPa 0,0 l/m 24,1 km/h (4 Bft) O-NO 77 1 min 0,000 mm 0,8 UV-I 287 W/m 9,7 C 5,7 C 30,6 km/h (5 Bft) 100,00 %
10.05.2016 08:07 12,7 C 82 % 1011,0 hPa 0,0 l/m 23,6 km/h (4 Bft) O-NO 65 1 min 0,000 mm 0,8 UV-I 282 W/m 9,7 C 5,8 C 38,6 km/h (5 Bft) 100,00 %
10.05.2016 08:08 12,7 C 81 % 1011,0 hPa 0,0 l/m 24,6 km/h (4 Bft) O-NO 65 1 min 0,000 mm 0,8 UV-I 279 W/m 9,5 C 5,6 C 37,0 km/h (5 Bft) 100,00 %
10.05.2016 08:09 12,7 C 81 % 1010,9 hPa 0,0 l/m 26,8 km/h (4 Bft) NO 35 1 min 0,000 mm 0,8 UV-I 271 W/m 9,5 C 5,1 C 35,4 km/h (5 Bft) 100,00 %
10.05.2016 08:10 12,7 C 81 % 1011,1 hPa 0,0 l/m 21,6 km/h (4 Bft) NO 55 1 min 0,000 mm 0,8 UV-I 286 W/m 9,5 C 6,3 C 29,0 km/h (5 Bft) 100,00 %
10.05.2016 08:11 12,8 C 81 % 1011,0 hPa 0,0 l/m 24,2 km/h (4 Bft) O-NO 72 1 min 0,000 mm 0,8 UV-I 283 W/m 9,6 C 5,8 C 32,2 km/h (5 Bft) 100,00 %
10.05.2016 08:12 12,8 C 81 % 1011,1 hPa 0,0 l/m 24,2 km/h (4 Bft) NO 50 1 min 0,000 mm 0,8 UV-I 303 W/m 9,6 C 5,8 C 30,6 km/h (5 Bft) 100,00 %
10.05.2016 08:13 12,8 C 81 % 1011,1 hPa 0,0 l/m 24,2 km/h (4 Bft) NO 38 1 min 0,000 mm 0,9 UV-I 314 W/m 9,6 C 5,8 C 30,6 km/h (5 Bft) 100,00 %
10.05.2016 08:14 12,8 C 81 % 1011,1 hPa 0,0 l/m 19,0 km/h (3 Bft) O-NO 64 1 min 0,000 mm 0,8 UV-I 319 W/m 9,6 C 7,2 C 25,7 km/h (4 Bft) 100,00 %
10.05.2016 08:15 12,8 C 81 % 1011,1 hPa 0,0 l/m 19,5 km/h (3 Bft) O-NO 78 1 min 0,000 mm 0,9 UV-I 324 W/m 9,6 C 7,0 C 29,0 km/h (5 Bft) 100,00 %
10.05.2016 08:16 12,8 C 82 % 1011,1 hPa 0,0 l/m 19,0 km/h (3 Bft) NO 41 1 min 0,000 mm 0,9 UV-I 318 W/m 9,8 C 7,2 C 25,7 km/h (4 Bft) 100,00 %
10.05.2016 08:17 12,9 C 81 % 1011,2 hPa 0,0 l/m 17,1 km/h (3 Bft) O-NO 65 1 min 0,000 mm 0,9 UV-I 334 W/m 9,7 C 7,9 C 25,7 km/h (4 Bft) 100,00 %
10.05.2016 08:18 12,9 C 81 % 1011,1 hPa 0,0 l/m 22,0 km/h (4 Bft) O-NO 75 1 min 0,000 mm 0,9 UV-I 348 W/m 9,7 C 6,5 C 29,0 km/h (5 Bft) 100,00 %
10.05.2016 08:19 12,9 C 81 % 1011,2 hPa 0,0 l/m 23,1 km/h (4 Bft) O-NO 59 1 min 0,000 mm 0,9 UV-I 360 W/m 9,7 C 6,2 C 27,4 km/h (4 Bft) 100,00 %
10.05.2016 08:20 12,9 C 81 % 1011,1 hPa 0,0 l/m 23,2 km/h (4 Bft) O-NO 78 1 min 0,000 mm 0,9 UV-I 371 W/m 9,7 C 6,2 C 29,0 km/h (5 Bft) 100,00 %
10.05.2016 08:21 13,0 C 81 % 1011,2 hPa 0,0 l/m 21,2 km/h (4 Bft) O-NO 65 1 min 0,000 mm 0,9 UV-I 372 W/m 9,8 C 6,8 C 29,0 km/h (5 Bft) 100,00 %
10.05.2016 08:22 13,0 C 81 % 1011,1 hPa 0,0 l/m 24,9 km/h (4 Bft) O-NO 77 1 min 0,000 mm 1,0 UV-I 391 W/m 9,8 C 5,9 C 35,4 km/h (5 Bft) 100,00 %
10.05.2016 08:23 13,0 C 80 % 1011,1 hPa 0,0 l/m 23,3 km/h (4 Bft) NO 51 1 min 0,000 mm 0,9 UV-I 386 W/m 9,6 C 6,3 C 33,8 km/h (5 Bft) 100,00 %
10.05.2016 08:24 13,0 C 80 % 1011,1 hPa 0,0 l/m 26,6 km/h (4 Bft) NO 53 1 min 0,000 mm 1,0 UV-I 403 W/m 9,6 C 5,5 C 32,2 km/h (5 Bft) 100,00 %
10.05.2016 08:25 13,1 C 80 % 1011,1 hPa 0,0 l/m 19,6 km/h (3 Bft) NO 46 1 min 0,000 mm 1,0 UV-I 425 W/m 9,7 C 7,4 C 27,4 km/h (4 Bft) 100,00 %
10.05.2016 08:26 13,1 C 80 % 1011,1 hPa 0,0 l/m 27,4 km/h (4 Bft) O-NO 70 1 min 0,000 mm 1,0 UV-I 421 W/m 9,7 C 5,5 C 35,4 km/h (5 Bft) 100,00 %
10.05.2016 08:27 13,1 C 80 % 1011,1 hPa 0,0 l/m 26,5 km/h (4 Bft) O-NO 77 1 min 0,000 mm 1,1 UV-I 419 W/m 9,7 C 5,7 C 35,4 km/h (5 Bft) 100,00 %
10.05.2016 08:28 13,1 C 80 % 1011,0 hPa 0,0 l/m 28,6 km/h (4 Bft) O-NO 57 1 min 0,000 mm 1,1 UV-I 418 W/m 9,7 C 5,3 C 35,4 km/h (5 Bft) 100,00 %
10.05.2016 08:29 13,2 C 80 % 1011,0 hPa 0,0 l/m 22,0 km/h (4 Bft) O 80 1 min 0,000 mm 1,1 UV-I 396 W/m 9,8 C 6,9 C 29,0 km/h (5 Bft) 100,00 %
10.05.2016 08:30 13,2 C 80 % 1011,1 hPa 0,0 l/m 21,5 km/h (4 Bft) NO 53 1 min 0,000 mm 1,1 UV-I 368 W/m 9,8 C 7,0 C 25,7 km/h (4 Bft) 100,00 %
10.05.2016 08:31 13,2 C 80 % 1011,1 hPa 0,0 l/m 17,6 km/h (3 Bft) O 85 1 min 0,000 mm 1,1 UV-I 390 W/m 9,8 C 8,1 C 24,1 km/h (4 Bft) 98,78 %
10.05.2016 08:32 13,2 C 80 % 1011,0 hPa 0,0 l/m 17,8 km/h (3 Bft) O-NO 70 1 min 0,000 mm 1,1 UV-I 394 W/m 9,8 C 8,1 C 25,7 km/h (4 Bft) 100,00 %
10.05.2016 08:33 13,3 C 80 % 1011,0 hPa 0,0 l/m 20,2 km/h (4 Bft) NO 51 1 min 0,000 mm 1,1 UV-I 406 W/m 9,9 C 7,5 C 25,7 km/h (4 Bft) 100,00 %
10.05.2016 08:34 13,3 C 80 % 1011,0 hPa 0,0 l/m 23,8 km/h (4 Bft) O-NO 57 1 min 0,000 mm 1,2 UV-I 410 W/m 9,9 C 6,6 C 30,6 km/h (5 Bft) 100,00 %
10.05.2016 08:35 13,3 C 80 % 1011,0 hPa 0,0 l/m 20,7 km/h (4 Bft) O-NO 63 1 min 0,000 mm 1,2 UV-I 408 W/m 9,9 C 7,4 C 27,4 km/h (4 Bft) 100,00 %
10.05.2016 08:36 13,4 C 80 % 1011,1 hPa 0,0 l/m 19,2 km/h (3 Bft) O-NO 67 1 min 0,000 mm 1,2 UV-I 403 W/m 10,0 C 7,9 C 24,1 km/h (4 Bft) 100,00 %
10.05.2016 08:37 13,4 C 80 % 1011,0 hPa 0,0 l/m 17,9 km/h (3 Bft) O-NO 64 1 min 0,000 mm 1,2 UV-I 404 W/m 10,0 C 8,3 C 24,1 km/h (4 Bft) 100,00 %
10.05.2016 08:38 13,4 C 79 % 1011,0 hPa 0,0 l/m 22,1 km/h (4 Bft) O-NO 74 1 min 0,000 mm 1,2 UV-I 398 W/m 9,8 C 7,1 C 27,4 km/h (4 Bft) 100,00 %
10.05.2016 08:39 13,5 C 79 % 1011,0 hPa 0,0 l/m 17,9 km/h (3 Bft) NO 55 1 min 0,000 mm 1,2 UV-I 386 W/m 9,9 C 8,4 C 20,9 km/h (4 Bft) 96,30 %
10.05.2016 08:40 13,5 C 80 % 1011,0 hPa 0,0 l/m 21,3 km/h (4 Bft) NO 49 1 min 0,000 mm 1,2 UV-I 376 W/m 10,1 C 7,5 C 33,8 km/h (5 Bft) 100,00 %
10.05.2016 08:41 13,6 C 80 % 1010,9 hPa 0,0 l/m 24,4 km/h (4 Bft) NO 51 1 min 0,000 mm 1,3 UV-I 406 W/m 10,2 C 6,8 C 30,6 km/h (5 Bft) 100,00 %
10.05.2016 08:42 13,6 C 79 % 1010,9 hPa 0,0 l/m 21,7 km/h (4 Bft) NO 51 1 min 0,000 mm 1,3 UV-I 394 W/m 10,0 C 7,5 C 29,0 km/h (5 Bft) 96,55 %
10.05.2016 08:43 13,6 C 79 % 1010,9 hPa 0,0 l/m 20,9 km/h (4 Bft) O-NO 67 1 min 0,000 mm 1,3 UV-I 366 W/m 10,0 C 7,7 C 27,4 km/h (4 Bft) 96,30 %
10.05.2016 08:44 13,6 C 80 % 1010,9 hPa 0,0 l/m 24,0 km/h (4 Bft) O-NO 59 1 min 0,000 mm 1,3 UV-I 342 W/m 10,2 C 6,9 C 29,0 km/h (5 Bft) 96,15 %
10.05.2016 08:45 13,6 C 79 % 1010,9 hPa 0,0 l/m 22,8 km/h (4 Bft) NO 55 1 min 0,000 mm 1,3 UV-I 332 W/m 10,0 C 7,2 C 27,4 km/h (4 Bft) 95,83 %
10.05.2016 08:46 13,6 C 79 % 1010,9 hPa 0,0 l/m 22,5 km/h (4 Bft) NO 56 1 min 0,000 mm 1,3 UV-I 334 W/m 10,0 C 7,3 C 32,2 km/h (5 Bft) 95,65 %
10.05.2016 08:47 13,7 C 79 % 1010,9 hPa 0,0 l/m 14,5 km/h (3 Bft) O-NO 62 1 min 0,000 mm 1,3 UV-I 327 W/m 10,1 C 9,8 C 20,9 km/h (4 Bft) 93,33 %
10.05.2016 08:48 13,7 C 79 % 1010,9 hPa 0,0 l/m 15,7 km/h (3 Bft) NO 51 1 min 0,000 mm 1,3 UV-I 310 W/m 10,1 C 9,4 C 20,9 km/h (4 Bft) 100,00 %
10.05.2016 08:49 13,7 C 80 % 1010,9 hPa 0,0 l/m 19,5 km/h (3 Bft) NO 56 1 min 0,000 mm 1,3 UV-I 295 W/m 10,3 C 8,2 C 29,0 km/h (5 Bft) 95,65 %
10.05.2016 08:50 13,8 C 80 % 1010,7 hPa 0,0 l/m 24,0 km/h (4 Bft) O 80 1 min 0,000 mm 1,3 UV-I 287 W/m 10,4 C 7,2 C 29,0 km/h (5 Bft) 100,00 %
10.05.2016 08:51 13,8 C 79 % 1010,9 hPa 0,0 l/m 16,8 km/h (3 Bft) O-NO 63 0 min 0,000 mm 1,3 UV-I 277 W/m 10,2 C 9,1 C 24,1 km/h (4 Bft) 96,15 %
10.05.2016 08:52 13,8 C 78 % 1010,9 hPa 0,0 l/m 22,3 km/h (4 Bft) NO 46 1 min 0,000 mm 1,3 UV-I 288 W/m 10,0 C 7,6 C 27,4 km/h (4 Bft) 95,83 %
10.05.2016 08:53 13,8 C 78 % 1010,8 hPa 0,0 l/m 12,9 km/h (3 Bft) O-NO 59 1 min 0,000 mm 1,4 UV-I 301 W/m 10,0 C 10,5 C 20,9 km/h (4 Bft) 100,00 %
10.05.2016 08:54 13,8 C 79 % 1010,9 hPa 0,0 l/m 15,4 km/h (3 Bft) NO 50 1 min 0,000 mm 1,4 UV-I 321 W/m 10,2 C 9,6 C 24,1 km/h (4 Bft) 83,33 %
10.05.2016 08:55 13,9 C 79 % 1010,9 hPa 0,0 l/m 18,8 km/h (3 Bft) O-NO 59 1 min 0,000 mm 1,4 UV-I 335 W/m 10,3 C 8,7 C 30,6 km/h (5 Bft) 100,00 %
10.05.2016 08:56 13,9 C 79 % 1010,8 hPa 0,0 l/m 21,4 km/h (4 Bft) O-NO 74 1 min 0,000 mm 1,5 UV-I 346 W/m 10,3 C 8,0 C 27,4 km/h (4 Bft) 97,73 %
10.05.2016 08:57 14,0 C 78 % 1010,9 hPa 0,0 l/m 24,8 km/h (4 Bft) O-NO 73 1 min 0,000 mm 1,5 UV-I 356 W/m 10,2 C 7,3 C 35,4 km/h (5 Bft) 100,00 %
10.05.2016 08:58 14,1 C 78 % 1010,9 hPa 0,0 l/m 22,8 km/h (4 Bft) NO 43 1 min 0,000 mm 1,5 UV-I 372 W/m 10,3 C 7,9 C 30,6 km/h (5 Bft) 93,33 %
10.05.2016 08:59 14,1 C 78 % 1010,9 hPa 0,0 l/m 26,0 km/h (4 Bft) NO 53 1 min 0,000 mm 1,5 UV-I 378 W/m 10,3 C 7,2 C 33,8 km/h (5 Bft) 97,37 %
10.05.2016 09:00 14,1 C 77 % 1010,8 hPa 0,0 l/m 22,8 km/h (4 Bft) NO 40 1 min 0,000 mm 1,5 UV-I 376 W/m 10,1 C 7,9 C 29,0 km/h (5 Bft) 96,30 %
10.05.2016 09:01 14,1 C 77 % 1010,7 hPa 0,0 l/m 21,9 km/h (4 Bft) NO 52 1 min 0,229 mm 1,5 UV-I 383 W/m 10,1 C 8,1 C 29,0 km/h (5 Bft) 96,15 %
10.05.2016 09:02 14,1 C 77 % 1010,8 hPa 0,0 l/m 22,5 km/h (4 Bft) NO 53 1 min 0,000 mm 1,6 UV-I 398 W/m 10,1 C 8,0 C 33,8 km/h (5 Bft) 100,00 %
10.05.2016 09:03 14,1 C 77 % 1010,7 hPa 0,0 l/m 21,4 km/h (4 Bft) NO 35 1 min 0,000 mm 1,6 UV-I 410 W/m 10,1 C 8,2 C 29,0 km/h (5 Bft) 95,65 %
10.05.2016 09:04 14,2 C 78 % 1010,7 hPa 0,0 l/m 25,7 km/h (4 Bft) NO 45 1 min 0,000 mm 1,6 UV-I 414 W/m 10,4 C 7,4 C 32,2 km/h (5 Bft) 100,00 %
10.05.2016 09:05 14,2 C 77 % 1010,7 hPa 0,0 l/m 18,5 km/h (3 Bft) O-NO 63 1 min 0,000 mm 1,6 UV-I 418 W/m 10,2 C 9,1 C 22,5 km/h (4 Bft) 91,67 %
10.05.2016 09:06 14,2 C 77 % 1010,7 hPa 0,0 l/m 19,5 km/h (3 Bft) NO 56 1 min 0,000 mm 1,6 UV-I 418 W/m 10,2 C 8,8 C 27,4 km/h (4 Bft) 100,00 %
10.05.2016 09:07 14,2 C 77 % 1010,7 hPa 0,0 l/m 20,0 km/h (4 Bft) NO 43 1 min 0,000 mm 1,6 UV-I 418 W/m 10,2 C 8,7 C 29,0 km/h (5 Bft) 97,44 %
10.05.2016 09:08 14,3 C 77 % 1010,7 hPa 0,0 l/m 15,3 km/h (3 Bft) O-NO 61 1 min 0,000 mm 1,7 UV-I 429 W/m 10,3 C 10,2 C 24,1 km/h (4 Bft) 96,55 %
10.05.2016 09:09 14,3 C 77 % 1010,7 hPa 0,0 l/m 19,3 km/h (3 Bft) O-NO 59 1 min 0,000 mm 1,7 UV-I 434 W/m 10,3 C 9,0 C 24,1 km/h (4 Bft) 100,00 %
10.05.2016 09:10 14,3 C 77 % 1010,6 hPa 0,0 l/m 19,6 km/h (3 Bft) NO 53 1 min 0,000 mm 1,7 UV-I 438 W/m 10,3 C 8,9 C 25,7 km/h (4 Bft) 96,15 %
10.05.2016 09:11 14,4 C 77 % 1010,7 hPa 0,0 l/m 23,1 km/h (4 Bft) O-NO 59 1 min 0,000 mm 1,7 UV-I 447 W/m 10,4 C 8,2 C 32,2 km/h (5 Bft) 100,00 %
10.05.2016 09:12 14,4 C 77 % 1010,6 hPa 0,0 l/m 22,7 km/h (4 Bft) NO 55 1 min 0,000 mm 1,7 UV-I 469 W/m 10,4 C 8,3 C 29,0 km/h (5 Bft) 100,00 %
10.05.2016 09:13 14,4 C 77 % 1010,6 hPa 0,0 l/m 23,6 km/h (4 Bft) O-NO 59 1 min 0,000 mm 1,8 UV-I 474 W/m 10,4 C 8,1 C 32,2 km/h (5 Bft) 100,00 %
10.05.2016 09:14 14,5 C 76 % 1010,6 hPa 0,0 l/m 16,2 km/h (3 Bft) NO 54 1 min 0,000 mm 1,8 UV-I 486 W/m 10,3 C 10,2 C 22,5 km/h (4 Bft) 100,00 %
10.05.2016 09:15 14,5 C 77 % 1010,6 hPa 0,0 l/m 13,7 km/h (3 Bft) N-NO 32 1 min 0,000 mm 1,8 UV-I 490 W/m 10,5 C 11,0 C 17,7 km/h (3 Bft) 100,00 %
10.05.2016 09:16 14,6 C 78 % 1010,6 hPa 0,0 l/m 20,8 km/h (4 Bft) NO 44 1 min 0,000 mm 1,8 UV-I 502 W/m 10,8 C 9,0 C 32,2 km/h (5 Bft) 100,00 %
10.05.2016 09:17 14,6 C 77 % 1010,6 hPa 0,0 l/m 18,0 km/h (3 Bft) O-NO 62 1 min 0,000 mm 1,9 UV-I 512 W/m 10,6 C 9,8 C 24,1 km/h (4 Bft) 100,00 %
10.05.2016 09:18 14,7 C 76 % 1010,6 hPa 0,0 l/m 18,8 km/h (3 Bft) NO 46 1 min 0,000 mm 1,9 UV-I 515 W/m 10,5 C 9,7 C 22,5 km/h (4 Bft) 100,00 %
10.05.2016 09:19 14,7 C 76 % 1010,6 hPa 0,0 l/m 16,8 km/h (3 Bft) NO 50 1 min 0,000 mm 1,9 UV-I 526 W/m 10,5 C 10,3 C 20,9 km/h (4 Bft) 91,67 %
10.05.2016 09:20 14,7 C 76 % 1010,6 hPa 0,0 l/m 13,6 km/h (3 Bft) NO 53 1 min 0,000 mm 1,9 UV-I 521 W/m 10,5 C 11,3 C 17,7 km/h (3 Bft) 100,00 %
10.05.2016 09:21 14,8 C 77 % 1010,6 hPa 0,0 l/m 18,2 km/h (3 Bft) NO 36 1 min 0,000 mm 1,9 UV-I 527 W/m 10,8 C 10,0 C 24,1 km/h (4 Bft) 100,00 %
10.05.2016 09:22 14,9 C 76 % 1010,5 hPa 0,0 l/m 22,8 km/h (4 Bft) N-NW 347 1 min 0,000 mm 1,9 UV-I 529 W/m 10,7 C 8,9 C 27,4 km/h (4 Bft) 100,00 %
10.05.2016 09:23 14,9 C 76 % 1010,5 hPa 0,0 l/m 26,7 km/h (4 Bft) O-NO 70 1 min 0,000 mm 2,0 UV-I 552 W/m 10,7 C 8,1 C 33,8 km/h (5 Bft) 96,15 %
10.05.2016 09:24 15,0 C 75 % 1010,5 hPa 0,0 l/m 21,7 km/h (4 Bft) O-NO 74 1 min 0,000 mm 2,0 UV-I 554 W/m 10,6 C 9,3 C 29,0 km/h (5 Bft) 100,00 %
10.05.2016 09:25 15,0 C 75 % 1010,5 hPa 0,0 l/m 17,4 km/h (3 Bft) NO 49 1 min 0,000 mm 2,0 UV-I 562 W/m 10,6 C 10,5 C 24,1 km/h (4 Bft) 100,00 %
10.05.2016 09:26 15,1 C 75 % 1010,6 hPa 0,0 l/m 12,2 km/h (2 Bft) O-NO 61 1 min 0,000 mm 2,0 UV-I 570 W/m 10,7 C 12,3 C 16,1 km/h (3 Bft) 100,00 %
10.05.2016 09:27 15,1 C 75 % 1010,6 hPa 0,0 l/m 16,6 km/h (3 Bft) NO 42 1 min 0,000 mm 2,0 UV-I 567 W/m 10,7 C 10,8 C 20,9 km/h (4 Bft) 100,00 %
10.05.2016 09:28 15,2 C 76 % 1010,6 hPa 0,0 l/m 13,8 km/h (3 Bft) O-NO 63 1 min 0,000 mm 2,1 UV-I 574 W/m 11,0 C 11,8 C 19,3 km/h (3 Bft) 100,00 %
10.05.2016 09:29 15,2 C 75 % 1010,6 hPa 0,0 l/m 15,1 km/h (3 Bft) NO 49 1 min 0,000 mm 2,1 UV-I 572 W/m 10,8 C 11,4 C 22,5 km/h (4 Bft) 100,00 %
10.05.2016 09:30 15,2 C 75 % 1010,6 hPa 0,0 l/m 17,0 km/h (3 Bft) O-NO 77 1 min 0,000 mm 2,1 UV-I 576 W/m 10,8 C 10,8 C 20,9 km/h (4 Bft) 100,00 %
10.05.2016 09:31 15,3 C 75 % 1010,5 hPa 0,0 l/m 19,8 km/h (3 Bft) O-NO 66 1 min 0,000 mm 2,1 UV-I 577 W/m 10,9 C 10,2 C 32,2 km/h (5 Bft) 100,00 %
10.05.2016 09:32 15,3 C 73 % 1010,5 hPa 0,0 l/m 22,2 km/h (4 Bft) NO 39 1 min 0,000 mm 2,1 UV-I 584 W/m 10,5 C 9,6 C 32,2 km/h (5 Bft) 100,00 %
10.05.2016 09:33 15,3 C 73 % 1010,5 hPa 0,0 l/m 25,2 km/h (4 Bft) O-NO 59 1 min 0,000 mm 2,1 UV-I 578 W/m 10,5 C 9,0 C 27,4 km/h (4 Bft) 100,00 %
10.05.2016 09:34 15,3 C 74 % 1010,5 hPa 0,0 l/m 19,7 km/h (3 Bft) NO 44 1 min 0,000 mm 2,2 UV-I 581 W/m 10,7 C 10,2 C 24,1 km/h (4 Bft) 100,00 %
10.05.2016 09:35 15,4 C 73 % 1010,5 hPa 0,0 l/m 19,3 km/h (3 Bft) NO 46 1 min 0,000 mm 2,2 UV-I 569 W/m 10,6 C 10,4 C 27,4 km/h (4 Bft) 100,00 %
10.05.2016 09:36 15,4 C 74 % 1010,4 hPa 0,0 l/m 16,7 km/h (3 Bft) O-NO 65 1 min 0,000 mm 2,2 UV-I 575 W/m 10,8 C 11,2 C 24,1 km/h (4 Bft) 100,00 %
10.05.2016 09:37 15,4 C 74 % 1010,5 hPa 0,0 l/m 13,9 km/h (3 Bft) O 80 1 min 0,000 mm 2,2 UV-I 589 W/m 10,8 C 12,0 C 22,5 km/h (4 Bft) 100,00 %
10.05.2016 09:38 15,5 C 74 % 1010,4 hPa 0,0 l/m 15,5 km/h (3 Bft) NO 56 1 min 0,000 mm 2,2 UV-I 592 W/m 10,9 C 11,6 C 20,9 km/h (4 Bft) 92,59 %
10.05.2016 09:39 15,6 C 74 % 1010,5 hPa 0,0 l/m 21,3 km/h (4 Bft) O-NO 59 1 min 0,000 mm 2,2 UV-I 577 W/m 11,0 C 10,2 C 27,4 km/h (4 Bft) 96,15 %
10.05.2016 09:40 15,6 C 73 % 1010,5 hPa 0,0 l/m 19,7 km/h (3 Bft) O-NO 64 1 min 0,000 mm 2,3 UV-I 602 W/m 10,8 C 10,6 C 27,4 km/h (4 Bft) 100,00 %
10.05.2016 09:41 15,7 C 72 % 1010,4 hPa 0,0 l/m 22,1 km/h (4 Bft) O 99 1 min 0,000 mm 2,3 UV-I 608 W/m 10,7 C 10,2 C 32,2 km/h (5 Bft) 100,00 %
10.05.2016 09:42 15,7 C 73 % 1010,4 hPa 0,0 l/m 18,3 km/h (3 Bft) O 84 1 min 0,000 mm 2,3 UV-I 598 W/m 10,9 C 11,1 C 24,1 km/h (4 Bft) 96,30 %
10.05.2016 09:43 15,7 C 74 % 1010,5 hPa 0,0 l/m 17,9 km/h (3 Bft) NO 39 1 min 0,000 mm 2,2 UV-I 565 W/m 11,1 C 11,2 C 24,1 km/h (4 Bft) 100,00 %
10.05.2016 09:44 15,8 C 73 % 1010,5 hPa 0,0 l/m 17,9 km/h (3 Bft) O 91 1 min 0,000 mm 2,2 UV-I 532 W/m 11,0 C 11,3 C 25,7 km/h (4 Bft) 100,00 %
10.05.2016 09:45 15,8 C 73 % 1010,5 hPa 0,0 l/m 19,7 km/h (3 Bft) O 82 1 min 0,000 mm 2,3 UV-I 567 W/m 11,0 C 10,9 C 25,7 km/h (4 Bft) 100,00 %
10.05.2016 09:46 15,8 C 72 % 1010,5 hPa 0,0 l/m 20,4 km/h (4 Bft) O-NO 76 1 min 0,000 mm 2,3 UV-I 586 W/m 10,8 C 10,7 C 29,0 km/h (5 Bft) 100,00 %
10.05.2016 09:47 15,8 C 72 % 1010,5 hPa 0,0 l/m 21,0 km/h (4 Bft) O-NO 77 1 min 0,000 mm 2,3 UV-I 542 W/m 10,8 C 10,5 C 29,0 km/h (5 Bft) 95,83 %
10.05.2016 09:48 15,8 C 72 % 1010,4 hPa 0,0 l/m 21,5 km/h (4 Bft) O-NO 74 1 min 0,000 mm 2,3 UV-I 557 W/m 10,8 C 10,4 C 29,0 km/h (5 Bft) 95,65 %
10.05.2016 09:49 15,8 C 72 % 1010,4 hPa 0,0 l/m 20,0 km/h (4 Bft) NO 55 1 min 0,000 mm 2,4 UV-I 574 W/m 10,8 C 10,8 C 30,6 km/h (5 Bft) 100,00 %
10.05.2016 09:50 15,8 C 71 % 1010,5 hPa 0,0 l/m 20,7 km/h (4 Bft) O-NO 71 1 min 0,000 mm 2,4 UV-I 597 W/m 10,6 C 10,6 C 29,0 km/h (5 Bft) 100,00 %
10.05.2016 09:51 15,8 C 72 % 1010,4 hPa 0,0 l/m 21,3 km/h (4 Bft) O-NO 77 1 min 0,000 mm 2,4 UV-I 605 W/m 10,8 C 10,5 C 25,7 km/h (4 Bft) 96,30 %
10.05.2016 09:52 15,8 C 72 % 1010,4 hPa 0,0 l/m 18,5 km/h (3 Bft) NO 43 1 min 0,000 mm 2,5 UV-I 607 W/m 10,8 C 11,2 C 22,5 km/h (4 Bft) 96,15 %
10.05.2016 09:53 15,8 C 72 % 1010,4 hPa 0,0 l/m 20,2 km/h (4 Bft) O-NO 57 1 min 0,000 mm 2,4 UV-I 607 W/m 10,8 C 10,7 C 27,4 km/h (4 Bft) 100,00 %
10.05.2016 09:54 15,8 C 71 % 1010,5 hPa 0,0 l/m 21,8 km/h (4 Bft) O-NO 59 1 min 0,000 mm 2,5 UV-I 592 W/m 10,6 C 10,4 C 29,0 km/h (5 Bft) 100,00 %
10.05.2016 09:55 15,9 C 71 % 1010,4 hPa 0,0 l/m 22,3 km/h (4 Bft) NO 47 1 min 0,000 mm 2,5 UV-I 587 W/m 10,6 C 10,4 C 27,4 km/h (4 Bft) 100,00 %
10.05.2016 09:56 15,9 C 72 % 1010,4 hPa 0,0 l/m 19,3 km/h (3 Bft) NO 42 1 min 0,000 mm 2,4 UV-I 546 W/m 10,9 C 11,1 C 27,4 km/h (4 Bft) 96,55 %
10.05.2016 09:57 15,9 C 72 % 1010,4 hPa 0,0 l/m 19,0 km/h (3 Bft) N-NO 29 1 min 0,000 mm 2,2 UV-I 477 W/m 10,9 C 11,2 C 24,1 km/h (4 Bft) 100,00 %
10.05.2016 09:58 15,9 C 73 % 1010,4 hPa 0,0 l/m 20,8 km/h (4 Bft) NO 41 1 min 0,000 mm 2,3 UV-I 468 W/m 11,1 C 10,7 C 24,1 km/h (4 Bft) 96,15 %
10.05.2016 09:59 16,0 C 72 % 1010,4 hPa 0,0 l/m 21,7 km/h (4 Bft) NO 49 1 min 0,000 mm 2,4 UV-I 495 W/m 11,0 C 10,6 C 29,0 km/h (5 Bft) 100,00 %
10.05.2016 10:00 16,0 C 73 % 1010,4 hPa 0,0 l/m 22,4 km/h (4 Bft) N-NO 27 1 min 0,000 mm 2,5 UV-I 532 W/m 11,2 C 10,5 C 32,2 km/h (5 Bft) 100,00 %
10.05.2016 10:01 16,1 C 72 % 1010,4 hPa 0,0 l/m 18,6 km/h (3 Bft) O-NO 59 1 min 0,330 mm 2,5 UV-I 549 W/m 11,0 C 11,5 C 30,6 km/h (5 Bft) 100,00 %
10.05.2016 10:02 16,1 C 71 % 1010,5 hPa 0,0 l/m 20,5 km/h (4 Bft) O-NO 72 1 min 0,000 mm 2,4 UV-I 475 W/m 10,8 C 11,0 C 27,4 km/h (4 Bft) 100,00 %
10.05.2016 10:03 16,1 C 73 % 1010,5 hPa 0,0 l/m 16,6 km/h (3 Bft) NO 36 1 min 0,000 mm 2,6 UV-I 505 W/m 11,3 C 12,1 C 24,1 km/h (4 Bft) 100,00 %
10.05.2016 10:04 16,1 C 71 % 1010,5 hPa 0,0 l/m 18,3 km/h (3 Bft) O-NO 61 1 min 0,000 mm 2,7 UV-I 611 W/m 10,8 C 11,6 C 30,6 km/h (5 Bft) 100,00 %
10.05.2016 10:05 16,1 C 70 % 1010,4 hPa 0,0 l/m 25,1 km/h (4 Bft) O-NO 75 1 min 0,000 mm 2,6 UV-I 598 W/m 10,6 C 10,1 C 33,8 km/h (5 Bft) 100,00 %
10.05.2016 10:06 16,1 C 70 % 1010,5 hPa 0,0 l/m 25,3 km/h (4 Bft) NO 53 1 min 0,000 mm 2,6 UV-I 593 W/m 10,6 C 10,0 C 30,6 km/h (5 Bft) 100,00 %
10.05.2016 10:07 16,1 C 69 % 1010,5 hPa 0,0 l/m 23,6 km/h (4 Bft) NO 40 1 min 0,000 mm 2,6 UV-I 571 W/m 10,4 C 10,4 C 33,8 km/h (5 Bft) 100,00 %
10.05.2016 10:08 16,1 C 70 % 1010,5 hPa 0,0 l/m 22,9 km/h (4 Bft) O-NO 69 1 min 0,000 mm 2,7 UV-I 587 W/m 10,6 C 10,5 C 30,6 km/h (5 Bft) 100,00 %
10.05.2016 10:09 16,1 C 69 % 1010,5 hPa 0,0 l/m 24,7 km/h (4 Bft) NO 35 1 min 0,000 mm 2,8 UV-I 619 W/m 10,4 C 10,2 C 32,2 km/h (5 Bft) 100,00 %
10.05.2016 10:10 16,2 C 70 % 1010,5 hPa 0,0 l/m 21,0 km/h (4 Bft) O-NO 59 1 min 0,000 mm 2,8 UV-I 640 W/m 10,7 C 11,1 C 29,0 km/h (5 Bft) 100,00 %
10.05.2016 10:11 16,2 C 69 % 1010,5 hPa 0,0 l/m 20,7 km/h (4 Bft) NO 47 1 min 0,000 mm 2,8 UV-I 639 W/m 10,5 C 11,1 C 27,4 km/h (4 Bft) 100,00 %
10.05.2016 10:12 16,2 C 69 % 1010,5 hPa 0,0 l/m 21,7 km/h (4 Bft) NO 55 1 min 0,000 mm 2,9 UV-I 655 W/m 10,5 C 10,9 C 29,0 km/h (5 Bft) 100,00 %
10.05.2016 10:13 16,2 C 69 % 1010,5 hPa 0,0 l/m 23,1 km/h (4 Bft) O-NO 59 1 min 0,000 mm 2,9 UV-I 651 W/m 10,5 C 10,6 C 27,4 km/h (4 Bft) 100,00 %
10.05.2016 10:14 16,2 C 70 % 1010,5 hPa 0,0 l/m 23,5 km/h (4 Bft) O-NO 67 1 min 0,000 mm 2,9 UV-I 653 W/m 10,7 C 10,5 C 29,0 km/h (5 Bft) 96,30 %
10.05.2016 10:15 16,2 C 70 % 1010,4 hPa 0,0 l/m 22,1 km/h (4 Bft) O 93 1 min 0,000 mm 3,0 UV-I 666 W/m 10,7 C 10,8 C 29,0 km/h (5 Bft) 100,00 %
10.05.2016 10:16 16,3 C 70 % 1010,5 hPa 0,0 l/m 20,8 km/h (4 Bft) O 83 1 min 0,000 mm 3,0 UV-I 679 W/m 10,8 C 11,2 C 32,2 km/h (5 Bft) 100,00 %
10.05.2016 10:17 16,3 C 69 % 1010,4 hPa 0,0 l/m 26,9 km/h (4 Bft) O-NO 65 1 min 0,000 mm 3,0 UV-I 672 W/m 10,6 C 10,0 C 35,4 km/h (5 Bft) 100,00 %
10.05.2016 10:18 16,3 C 69 % 1010,4 hPa 0,0 l/m 25,9 km/h (4 Bft) NO 49 1 min 0,000 mm 2,9 UV-I 644 W/m 10,6 C 10,2 C 33,8 km/h (5 Bft) 100,00 %
10.05.2016 10:19 16,3 C 69 % 1010,3 hPa 0,0 l/m 22,7 km/h (4 Bft) O-NO 70 1 min 0,000 mm 3,0 UV-I 645 W/m 10,6 C 10,8 C 27,4 km/h (4 Bft) 100,00 %
10.05.2016 10:20 16,3 C 69 % 1010,4 hPa 0,0 l/m 20,0 km/h (4 Bft) NO 40 1 min 0,000 mm 3,0 UV-I 645 W/m 10,6 C 11,4 C 25,7 km/h (4 Bft) 100,00 %
10.05.2016 10:21 16,3 C 69 % 1010,4 hPa 0,0 l/m 25,1 km/h (4 Bft) NO 53 1 min 0,000 mm 3,0 UV-I 666 W/m 10,6 C 10,4 C 32,2 km/h (5 Bft) 96,15 %
10.05.2016 10:22 16,4 C 70 % 1010,4 hPa 0,0 l/m 22,3 km/h (4 Bft) NO 56 1 min 0,000 mm 3,1 UV-I 677 W/m 10,9 C 11,0 C 27,4 km/h (4 Bft) 86,67 %
10.05.2016 10:23 16,4 C 69 % 1010,3 hPa 0,0 l/m 21,9 km/h (4 Bft) NO 43 1 min 0,000 mm 3,1 UV-I 666 W/m 10,7 C 11,1 C 27,4 km/h (4 Bft) 100,00 %
10.05.2016 10:24 16,4 C 69 % 1010,3 hPa 0,0 l/m 25,3 km/h (4 Bft) NO 53 1 min 0,000 mm 3,1 UV-I 660 W/m 10,7 C 10,4 C 32,2 km/h (5 Bft) 100,00 %
10.05.2016 10:25 16,4 C 69 % 1010,3 hPa 0,0 l/m 23,5 km/h (4 Bft) O-NO 66 1 min 0,000 mm 3,1 UV-I 668 W/m 10,7 C 10,8 C 30,6 km/h (5 Bft) 100,00 %
10.05.2016 10:26 16,4 C 67 % 1010,3 hPa 0,0 l/m 24,7 km/h (4 Bft) O-NO 69 1 min 0,000 mm 1,4 UV-I 653 W/m 10,3 C 10,6 C 29,0 km/h (5 Bft) 100,00 %
10.05.2016 10:27 16,4 C 68 % 1010,3 hPa 0,0 l/m 15,6 km/h (3 Bft) NO 42 1 min 0,000 mm 3,2 UV-I 667 W/m 10,5 C 12,7 C 24,1 km/h (4 Bft) 100,00 %
10.05.2016 10:28 16,5 C 69 % 1010,3 hPa 0,0 l/m 19,3 km/h (3 Bft) O-NO 57 1 min 0,000 mm 3,2 UV-I 674 W/m 10,8 C 11,9 C 24,1 km/h (4 Bft) 100,00 %
10.05.2016 10:29 16,6 C 70 % 1010,3 hPa 0,0 l/m 18,6 km/h (3 Bft) O 99 1 min 0,000 mm 3,2 UV-I 694 W/m 11,1 C 12,1 C 20,9 km/h (4 Bft) 98,72 %
10.05.2016 10:30 16,7 C 69 % 1010,2 hPa 0,0 l/m 17,9 km/h (3 Bft) O-NO 76 1 min 0,000 mm 3,3 UV-I 695 W/m 11,0 C 12,5 C 24,1 km/h (4 Bft) 100,00 %
10.05.2016 10:31 16,7 C 69 % 1010,2 hPa 0,0 l/m 20,5 km/h (4 Bft) NO 51 1 min 0,000 mm 3,3 UV-I 698 W/m 11,0 C 11,8 C 25,7 km/h (4 Bft) 100,00 %
10.05.2016 10:32 16,8 C 68 % 1010,2 hPa 0,0 l/m 22,9 km/h (4 Bft) NO 36 1 min 0,000 mm 3,3 UV-I 709 W/m 10,9 C 11,4 C 32,2 km/h (5 Bft) 100,00 %
10.05.2016 10:33 16,8 C 68 % 1010,3 hPa 0,0 l/m 22,2 km/h (4 Bft) NO 44 1 min 0,000 mm 3,4 UV-I 714 W/m 10,9 C 11,6 C 32,2 km/h (5 Bft) 91,67 %
10.05.2016 10:34 16,8 C 67 % 1010,2 hPa 0,0 l/m 18,6 km/h (3 Bft) O-NO 60 1 min 0,000 mm 3,3 UV-I 705 W/m 10,6 C 12,4 C 24,1 km/h (4 Bft) 100,00 %
10.05.2016 10:35 16,8 C 68 % 1010,2 hPa 0,0 l/m 22,2 km/h (4 Bft) NO 51 1 min 0,000 mm 3,3 UV-I 697 W/m 10,9 C 11,6 C 32,2 km/h (5 Bft) 96,30 %
10.05.2016 10:36 16,8 C 67 % 1010,2 hPa 0,0 l/m 23,6 km/h (4 Bft) NO 46 1 min 0,000 mm 3,3 UV-I 697 W/m 10,6 C 11,3 C 30,6 km/h (5 Bft) 92,31 %
10.05.2016 10:37 16,8 C 67 % 1010,1 hPa 0,0 l/m 21,9 km/h (4 Bft) NO 45 1 min 0,000 mm 3,4 UV-I 706 W/m 10,6 C 11,7 C 30,6 km/h (5 Bft) 100,00 %
10.05.2016 10:38 16,8 C 68 % 1010,1 hPa 0,0 l/m 20,5 km/h (4 Bft) O-NO 69 1 min 0,000 mm 3,5 UV-I 723 W/m 10,9 C 12,0 C 30,6 km/h (5 Bft) 96,15 %
10.05.2016 10:39 16,8 C 68 % 1010,1 hPa 0,0 l/m 24,9 km/h (4 Bft) O-NO 69 1 min 0,000 mm 3,5 UV-I 726 W/m 10,9 C 11,1 C 32,2 km/h (5 Bft) 100,00 %
10.05.2016 10:40 16,8 C 67 % 1010,1 hPa 0,0 l/m 26,8 km/h (4 Bft) O 84 1 min 0,000 mm 3,5 UV-I 722 W/m 10,6 C 10,7 C 32,2 km/h (5 Bft) 93,33 %
10.05.2016 10:41 16,8 C 67 % 1010,1 hPa 0,0 l/m 20,8 km/h (4 Bft) O-NO 63 1 min 0,000 mm 3,5 UV-I 722 W/m 10,6 C 11,9 C 27,4 km/h (4 Bft) 100,00 %
10.05.2016 10:42 16,8 C 67 % 1010,1 hPa 0,0 l/m 25,7 km/h (4 Bft) O-NO 65 1 min 0,000 mm 3,5 UV-I 722 W/m 10,6 C 10,9 C 33,8 km/h (5 Bft) 96,15 %
10.05.2016 10:43 16,9 C 67 % 1010,0 hPa 0,0 l/m 26,2 km/h (4 Bft) O-NO 78 1 min 0,000 mm 3,5 UV-I 730 W/m 10,7 C 11,0 C 33,8 km/h (5 Bft) 100,00 %
10.05.2016 10:44 16,9 C 67 % 1010,0 hPa 0,0 l/m 27,1 km/h (4 Bft) NO 53 1 min 0,000 mm 3,6 UV-I 735 W/m 10,7 C 10,8 C 32,2 km/h (5 Bft) 96,67 %
10.05.2016 10:45 16,9 C 68 % 1010,0 hPa 0,0 l/m 25,9 km/h (4 Bft) O-NO 62 1 min 0,000 mm 3,5 UV-I 728 W/m 11,0 C 11,0 C 33,8 km/h (5 Bft) 96,15 %
10.05.2016 10:46 16,9 C 68 % 1010,0 hPa 0,0 l/m 24,7 km/h (4 Bft) NO 44 1 min 0,000 mm 3,6 UV-I 720 W/m 11,0 C 11,2 C 32,2 km/h (5 Bft) 100,00 %
10.05.2016 10:47 17,0 C 67 % 1010,0 hPa 0,0 l/m 23,7 km/h (4 Bft) O-NO 78 1 min 0,000 mm 3,5 UV-I 720 W/m 10,8 C 11,6 C 30,6 km/h (5 Bft) 96,67 %
10.05.2016 10:48 17,0 C 67 % 1010,0 hPa 0,0 l/m 19,8 km/h (3 Bft) O-NO 67 1 min 0,000 mm 3,6 UV-I 730 W/m 10,8 C 12,4 C 25,7 km/h (4 Bft) 100,00 %
10.05.2016 10:49 17,1 C 67 % 1010,0 hPa 0,0 l/m 25,2 km/h (4 Bft) NO 46 1 min 0,000 mm 3,6 UV-I 723 W/m 10,9 C 11,4 C 35,4 km/h (5 Bft) 92,31 %
10.05.2016 10:50 17,1 C 67 % 1010,0 hPa 0,0 l/m 27,1 km/h (4 Bft) NO 48 1 min 0,000 mm 3,6 UV-I 718 W/m 10,9 C 11,1 C 35,4 km/h (5 Bft) 95,83 %
10.05.2016 10:51 17,1 C 66 % 1010,0 hPa 0,0 l/m 18,5 km/h (3 Bft) O-NO 61 1 min 0,000 mm 3,6 UV-I 714 W/m 10,7 C 12,8 C 24,1 km/h (4 Bft) 90,91 %
10.05.2016 10:52 17,1 C 67 % 1010,0 hPa 0,0 l/m 20,3 km/h (4 Bft) O-NO 69 1 min 0,000 mm 3,6 UV-I 719 W/m 10,9 C 12,4 C 25,7 km/h (4 Bft) 100,00 %
10.05.2016 10:53 17,1 C 67 % 1010,0 hPa 0,0 l/m 11,9 km/h (2 Bft) NO 45 1 min 0,000 mm 3,7 UV-I 738 W/m 10,9 C 14,7 C 19,3 km/h (3 Bft) 94,12 %
10.05.2016 10:54 17,2 C 67 % 1010,0 hPa 0,0 l/m 23,4 km/h (4 Bft) NO 53 1 min 0,000 mm 3,7 UV-I 736 W/m 11,0 C 11,9 C 29,0 km/h (5 Bft) 96,30 %
10.05.2016 10:55 17,2 C 67 % 1010,0 hPa 0,0 l/m 21,4 km/h (4 Bft) NO 50 1 min 0,000 mm 3,8 UV-I 745 W/m 11,0 C 12,3 C 29,0 km/h (5 Bft) 100,00 %
10.05.2016 10:56 17,3 C 67 % 1009,9 hPa 0,0 l/m 28,6 km/h (4 Bft) O-SO 103 1 min 0,000 mm 3,8 UV-I 747 W/m 11,1 C 11,1 C 33,8 km/h (5 Bft) 93,33 %
10.05.2016 10:57 17,3 C 68 % 1009,9 hPa 0,0 l/m 20,3 km/h (4 Bft) O 82 1 min 0,000 mm 3,8 UV-I 748 W/m 11,3 C 12,7 C 27,4 km/h (4 Bft) 100,00 %
10.05.2016 10:58 17,4 C 67 % 1009,9 hPa 0,0 l/m 20,2 km/h (4 Bft) NO 48 1 min 0,000 mm 3,8 UV-I 745 W/m 11,2 C 12,8 C 25,7 km/h (4 Bft) 92,31 %
10.05.2016 10:59 17,4 C 65 % 1009,9 hPa 0,0 l/m 28,7 km/h (4 Bft) O-NO 75 1 min 0,000 mm 3,8 UV-I 748 W/m 10,8 C 11,3 C 33,8 km/h (5 Bft) 100,00 %
10.05.2016 11:00 17,4 C 66 % 1009,9 hPa 0,0 l/m 25,1 km/h (4 Bft) O 90 1 min 0,457 mm 3,9 UV-I 751 W/m 11,0 C 11,8 C 33,8 km/h (5 Bft) 96,30 %
10.05.2016 11:02 17,4 C 65 % 1009,9 hPa 0,0 l/m 23,4 km/h (4 Bft) O-NO 69 2 min 0,000 mm 3,9 UV-I 758 W/m 10,8 C 12,2 C 33,8 km/h (5 Bft) 97,73 %
10.05.2016 11:03 17,4 C 65 % 1009,9 hPa 0,0 l/m 26,7 km/h (4 Bft) O-NO 66 1 min 0,000 mm 3,9 UV-I 764 W/m 10,8 C 11,6 C 33,8 km/h (5 Bft) 100,00 %
10.05.2016 11:04 17,5 C 66 % 1009,9 hPa 0,0 l/m 23,5 km/h (4 Bft) O 80 1 min 0,000 mm 3,9 UV-I 763 W/m 11,1 C 12,3 C 29,0 km/h (5 Bft) 96,55 %
10.05.2016 11:05 17,4 C 65 % 1010,0 hPa 0,0 l/m 24,8 km/h (4 Bft) NO 44 1 min 0,000 mm 3,9 UV-I 762 W/m 10,8 C 11,9 C 29,0 km/h (5 Bft) 100,00 %
10.05.2016 11:06 17,4 C 66 % 1010,0 hPa 0,0 l/m 22,0 km/h (4 Bft) O-NO 71 1 min 0,000 mm 4,0 UV-I 766 W/m 11,0 C 12,4 C 32,2 km/h (5 Bft) 100,00 %
10.05.2016 11:07 17,4 C 65 % 1009,9 hPa 0,0 l/m 20,4 km/h (4 Bft) O-NO 68 1 min 0,000 mm 3,9 UV-I 756 W/m 10,8 C 12,8 C 25,7 km/h (4 Bft) 96,30 %
10.05.2016 11:08 17,5 C 67 % 1010,0 hPa 0,0 l/m 15,7 km/h (3 Bft) O-NO 60 1 min 0,000 mm 3,9 UV-I 749 W/m 11,3 C 14,0 C 22,5 km/h (4 Bft) 100,00 %
10.05.2016 11:09 17,6 C 68 % 1010,0 hPa 0,0 l/m 18,4 km/h (3 Bft) NO 44 1 min 0,000 mm 4,0 UV-I 751 W/m 11,6 C 13,5 C 24,1 km/h (4 Bft) 100,00 %
10.05.2016 11:10 17,7 C 67 % 1010,0 hPa 0,0 l/m 19,1 km/h (3 Bft) O-NO 57 1 min 0,000 mm 4,0 UV-I 752 W/m 11,5 C 13,4 C 27,4 km/h (4 Bft) 100,00 %
10.05.2016 11:11 17,7 C 65 % 1010,0 hPa 0,0 l/m 24,4 km/h (4 Bft) O-NO 63 1 min 0,000 mm 4,0 UV-I 750 W/m 11,0 C 12,4 C 35,4 km/h (5 Bft) 100,00 %
10.05.2016 11:12 17,8 C 67 % 1010,0 hPa 0,0 l/m 12,6 km/h (3 Bft) O-NO 63 1 min 0,000 mm 4,0 UV-I 753 W/m 11,6 C 15,3 C 17,7 km/h (3 Bft) 100,00 %
10.05.2016 11:13 17,8 C 66 % 1010,0 hPa 0,0 l/m 22,8 km/h (4 Bft) NO 50 1 min 0,000 mm 4,0 UV-I 760 W/m 11,4 C 12,8 C 30,6 km/h (5 Bft) 100,00 %
10.05.2016 11:14 17,9 C 66 % 1009,9 hPa 0,0 l/m 22,3 km/h (4 Bft) NO 48 1 min 0,000 mm 4,1 UV-I 771 W/m 11,5 C 13,0 C 30,6 km/h (5 Bft) 95,65 %
10.05.2016 11:15 17,8 C 64 % 1010,0 hPa 0,0 l/m 25,8 km/h (4 Bft) O-NO 59 1 min 0,000 mm 4,1 UV-I 781 W/m 10,9 C 12,3 C 33,8 km/h (5 Bft) 100,00 %
10.05.2016 11:16 17,8 C 65 % 1010,0 hPa 0,0 l/m 23,8 km/h (4 Bft) NO 56 1 min 0,000 mm 4,2 UV-I 787 W/m 11,1 C 12,6 C 27,4 km/h (4 Bft) 98,62 %
10.05.2016 11:17 17,8 C 65 % 1009,9 hPa 0,0 l/m 22,6 km/h (4 Bft) O-NO 69 1 min 0,000 mm 4,2 UV-I 790 W/m 11,1 C 12,8 C 30,6 km/h (5 Bft) 100,00 %
10.05.2016 11:18 17,8 C 67 % 1009,9 hPa 0,0 l/m 23,3 km/h (4 Bft) NO 53 1 min 0,000 mm 4,2 UV-I 789 W/m 11,6 C 12,7 C 38,6 km/h (5 Bft) 100,00 %
10.05.2016 11:19 17,9 C 67 % 1009,9 hPa 0,0 l/m 22,0 km/h (4 Bft) O-NO 66 1 min 0,000 mm 4,2 UV-I 785 W/m 11,7 C 13,1 C 27,4 km/h (4 Bft) 97,56 %
10.05.2016 11:20 17,9 C 65 % 1009,9 hPa 0,0 l/m 17,1 km/h (3 Bft) O-NO 69 1 min 0,000 mm 4,2 UV-I 792 W/m 11,2 C 14,2 C 22,5 km/h (4 Bft) 100,00 %
10.05.2016 11:21 18,1 C 66 % 1009,9 hPa 0,0 l/m 21,3 km/h (4 Bft) NO 55 1 min 0,000 mm 4,3 UV-I 798 W/m 11,6 C 13,5 C 30,6 km/h (5 Bft) 100,00 %
10.05.2016 11:22 18,1 C 64 % 1009,9 hPa 0,0 l/m 25,8 km/h (4 Bft) NO 53 1 min 0,000 mm 4,3 UV-I 800 W/m 11,2 C 12,7 C 30,6 km/h (5 Bft) 100,00 %
10.05.2016 11:23 18,1 C 64 % 1010,0 hPa 0,0 l/m 22,0 km/h (4 Bft) NO 52 1 min 0,000 mm 4,3 UV-I 802 W/m 11,2 C 13,3 C 32,2 km/h (5 Bft) 100,00 %
10.05.2016 11:24 18,0 C 63 % 1009,9 hPa 0,0 l/m 28,4 km/h (4 Bft) O-NO 57 1 min 0,000 mm 4,3 UV-I 802 W/m 10,8 C 12,1 C 32,2 km/h (5 Bft) 100,00 %
10.05.2016 11:25 18,0 C 64 % 1009,9 hPa 0,0 l/m 25,6 km/h (4 Bft) NO 41 1 min 0,000 mm 4,3 UV-I 798 W/m 11,1 C 12,6 C 32,2 km/h (5 Bft) 100,00 %
10.05.2016 11:26 17,9 C 64 % 1009,9 hPa 0,0 l/m 23,7 km/h (4 Bft) O-NO 58 1 min 0,000 mm 4,3 UV-I 804 W/m 11,0 C 12,8 C 32,2 km/h (5 Bft) 100,00 %
10.05.2016 11:27 18,0 C 65 % 1009,9 hPa 0,0 l/m 19,1 km/h (3 Bft) NO 49 1 min 0,000 mm 4,4 UV-I 805 W/m 11,3 C 13,8 C 29,0 km/h (5 Bft) 100,00 %
10.05.2016 11:28 18,1 C 66 % 1009,9 hPa 0,0 l/m 24,3 km/h (4 Bft) NO 39 1 min 0,000 mm 4,4 UV-I 804 W/m 11,6 C 12,9 C 30,6 km/h (5 Bft) 96,30 %
10.05.2016 11:29 18,2 C 66 % 1009,9 hPa 0,0 l/m 21,7 km/h (4 Bft) NO 38 1 min 0,000 mm 4,4 UV-I 808 W/m 11,7 C 13,5 C 29,0 km/h (5 Bft) 100,00 %
10.05.2016 11:30 18,3 C 66 % 1009,9 hPa 0,0 l/m 23,1 km/h (4 Bft) O-NO 59 1 min 0,000 mm 4,4 UV-I 803 W/m 11,8 C 13,4 C 29,0 km/h (5 Bft) 100,00 %
10.05.2016 11:31 18,3 C 64 % 1009,9 hPa 0,0 l/m 22,5 km/h (4 Bft) O-NO 61 1 min 0,000 mm 4,4 UV-I 805 W/m 11,4 C 13,5 C 30,6 km/h (5 Bft) 100,00 %
10.05.2016 11:32 18,3 C 64 % 1009,9 hPa 0,0 l/m 17,9 km/h (3 Bft) O-NO 61 1 min 0,000 mm 4,5 UV-I 811 W/m 11,4 C 14,5 C 24,1 km/h (4 Bft) 100,00 %
10.05.2016 11:33 18,3 C 65 % 1009,9 hPa 0,0 l/m 25,2 km/h (4 Bft) O 81 1 min 0,000 mm 4,5 UV-I 812 W/m 11,6 C 13,0 C 33,8 km/h (5 Bft) 100,00 %
10.05.2016 11:34 18,3 C 65 % 1009,8 hPa 0,0 l/m 18,7 km/h (3 Bft) N-NO 24 1 min 0,000 mm 4,5 UV-I 813 W/m 11,6 C 14,3 C 30,6 km/h (5 Bft) 100,00 %
10.05.2016 11:35 18,4 C 65 % 1009,8 hPa 0,0 l/m 16,3 km/h (3 Bft) O 83 1 min 0,000 mm 4,4 UV-I 808 W/m 11,7 C 15,0 C 22,5 km/h (4 Bft) 100,00 %
10.05.2016 11:36 18,4 C 64 % 1009,9 hPa 0,0 l/m 26,1 km/h (4 Bft) NO 53 1 min 0,000 mm 4,5 UV-I 793 W/m 11,5 C 13,0 C 35,4 km/h (5 Bft) 100,00 %
10.05.2016 11:37 18,5 C 65 % 1009,8 hPa 0,0 l/m 25,4 km/h (4 Bft) O-NO 65 1 min 0,000 mm 4,5 UV-I 815 W/m 11,8 C 13,3 C 29,0 km/h (5 Bft) 100,00 %
10.05.2016 11:38 18,6 C 65 % 1009,8 hPa 0,0 l/m 20,0 km/h (4 Bft) NO 48 1 min 0,000 mm 4,6 UV-I 812 W/m 11,9 C 14,4 C 25,7 km/h (4 Bft) 100,00 %
10.05.2016 11:39 18,6 C 64 % 1009,8 hPa 0,0 l/m 19,2 km/h (3 Bft) O-NO 67 1 min 0,000 mm 4,6 UV-I 815 W/m 11,7 C 14,6 C 30,6 km/h (5 Bft) 100,00 %
10.05.2016 11:40 18,6 C 63 % 1009,9 hPa 0,0 l/m 25,7 km/h (4 Bft) O-NO 59 1 min 0,000 mm 4,7 UV-I 824 W/m 11,4 C 13,4 C 33,8 km/h (5 Bft) 100,00 %
10.05.2016 11:41 18,6 C 62 % 1009,8 hPa 0,0 l/m 27,8 km/h (4 Bft) O-NO 63 1 min 0,000 mm 4,6 UV-I 824 W/m 11,2 C 13,1 C 32,2 km/h (5 Bft) 100,00 %
10.05.2016 11:42 18,6 C 62 % 1009,8 hPa 0,0 l/m 27,3 km/h (4 Bft) O-NO 65 1 min 0,000 mm 4,6 UV-I 810 W/m 11,2 C 13,1 C 33,8 km/h (5 Bft) 100,00 %
10.05.2016 11:43 18,5 C 62 % 1009,8 hPa 0,0 l/m 30,1 km/h (5 Bft) NO 50 1 min 0,000 mm 4,6 UV-I 821 W/m 11,1 C 12,6 C 38,6 km/h (5 Bft) 100,00 %
10.05.2016 11:44 18,5 C 62 % 1009,8 hPa 0,0 l/m 24,2 km/h (4 Bft) O-NO 69 1 min 0,000 mm 4,6 UV-I 816 W/m 11,1 C 13,5 C 32,2 km/h (5 Bft) 100,00 %
10.05.2016 11:45 18,5 C 63 % 1009,8 hPa 0,0 l/m 26,2 km/h (4 Bft) O-NO 59 1 min 0,000 mm 4,6 UV-I 789 W/m 11,3 C 13,2 C 33,8 km/h (5 Bft) 100,00 %
10.05.2016 11:46 18,5 C 62 % 1009,8 hPa 0,0 l/m 28,6 km/h (4 Bft) O-NO 75 1 min 0,000 mm 4,6 UV-I 790 W/m 11,1 C 12,8 C 38,6 km/h (5 Bft) 100,00 %
10.05.2016 11:47 18,4 C 62 % 1009,8 hPa 0,0 l/m 25,5 km/h (4 Bft) O-NO 60 1 min 0,000 mm 4,6 UV-I 814 W/m 11,0 C 13,1 C 33,8 km/h (5 Bft) 100,00 %
10.05.2016 11:48 18,4 C 62 % 1009,8 hPa 0,0 l/m 24,6 km/h (4 Bft) NO 44 1 min 0,000 mm 4,6 UV-I 785 W/m 11,0 C 13,3 C 30,6 km/h (5 Bft) 100,00 %
10.05.2016 11:49 18,4 C 63 % 1009,8 hPa 0,0 l/m 21,2 km/h (4 Bft) O-NO 57 1 min 0,000 mm 4,5 UV-I 788 W/m 11,2 C 13,9 C 27,4 km/h (4 Bft) 100,00 %
10.05.2016 11:50 18,5 C 62 % 1009,8 hPa 0,0 l/m 24,4 km/h (4 Bft) O-NO 63 1 min 0,000 mm 4,7 UV-I 829 W/m 11,1 C 13,5 C 35,4 km/h (5 Bft) 100,00 %
10.05.2016 11:51 18,5 C 63 % 1009,9 hPa 0,0 l/m 27,7 km/h (4 Bft) NO 47 1 min 0,000 mm 4,7 UV-I 833 W/m 11,3 C 12,9 C 33,8 km/h (5 Bft) 100,00 %
10.05.2016 11:52 18,6 C 63 % 1009,8 hPa 0,0 l/m 25,7 km/h (4 Bft) O-NO 74 1 min 0,000 mm 4,7 UV-I 810 W/m 11,4 C 13,4 C 33,8 km/h (5 Bft) 100,00 %
10.05.2016 11:53 18,6 C 64 % 1009,8 hPa 0,0 l/m 25,2 km/h (4 Bft) NO 38 1 min 0,000 mm 4,6 UV-I 779 W/m 11,7 C 13,5 C 32,2 km/h (5 Bft) 100,00 %
10.05.2016 11:54 18,6 C 61 % 1009,8 hPa 0,0 l/m 25,2 km/h (4 Bft) NO 55 1 min 0,000 mm 4,7 UV-I 812 W/m 10,9 C 13,5 C 33,8 km/h (5 Bft) 100,00 %
10.05.2016 11:55 18,7 C 62 % 1009,8 hPa 0,0 l/m 15,9 km/h (3 Bft) N-NO 31 1 min 0,000 mm 4,8 UV-I 822 W/m 11,3 C 15,4 C 22,5 km/h (4 Bft) 100,00 %
10.05.2016 11:56 18,7 C 63 % 1009,7 hPa 0,0 l/m 23,5 km/h (4 Bft) O-NO 63 1 min 0,000 mm 4,6 UV-I 788 W/m 11,5 C 13,9 C 33,8 km/h (5 Bft) 100,00 %
10.05.2016 11:57 18,7 C 62 % 1009,7 hPa 0,0 l/m 31,6 km/h (5 Bft) O-NO 57 1 min 0,000 mm 4,6 UV-I 782 W/m 11,3 C 12,7 C 37,0 km/h (5 Bft) 93,10 %
10.05.2016 11:58 18,7 C 61 % 1009,6 hPa 0,0 l/m 24,9 km/h (4 Bft) O 82 1 min 0,000 mm 4,7 UV-I 825 W/m 11,0 C 13,6 C 30,6 km/h (5 Bft) 100,00 %
10.05.2016 11:59 18,7 C 62 % 1009,7 hPa 0,0 l/m 22,0 km/h (4 Bft) O 80 1 min 0,000 mm 4,7 UV-I 821 W/m 11,3 C 14,1 C 30,6 km/h (5 Bft) 100,00 %
10.05.2016 12:00 18,8 C 62 % 1009,7 hPa 0,0 l/m 22,3 km/h (4 Bft) O-NO 63 1 min 0,000 mm 4,7 UV-I 830 W/m 11,4 C 14,2 C 30,6 km/h (5 Bft) 100,00 %
10.05.2016 12:02 18,8 C 61 % 1009,6 hPa 0,0 l/m 24,1 km/h (4 Bft) O-SO 117 2 min 0,559 mm 4,8 UV-I 822 W/m 11,1 C 13,9 C 32,2 km/h (5 Bft) 98,08 %
10.05.2016 12:03 18,9 C 63 % 1009,7 hPa 0,0 l/m 19,2 km/h (3 Bft) O-NO 76 1 min 0,000 mm 4,8 UV-I 849 W/m 11,7 C 14,9 C 25,7 km/h (4 Bft) 100,00 %
10.05.2016 12:04 18,9 C 62 % 1009,7 hPa 0,0 l/m 24,0 km/h (4 Bft) N-NO 32 1 min 0,000 mm 4,9 UV-I 837 W/m 11,5 C 14,1 C 29,0 km/h (5 Bft) 100,00 %
10.05.2016 12:05 18,9 C 61 % 1009,6 hPa 0,0 l/m 29,1 km/h (5 Bft) O-NO 59 1 min 0,000 mm 4,7 UV-I 823 W/m 11,2 C 13,3 C 35,4 km/h (5 Bft) 100,00 %
10.05.2016 12:06 19,0 C 61 % 1009,5 hPa 0,0 l/m 24,5 km/h (4 Bft) O-NO 74 1 min 0,000 mm 4,6 UV-I 778 W/m 11,3 C 14,1 C 33,8 km/h (5 Bft) 100,00 %
10.05.2016 12:07 19,0 C 61 % 1009,6 hPa 0,0 l/m 22,6 km/h (4 Bft) NO 46 1 min 0,000 mm 4,6 UV-I 797 W/m 11,3 C 14,4 C 27,4 km/h (4 Bft) 100,00 %
10.05.2016 12:08 18,9 C 62 % 1009,5 hPa 0,0 l/m 20,6 km/h (4 Bft) O-NO 78 1 min 0,000 mm 4,7 UV-I 810 W/m 11,5 C 14,7 C 30,6 km/h (5 Bft) 100,00 %
10.05.2016 12:09 18,9 C 63 % 1009,4 hPa 0,0 l/m 23,9 km/h (4 Bft) O-NO 57 1 min 0,000 mm 4,7 UV-I 810 W/m 11,7 C 14,1 C 33,8 km/h (5 Bft) 100,00 %
10.05.2016 12:10 19,0 C 62 % 1009,4 hPa 0,0 l/m 23,6 km/h (4 Bft) NO 49 1 min 0,000 mm 4,8 UV-I 815 W/m 11,6 C 14,3 C 33,8 km/h (5 Bft) 100,00 %
10.05.2016 12:11 19,1 C 61 % 1009,5 hPa 0,0 l/m 27,0 km/h (4 Bft) NO 44 1 min 0,000 mm 4,8 UV-I 837 W/m 11,4 C 13,9 C 38,6 km/h (5 Bft) 100,00 %
10.05.2016 12:12 19,1 C 62 % 1009,5 hPa 0,0 l/m 27,7 km/h (4 Bft) NO 39 1 min 0,000 mm 4,8 UV-I 810 W/m 11,6 C 13,8 C 33,8 km/h (5 Bft) 96,30 %
10.05.2016 12:13 19,1 C 61 % 1009,5 hPa 0,0 l/m 26,8 km/h (4 Bft) NO 39 1 min 0,000 mm 4,5 UV-I 788 W/m 11,4 C 13,9 C 33,8 km/h (5 Bft) 100,00 %
10.05.2016 12:14 19,1 C 62 % 1009,5 hPa 0,0 l/m 24,0 km/h (4 Bft) NO 55 1 min 0,000 mm 4,7 UV-I 795 W/m 11,6 C 14,3 C 35,4 km/h (5 Bft) 100,00 %
10.05.2016 12:15 19,1 C 60 % 1009,4 hPa 0,0 l/m 26,3 km/h (4 Bft) NO 55 1 min 0,000 mm 4,7 UV-I 800 W/m 11,1 C 14,0 C 32,2 km/h (5 Bft) 100,00 %
10.05.2016 12:16 19,1 C 60 % 1009,5 hPa 0,0 l/m 27,2 km/h (4 Bft) O-NO 67 1 min 0,000 mm 4,7 UV-I 804 W/m 11,1 C 13,8 C 33,8 km/h (5 Bft) 100,00 %
10.05.2016 12:17 19,0 C 60 % 1009,5 hPa 0,0 l/m 24,6 km/h (4 Bft) NO 46 1 min 0,000 mm 4,8 UV-I 819 W/m 11,1 C 14,1 C 33,8 km/h (5 Bft) 100,00 %
10.05.2016 12:18 19,1 C 61 % 1009,5 hPa 0,0 l/m 21,9 km/h (4 Bft) O-NO 60 1 min 0,000 mm 4,8 UV-I 821 W/m 11,4 C 14,7 C 32,2 km/h (5 Bft) 100,00 %
10.05.2016 12:19 19,1 C 61 % 1009,4 hPa 0,0 l/m 28,7 km/h (4 Bft) O-NO 69 1 min 0,000 mm 4,9 UV-I 833 W/m 11,4 C 13,6 C 38,6 km/h (5 Bft) 96,15 %
10.05.2016 12:20 19,1 C 60 % 1009,4 hPa 0,0 l/m 26,9 km/h (4 Bft) O-NO 59 1 min 0,000 mm 4,8 UV-I 833 W/m 11,1 C 13,9 C 33,8 km/h (5 Bft) 100,00 %
10.05.2016 12:21 19,1 C 60 % 1009,4 hPa 0,0 l/m 28,9 km/h (5 Bft) NO 54 1 min 0,000 mm 4,8 UV-I 817 W/m 11,1 C 13,6 C 33,8 km/h (5 Bft) 100,00 %
10.05.2016 12:22 19,2 C 61 % 1009,4 hPa 0,0 l/m 23,9 km/h (4 Bft) O-NO 60 1 min 0,000 mm 4,8 UV-I 824 W/m 11,5 C 14,5 C 32,2 km/h (5 Bft) 96,15 %
10.05.2016 12:23 19,2 C 62 % 1009,4 hPa 0,0 l/m 25,7 km/h (4 Bft) O-NO 57 1 min 0,000 mm 4,7 UV-I 777 W/m 11,7 C 14,2 C 30,6 km/h (5 Bft) 100,00 %
10.05.2016 12:24 19,3 C 60 % 1009,4 hPa 0,0 l/m 25,3 km/h (4 Bft) O-NO 59 1 min 0,000 mm 4,8 UV-I 786 W/m 11,3 C 14,4 C 30,6 km/h (5 Bft) 92,86 %
10.05.2016 12:25 19,3 C 60 % 1009,4 hPa 0,0 l/m 16,6 km/h (3 Bft) O-NO 63 1 min 0,000 mm 4,9 UV-I 814 W/m 11,3 C 16,0 C 22,5 km/h (4 Bft) 100,00 %
10.05.2016 12:26 19,3 C 61 % 1009,4 hPa 0,0 l/m 19,8 km/h (3 Bft) NO 52 1 min 0,000 mm 4,8 UV-I 800 W/m 11,6 C 15,3 C 25,7 km/h (4 Bft) 92,86 %
10.05.2016 12:27 19,4 C 60 % 1009,4 hPa 0,0 l/m 24,4 km/h (4 Bft) NO 42 1 min 0,000 mm 4,6 UV-I 779 W/m 11,4 C 14,7 C 30,6 km/h (5 Bft) 100,00 %
10.05.2016 12:28 19,4 C 61 % 1009,4 hPa 0,0 l/m 24,1 km/h (4 Bft) NO 40 1 min 0,000 mm 4,6 UV-I 778 W/m 11,7 C 14,7 C 32,2 km/h (5 Bft) 95,65 %
10.05.2016 12:29 19,4 C 61 % 1009,3 hPa 0,0 l/m 21,3 km/h (4 Bft) O 95 1 min 0,000 mm 4,6 UV-I 771 W/m 11,7 C 15,2 C 30,6 km/h (5 Bft) 95,83 %
10.05.2016 12:30 19,5 C 62 % 1009,4 hPa 0,0 l/m 21,2 km/h (4 Bft) O-NO 69 1 min 0,000 mm 4,7 UV-I 791 W/m 12,0 C 15,3 C 30,6 km/h (5 Bft) 100,00 %
10.05.2016 12:31 19,5 C 62 % 1009,3 hPa 0,0 l/m 22,0 km/h (4 Bft) O-NO 67 1 min 0,000 mm 4,8 UV-I 804 W/m 12,0 C 15,2 C 32,2 km/h (5 Bft) 95,83 %
10.05.2016 12:32 19,6 C 60 % 1009,3 hPa 0,0 l/m 23,1 km/h (4 Bft) O-NO 57 1 min 0,000 mm 4,8 UV-I 792 W/m 11,6 C 15,1 C 30,6 km/h (5 Bft) 100,00 %
10.05.2016 12:33 19,6 C 59 % 1009,3 hPa 0,0 l/m 25,7 km/h (4 Bft) O 85 1 min 0,000 mm 4,9 UV-I 822 W/m 11,4 C 14,7 C 37,0 km/h (5 Bft) 91,67 %
10.05.2016 12:34 19,6 C 58 % 1009,3 hPa 0,0 l/m 27,7 km/h (4 Bft) NO 56 1 min 0,000 mm 4,8 UV-I 824 W/m 11,1 C 14,5 C 35,4 km/h (5 Bft) 100,00 %
10.05.2016 12:35 19,5 C 60 % 1009,3 hPa 0,0 l/m 21,7 km/h (4 Bft) O-NO 59 1 min 0,000 mm 4,8 UV-I 799 W/m 11,5 C 15,2 C 27,4 km/h (4 Bft) 96,55 %
10.05.2016 12:36 19,5 C 60 % 1009,3 hPa 0,0 l/m 19,4 km/h (3 Bft) O 84 1 min 0,000 mm 4,7 UV-I 786 W/m 11,5 C 15,7 C 25,7 km/h (4 Bft) 96,15 %
10.05.2016 12:37 19,6 C 60 % 1009,4 hPa 0,0 l/m 25,4 km/h (4 Bft) NO 55 1 min 0,000 mm 4,7 UV-I 793 W/m 11,6 C 14,8 C 32,2 km/h (5 Bft) 100,00 %
10.05.2016 12:38 19,6 C 58 % 1009,3 hPa 0,0 l/m 27,4 km/h (4 Bft) O-NO 61 1 min 0,000 mm 4,8 UV-I 811 W/m 11,1 C 14,5 C 33,8 km/h (5 Bft) 92,31 %
10.05.2016 12:39 19,6 C 58 % 1009,2 hPa 0,0 l/m 24,8 km/h (4 Bft) O-NO 70 1 min 0,000 mm 4,8 UV-I 811 W/m 11,1 C 14,9 C 30,6 km/h (5 Bft) 98,70 %
10.05.2016 12:40 19,5 C 59 % 1009,3 hPa 0,0 l/m 28,0 km/h (4 Bft) NO 51 1 min 0,000 mm 4,8 UV-I 775 W/m 11,3 C 14,3 C 33,8 km/h (5 Bft) 97,62 %
10.05.2016 12:41 19,5 C 59 % 1009,3 hPa 0,0 l/m 30,0 km/h (5 Bft) O-NO 61 1 min 0,000 mm 4,9 UV-I 818 W/m 11,3 C 14,0 C 37,0 km/h (5 Bft) 100,00 %
10.05.2016 12:42 19,5 C 58 % 1009,3 hPa 0,0 l/m 28,0 km/h (4 Bft) NO 53 1 min 0,000 mm 4,8 UV-I 814 W/m 11,0 C 14,3 C 35,4 km/h (5 Bft) 90,48 %
10.05.2016 12:43 19,5 C 60 % 1009,3 hPa 0,0 l/m 27,2 km/h (4 Bft) O-NO 69 1 min 0,000 mm 4,7 UV-I 814 W/m 11,5 C 14,4 C 33,8 km/h (5 Bft) 100,00 %
10.05.2016 12:44 19,6 C 60 % 1009,3 hPa 0,0 l/m 23,5 km/h (4 Bft) O-NO 63 1 min 0,000 mm 4,8 UV-I 806 W/m 11,6 C 15,1 C 29,0 km/h (5 Bft) 95,83 %
10.05.2016 12:45 19,6 C 59 % 1009,3 hPa 0,0 l/m 30,1 km/h (5 Bft) O-NO 66 1 min 0,000 mm 4,7 UV-I 781 W/m 11,4 C 14,1 C 35,4 km/h (5 Bft) 100,00 %
10.05.2016 12:46 19,6 C 59 % 1009,3 hPa 0,0 l/m 22,8 km/h (4 Bft) NO 38 1 min 0,000 mm 4,7 UV-I 767 W/m 11,4 C 15,2 C 27,4 km/h (4 Bft) 95,24 %
10.05.2016 12:47 19,6 C 59 % 1009,3 hPa 0,0 l/m 25,2 km/h (4 Bft) O-NO 70 1 min 0,000 mm 4,8 UV-I 829 W/m 11,4 C 14,8 C 29,0 km/h (5 Bft) 96,88 %
10.05.2016 12:48 19,6 C 59 % 1009,3 hPa 0,0 l/m 29,0 km/h (5 Bft) O-NO 73 1 min 0,000 mm 4,8 UV-I 846 W/m 11,4 C 14,3 C 40,2 km/h (6 Bft) 100,00 %
10.05.2016 12:49 19,6 C 58 % 1009,3 hPa 0,0 l/m 25,4 km/h (4 Bft) NO 49 1 min 0,000 mm 4,6 UV-I 773 W/m 11,1 C 14,8 C 32,2 km/h (5 Bft) 98,67 %
10.05.2016 12:50 19,6 C 59 % 1009,3 hPa 0,0 l/m 28,2 km/h (4 Bft) O-NO 68 1 min 0,000 mm 4,5 UV-I 767 W/m 11,4 C 14,4 C 37,0 km/h (5 Bft) 97,87 %
10.05.2016 12:51 19,6 C 58 % 1009,3 hPa 0,0 l/m 23,3 km/h (4 Bft) NO 42 1 min 0,000 mm 4,6 UV-I 767 W/m 11,1 C 15,1 C 32,2 km/h (5 Bft) 95,65 %
10.05.2016 12:52 19,6 C 59 % 1009,3 hPa 0,0 l/m 20,0 km/h (4 Bft) NO 56 1 min 0,000 mm 4,7 UV-I 753 W/m 11,4 C 15,7 C 24,1 km/h (4 Bft) 100,00 %
10.05.2016 12:53 19,7 C 59 % 1009,3 hPa 0,0 l/m 17,5 km/h (3 Bft) O-NO 67 1 min 0,000 mm 4,9 UV-I 841 W/m 11,5 C 16,3 C 22,5 km/h (4 Bft) 100,00 %
10.05.2016 12:54 19,7 C 61 % 1009,3 hPa 0,0 l/m 25,7 km/h (4 Bft) O-NO 75 1 min 0,000 mm 5,0 UV-I 846 W/m 12,0 C 14,9 C 32,2 km/h (5 Bft) 96,30 %
10.05.2016 12:55 19,8 C 59 % 1009,3 hPa 0,0 l/m 27,7 km/h (4 Bft) O-NO 65 1 min 0,000 mm 4,9 UV-I 847 W/m 11,6 C 14,7 C 33,8 km/h (5 Bft) 100,00 %
10.05.2016 12:56 19,8 C 59 % 1009,3 hPa 0,0 l/m 21,1 km/h (4 Bft) O-NO 58 1 min 0,000 mm 4,9 UV-I 837 W/m 11,6 C 15,7 C 27,4 km/h (4 Bft) 100,00 %
10.05.2016 12:57 19,8 C 58 % 1009,3 hPa 0,0 l/m 30,0 km/h (5 Bft) O 88 1 min 0,000 mm 4,9 UV-I 824 W/m 11,3 C 14,4 C 38,6 km/h (5 Bft) 100,00 %
10.05.2016 12:58 19,8 C 58 % 1009,3 hPa 0,0 l/m 25,5 km/h (4 Bft) O-NO 69 1 min 0,000 mm 4,7 UV-I 781 W/m 11,3 C 15,0 C 32,2 km/h (5 Bft) 100,00 %
10.05.2016 12:59 19,8 C 60 % 1009,3 hPa 0,0 l/m 26,4 km/h (4 Bft) O 82 1 min 0,000 mm 4,4 UV-I 710 W/m 11,8 C 14,9 C 30,6 km/h (5 Bft) 100,00 %
10.05.2016 13:00 19,8 C 60 % 1009,2 hPa 0,0 l/m 25,3 km/h (4 Bft) O-NO 71 1 min 0,584 mm 3,9 UV-I 710 W/m 11,8 C 15,1 C 33,8 km/h (5 Bft) 100,00 %
10.05.2016 13:01 19,8 C 59 % 1009,2 hPa 0,0 l/m 25,9 km/h (4 Bft) O-NO 74 1 min 0,000 mm 3,8 UV-I 634 W/m 11,6 C 15,0 C 37,0 km/h (5 Bft) 100,00 %
10.05.2016 13:02 19,7 C 58 % 1009,2 hPa 0,0 l/m 27,4 km/h (4 Bft) NO 53 1 min 0,000 mm 4,0 UV-I 575 W/m 11,2 C 14,6 C 35,4 km/h (5 Bft) 100,00 %
10.05.2016 13:03 19,7 C 57 % 1009,2 hPa 0,0 l/m 28,1 km/h (4 Bft) O-NO 61 1 min 0,000 mm 3,9 UV-I 614 W/m 10,9 C 14,5 C 33,8 km/h (5 Bft) 96,30 %
10.05.2016 13:04 19,6 C 58 % 1009,2 hPa 0,0 l/m 22,3 km/h (4 Bft) NO 52 1 min 0,000 mm 3,6 UV-I 602 W/m 11,1 C 15,3 C 30,6 km/h (5 Bft) 100,00 %
10.05.2016 13:05 19,6 C 59 % 1009,2 hPa 0,0 l/m 25,3 km/h (4 Bft) NO 51 1 min 0,000 mm 3,5 UV-I 511 W/m 11,4 C 14,8 C 37,0 km/h (5 Bft) 100,00 %
10.05.2016 13:06 19,6 C 58 % 1009,1 hPa 0,0 l/m 26,2 km/h (4 Bft) O-NO 66 1 min 0,000 mm 3,6 UV-I 502 W/m 11,1 C 14,7 C 33,8 km/h (5 Bft) 100,00 %
10.05.2016 13:07 19,5 C 58 % 1009,2 hPa 0,0 l/m 24,4 km/h (4 Bft) NO 52 0 min 0,000 mm 3,5 UV-I 470 W/m 11,0 C 14,8 C 33,8 km/h (5 Bft) 100,00 %
10.05.2016 13:08 19,4 C 59 % 1009,1 hPa 0,0 l/m 25,8 km/h (4 Bft) NO 55 1 min 0,000 mm 3,6 UV-I 551 W/m 11,2 C 14,4 C 30,6 km/h (5 Bft) 100,00 %
10.05.2016 13:09 19,4 C 58 % 1009,1 hPa 0,0 l/m 27,0 km/h (4 Bft) O-NO 77 1 min 0,000 mm 3,7 UV-I 549 W/m 10,9 C 14,3 C 33,8 km/h (5 Bft) 100,00 %
10.05.2016 13:10 19,4 C 58 % 1009,1 hPa 0,0 l/m 25,5 km/h (4 Bft) O-NO 57 1 min 0,000 mm 3,7 UV-I 557 W/m 10,9 C 14,5 C 35,4 km/h (5 Bft) 100,00 %
10.05.2016 13:11 19,4 C 58 % 1009,1 hPa 0,0 l/m 23,0 km/h (4 Bft) O 84 1 min 0,000 mm 3,7 UV-I 543 W/m 10,9 C 14,9 C 32,2 km/h (5 Bft) 100,00 %
10.05.2016 13:12 19,4 C 58 % 1009,1 hPa 0,0 l/m 23,2 km/h (4 Bft) NO 50 1 min 0,000 mm 3,7 UV-I 527 W/m 10,9 C 14,9 C 30,6 km/h (5 Bft) 100,00 %
10.05.2016 13:13 19,4 C 59 % 1009,1 hPa 0,0 l/m 24,4 km/h (4 Bft) O-NO 61 1 min 0,000 mm 3,9 UV-I 576 W/m 11,2 C 14,7 C 33,8 km/h (5 Bft) 100,00 %
10.05.2016 13:14 19,4 C 59 % 1009,1 hPa 0,0 l/m 25,3 km/h (4 Bft) O-SO 103 1 min 0,000 mm 3,9 UV-I 609 W/m 11,2 C 14,5 C 30,6 km/h (5 Bft) 96,55 %
10.05.2016 13:15 19,4 C 60 % 1009,1 hPa 0,0 l/m 22,2 km/h (4 Bft) O 84 1 min 0,000 mm 3,9 UV-I 612 W/m 11,4 C 15,0 C 29,0 km/h (5 Bft) 100,00 %
10.05.2016 13:16 19,4 C 60 % 1009,1 hPa 0,0 l/m 22,8 km/h (4 Bft) O-NO 74 1 min 0,000 mm 3,7 UV-I 560 W/m 11,4 C 14,9 C 30,6 km/h (5 Bft) 100,00 %
10.05.2016 13:17 19,4 C 60 % 1009,0 hPa 0,0 l/m 23,3 km/h (4 Bft) O 101 1 min 0,000 mm 3,9 UV-I 602 W/m 11,4 C 14,8 C 32,2 km/h (5 Bft) 100,00 %
10.05.2016 13:18 19,4 C 60 % 1009,1 hPa 0,0 l/m 26,5 km/h (4 Bft) O-NO 58 1 min 0,000 mm 3,8 UV-I 602 W/m 11,4 C 14,3 C 33,8 km/h (5 Bft) 100,00 %
10.05.2016 13:19 19,5 C 59 % 1009,1 hPa 0,0 l/m 23,5 km/h (4 Bft) O-NO 74 1 min 0,000 mm 3,8 UV-I 596 W/m 11,3 C 14,9 C 30,6 km/h (5 Bft) 100,00 %
10.05.2016 13:20 19,5 C 61 % 1009,1 hPa 0,0 l/m 27,1 km/h (4 Bft) O 82 1 min 0,000 mm 3,7 UV-I 582 W/m 11,8 C 14,4 C 35,4 km/h (5 Bft) 100,00 %
10.05.2016 13:21 19,4 C 59 % 1009,1 hPa 0,0 l/m 25,3 km/h (4 Bft) O 94 1 min 0,000 mm 4,0 UV-I 640 W/m 11,2 C 14,5 C 33,8 km/h (5 Bft) 100,00 %
10.05.2016 13:22 19,4 C 59 % 1009,1 hPa 0,0 l/m 24,9 km/h (4 Bft) O-NO 76 1 min 0,000 mm 4,1 UV-I 673 W/m 11,2 C 14,6 C 32,2 km/h (5 Bft) 100,00 %
10.05.2016 13:23 19,5 C 59 % 1009,0 hPa 0,0 l/m 22,9 km/h (4 Bft) NO 55 1 min 0,000 mm 4,1 UV-I 684 W/m 11,3 C 15,0 C 30,6 km/h (5 Bft) 96,15 %
10.05.2016 13:24 19,5 C 59 % 1009,1 hPa 0,0 l/m 26,2 km/h (4 Bft) O 82 1 min 0,000 mm 4,1 UV-I 703 W/m 11,3 C 14,5 C 33,8 km/h (5 Bft) 100,00 %
10.05.2016 13:25 19,6 C 59 % 1009,1 hPa 0,0 l/m 17,0 km/h (3 Bft) O 92 1 min 0,000 mm 4,2 UV-I 730 W/m 11,4 C 16,3 C 24,1 km/h (4 Bft) 100,00 %
10.05.2016 13:26 19,6 C 60 % 1009,2 hPa 0,0 l/m 25,2 km/h (4 Bft) O-NO 71 1 min 0,000 mm 4,1 UV-I 689 W/m 11,6 C 14,8 C 30,6 km/h (5 Bft) 100,00 %
10.05.2016 13:27 19,6 C 60 % 1009,2 hPa 0,0 l/m 24,1 km/h (4 Bft) O-NO 78 1 min 0,000 mm 4,0 UV-I 649 W/m 11,6 C 15,0 C 30,6 km/h (5 Bft) 100,00 %
10.05.2016 13:28 19,7 C 59 % 1009,2 hPa 0,0 l/m 24,0 km/h (4 Bft) O-NO 60 1 min 0,000 mm 4,0 UV-I 629 W/m 11,5 C 15,1 C 30,6 km/h (5 Bft) 100,00 %
10.05.2016 13:29 19,7 C 58 % 1009,1 hPa 0,0 l/m 27,4 km/h (4 Bft) O 91 1 min 0,000 mm 4,0 UV-I 635 W/m 11,2 C 14,6 C 33,8 km/h (5 Bft) 100,00 %
10.05.2016 13:30 19,7 C 58 % 1009,1 hPa 0,0 l/m 23,0 km/h (4 Bft) O-NO 75 1 min 0,000 mm 4,0 UV-I 629 W/m 11,2 C 15,3 C 33,8 km/h (5 Bft) 100,00 %
10.05.2016 13:31 19,7 C 58 % 1009,1 hPa 0,0 l/m 24,3 km/h (4 Bft) O-NO 75 1 min 0,000 mm 3,9 UV-I 640 W/m 11,2 C 15,1 C 32,2 km/h (5 Bft) 100,00 %
10.05.2016 13:32 19,7 C 59 % 1009,1 hPa 0,0 l/m 23,7 km/h (4 Bft) O-NO 73 1 min 0,000 mm 3,9 UV-I 658 W/m 11,5 C 15,2 C 30,6 km/h (5 Bft) 100,00 %
10.05.2016 13:33 19,7 C 60 % 1009,1 hPa 0,0 l/m 22,5 km/h (4 Bft) O-NO 71 1 min 0,000 mm 4,0 UV-I 646 W/m 11,7 C 15,4 C 27,4 km/h (4 Bft) 100,00 %
10.05.2016 13:34 19,7 C 59 % 1009,1 hPa 0,0 l/m 17,7 km/h (3 Bft) O-NO 60 1 min 0,000 mm 4,0 UV-I 636 W/m 11,5 C 16,3 C 25,7 km/h (4 Bft) 91,67 %
10.05.2016 13:35 19,8 C 61 % 1009,0 hPa 0,0 l/m 20,0 km/h (4 Bft) NO 41 1 min 0,000 mm 3,8 UV-I 622 W/m 12,1 C 15,9 C 27,4 km/h (4 Bft) 100,00 %
10.05.2016 13:36 19,8 C 61 % 1009,0 hPa 0,0 l/m 23,8 km/h (4 Bft) O 90 1 min 0,000 mm 4,0 UV-I 676 W/m 12,1 C 15,3 C 27,4 km/h (4 Bft) 100,00 %
10.05.2016 13:37 19,8 C 59 % 1009,1 hPa 0,0 l/m 21,1 km/h (4 Bft) NO 48 1 min 0,000 mm 4,0 UV-I 667 W/m 11,6 C 15,7 C 25,7 km/h (4 Bft) 100,00 %
10.05.2016 13:38 19,9 C 58 % 1009,0 hPa 0,0 l/m 20,4 km/h (4 Bft) O-NO 58 1 min 0,000 mm 4,1 UV-I 664 W/m 11,4 C 16,0 C 24,1 km/h (4 Bft) 98,73 %
10.05.2016 13:39 19,9 C 60 % 1009,0 hPa 0,0 l/m 17,8 km/h (3 Bft) O-NO 63 1 min 0,000 mm 4,1 UV-I 681 W/m 11,9 C 16,5 C 20,9 km/h (4 Bft) 97,62 %
10.05.2016 13:40 19,9 C 59 % 1009,0 hPa 0,0 l/m 23,5 km/h (4 Bft) SO 124 1 min 0,000 mm 4,1 UV-I 693 W/m 11,6 C 15,5 C 30,6 km/h (5 Bft) 100,00 %
10.05.2016 13:41 19,9 C 58 % 1009,0 hPa 0,0 l/m 19,2 km/h (3 Bft) O-NO 70 1 min 0,000 mm 4,0 UV-I 669 W/m 11,4 C 16,2 C 33,8 km/h (5 Bft) 100,00 %
10.05.2016 13:42 19,9 C 59 % 1009,1 hPa 0,0 l/m 21,5 km/h (4 Bft) O-NO 63 1 min 0,000 mm 3,9 UV-I 649 W/m 11,6 C 15,8 C 29,0 km/h (5 Bft) 93,10 %
10.05.2016 13:43 19,9 C 60 % 1009,0 hPa 0,0 l/m 16,3 km/h (3 Bft) NO 46 1 min 0,000 mm 4,0 UV-I 676 W/m 11,9 C 16,8 C 24,1 km/h (4 Bft) 100,00 %
10.05.2016 13:44 19,9 C 59 % 1009,0 hPa 0,0 l/m 18,6 km/h (3 Bft) NO 53 1 min 0,000 mm 4,0 UV-I 648 W/m 11,6 C 16,3 C 22,5 km/h (4 Bft) 100,00 %
10.05.2016 13:45 19,9 C 59 % 1009,0 hPa 0,0 l/m 18,0 km/h (3 Bft) N-NO 31 1 min 0,000 mm 3,9 UV-I 664 W/m 11,6 C 16,5 C 20,9 km/h (4 Bft) 100,00 %
10.05.2016 13:46 19,9 C 59 % 1009,0 hPa 0,0 l/m 15,8 km/h (3 Bft) O-NO 65 1 min 0,000 mm 3,6 UV-I 588 W/m 11,6 C 16,9 C 19,3 km/h (3 Bft) 100,00 %
10.05.2016 13:47 19,9 C 61 % 1009,0 hPa 0,0 l/m 19,1 km/h (3 Bft) O 99 1 min 0,000 mm 3,2 UV-I 469 W/m 12,2 C 16,2 C 27,4 km/h (4 Bft) 100,00 %
10.05.2016 13:48 19,9 C 58 % 1009,0 hPa 0,0 l/m 25,9 km/h (4 Bft) O-NO 71 0 min 0,000 mm 3,2 UV-I 449 W/m 11,4 C 15,1 C 33,8 km/h (5 Bft) 95,65 %
10.05.2016 13:49 19,9 C 59 % 1009,0 hPa 0,0 l/m 22,1 km/h (4 Bft) NO 46 0 min 0,000 mm 3,2 UV-I 417 W/m 11,6 C 15,7 C 25,7 km/h (4 Bft) 100,00 %
10.05.2016 13:50 19,9 C 59 % 1009,0 hPa 0,0 l/m 23,2 km/h (4 Bft) NO 51 0 min 0,000 mm 3,0 UV-I 401 W/m 11,6 C 15,5 C 29,0 km/h (5 Bft) 100,00 %
10.05.2016 13:51 19,8 C 59 % 1008,9 hPa 0,0 l/m 23,7 km/h (4 Bft) O 80 0 min 0,000 mm 3,1 UV-I 423 W/m 11,6 C 15,3 C 32,2 km/h (5 Bft) 100,00 %
10.05.2016 13:52 19,8 C 59 % 1009,0 hPa 0,0 l/m 24,4 km/h (4 Bft) O 90 1 min 0,000 mm 3,3 UV-I 475 W/m 11,6 C 15,2 C 30,6 km/h (5 Bft) 100,00 %
10.05.2016 13:53 19,8 C 59 % 1009,0 hPa 0,0 l/m 21,6 km/h (4 Bft) NO 45 1 min 0,000 mm 3,2 UV-I 480 W/m 11,6 C 15,7 C 27,4 km/h (4 Bft) 100,00 %
10.05.2016 13:54 19,8 C 59 % 1008,9 hPa 0,0 l/m 19,2 km/h (3 Bft) O-NO 74 1 min 0,000 mm 3,2 UV-I 481 W/m 11,6 C 16,1 C 27,4 km/h (4 Bft) 100,00 %
10.05.2016 13:55 19,8 C 59 % 1009,0 hPa 0,0 l/m 18,9 km/h (3 Bft) O-NO 62 0 min 0,000 mm 3,1 UV-I 459 W/m 11,6 C 16,2 C 25,7 km/h (4 Bft) 95,83 %
10.05.2016 13:56 19,7 C 59 % 1009,0 hPa 0,0 l/m 22,0 km/h (4 Bft) O-NO 60 0 min 0,000 mm 3,0 UV-I 424 W/m 11,5 C 15,5 C 30,6 km/h (5 Bft) 100,00 %
10.05.2016 13:57 19,7 C 58 % 1008,9 hPa 0,0 l/m 25,9 km/h (4 Bft) NO 42 0 min 0,000 mm 3,0 UV-I 406 W/m 11,2 C 14,8 C 33,8 km/h (5 Bft) 100,00 %
10.05.2016 13:58 19,7 C 58 % 1008,9 hPa 0,0 l/m 30,2 km/h (5 Bft) O-NO 74 0 min 0,000 mm 2,8 UV-I 386 W/m 11,2 C 14,3 C 43,5 km/h (6 Bft) 100,00 %
10.05.2016 13:59 19,6 C 58 % 1009,0 hPa 0,0 l/m 27,1 km/h (4 Bft) NO 55 0 min 0,000 mm 2,9 UV-I 410 W/m 11,1 C 14,5 C 33,8 km/h (5 Bft) 100,00 %
10.05.2016 14:00 19,6 C 59 % 1008,9 hPa 0,0 l/m 26,7 km/h (4 Bft) NO 56 0 min 0,000 mm 2,9 UV-I 416 W/m 11,4 C 14,6 C 35,4 km/h (5 Bft) 96,55 %
10.05.2016 14:01 19,6 C 58 % 1008,9 hPa 0,0 l/m 28,7 km/h (4 Bft) NO 40 0 min 0,458 mm 2,8 UV-I 401 W/m 11,1 C 14,3 C 37,0 km/h (5 Bft) 83,33 %
10.05.2016 14:02 19,6 C 59 % 1008,9 hPa 0,0 l/m 30,9 km/h (5 Bft) O 81 0 min 0,000 mm 2,8 UV-I 388 W/m 11,4 C 14,0 C 37,0 km/h (5 Bft) 100,00 %
10.05.2016 14:03 19,5 C 58 % 1008,9 hPa 0,0 l/m 25,2 km/h (4 Bft) NO 40 0 min 0,000 mm 2,8 UV-I 394 W/m 11,0 C 14,7 C 33,8 km/h (5 Bft) 100,00 %
10.05.2016 14:04 19,5 C 59 % 1008,9 hPa 0,0 l/m 22,5 km/h (4 Bft) O-NO 76 0 min 0,000 mm 3,1 UV-I 453 W/m 11,3 C 15,1 C 29,0 km/h (5 Bft) 100,00 %
10.05.2016 14:05 19,5 C 59 % 1009,0 hPa 0,0 l/m 26,7 km/h (4 Bft) NO 46 0 min 0,000 mm 3,0 UV-I 454 W/m 11,3 C 14,5 C 32,2 km/h (5 Bft) 100,00 %
10.05.2016 14:06 19,4 C 59 % 1009,0 hPa 0,0 l/m 27,4 km/h (4 Bft) O-NO 78 0 min 0,000 mm 3,0 UV-I 433 W/m 11,2 C 14,2 C 35,4 km/h (5 Bft) 100,00 %
10.05.2016 14:07 19,4 C 59 % 1009,0 hPa 0,0 l/m 22,0 km/h (4 Bft) O-NO 71 0 min 0,000 mm 3,0 UV-I 434 W/m 11,2 C 15,1 C 29,0 km/h (5 Bft) 100,00 %
10.05.2016 14:08 19,4 C 59 % 1008,9 hPa 0,0 l/m 23,5 km/h (4 Bft) O-NO 61 1 min 0,000 mm 3,1 UV-I 497 W/m 11,2 C 14,8 C 32,2 km/h (5 Bft) 100,00 %
10.05.2016 14:09 19,4 C 59 % 1008,9 hPa 0,0 l/m 24,1 km/h (4 Bft) O 79 1 min 0,000 mm 3,1 UV-I 502 W/m 11,2 C 14,7 C 30,6 km/h (5 Bft) 98,74 %
10.05.2016 14:10 19,4 C 60 % 1008,9 hPa 0,0 l/m 21,5 km/h (4 Bft) O-NO 68 1 min 0,000 mm 3,1 UV-I 495 W/m 11,4 C 15,2 C 29,0 km/h (5 Bft) 100,00 %
10.05.2016 14:11 19,5 C 60 % 1008,9 hPa 0,0 l/m 21,6 km/h (4 Bft) O-NO 65 1 min 0,000 mm 3,1 UV-I 482 W/m 11,5 C 15,3 C 25,7 km/h (4 Bft) 100,00 %
10.05.2016 14:12 19,5 C 61 % 1008,8 hPa 0,0 l/m 16,9 km/h (3 Bft) O-NO 64 1 min 0,000 mm 3,0 UV-I 478 W/m 11,8 C 16,2 C 27,4 km/h (4 Bft) 100,00 %
10.05.2016 14:13 19,6 C 60 % 1008,9 hPa 0,0 l/m 20,5 km/h (4 Bft) O-NO 66 1 min 0,000 mm 3,0 UV-I 476 W/m 11,6 C 15,6 C 30,6 km/h (5 Bft) 96,15 %
10.05.2016 14:14 19,6 C 60 % 1008,8 hPa 0,0 l/m 16,7 km/h (3 Bft) NO 40 1 min 0,000 mm 3,0 UV-I 476 W/m 11,6 C 16,4 C 20,9 km/h (4 Bft) 96,30 %
10.05.2016 14:15 19,6 C 61 % 1008,8 hPa 0,0 l/m 20,6 km/h (4 Bft) O-NO 68 1 min 0,000 mm 3,0 UV-I 488 W/m 11,9 C 15,6 C 29,0 km/h (5 Bft) 100,00 %
10.05.2016 14:16 19,6 C 60 % 1008,8 hPa 0,0 l/m 21,6 km/h (4 Bft) O-NO 65 1 min 0,000 mm 3,0 UV-I 492 W/m 11,6 C 15,4 C 30,6 km/h (5 Bft) 96,88 %
10.05.2016 14:17 19,7 C 61 % 1008,8 hPa 0,0 l/m 28,0 km/h (4 Bft) O-NO 65 1 min 0,000 mm 3,0 UV-I 494 W/m 12,0 C 14,6 C 35,4 km/h (5 Bft) 96,15 %
10.05.2016 14:18 19,7 C 60 % 1008,8 hPa 0,0 l/m 21,2 km/h (4 Bft) NO 51 1 min 0,000 mm 3,0 UV-I 490 W/m 11,7 C 15,6 C 32,2 km/h (5 Bft) 96,30 %
10.05.2016 14:19 19,7 C 59 % 1008,8 hPa 0,0 l/m 30,1 km/h (5 Bft) NO 44 1 min 0,000 mm 2,9 UV-I 476 W/m 11,5 C 14,3 C 35,4 km/h (5 Bft) 100,00 %
10.05.2016 14:20 19,7 C 59 % 1008,8 hPa 0,0 l/m 26,6 km/h (4 Bft) O-NO 69 1 min 0,000 mm 2,9 UV-I 471 W/m 11,5 C 14,7 C 32,2 km/h (5 Bft) 100,00 %
10.05.2016 14:21 19,7 C 59 % 1008,8 hPa 0,0 l/m 26,4 km/h (4 Bft) NO 51 1 min 0,000 mm 2,9 UV-I 469 W/m 11,5 C 14,8 C 32,2 km/h (5 Bft) 96,30 %
10.05.2016 14:22 19,7 C 59 % 1008,8 hPa 0,0 l/m 30,8 km/h (5 Bft) O-NO 66 0 min 0,000 mm 2,8 UV-I 446 W/m 11,5 C 14,2 C 41,8 km/h (6 Bft) 94,12 %
10.05.2016 14:23 19,7 C 60 % 1008,8 hPa 0,0 l/m 27,3 km/h (4 Bft) O-NO 70 1 min 0,000 mm 2,8 UV-I 454 W/m 11,7 C 14,6 C 38,6 km/h (5 Bft) 100,00 %
10.05.2016 14:24 19,7 C 59 % 1008,8 hPa 0,0 l/m 22,7 km/h (4 Bft) O-NO 65 1 min 0,000 mm 2,8 UV-I 457 W/m 11,5 C 15,3 C 33,8 km/h (5 Bft) 96,15 %
10.05.2016 14:25 19,7 C 59 % 1008,8 hPa 0,0 l/m 27,7 km/h (4 Bft) O-NO 59 1 min 0,000 mm 2,8 UV-I 455 W/m 11,5 C 14,6 C 35,4 km/h (5 Bft) 100,00 %
10.05.2016 14:26 19,6 C 59 % 1008,8 hPa 0,0 l/m 25,2 km/h (4 Bft) O-NO 74 0 min 0,000 mm 2,7 UV-I 444 W/m 11,4 C 14,8 C 32,2 km/h (5 Bft) 95,65 %
10.05.2016 14:27 19,6 C 59 % 1008,8 hPa 0,0 l/m 26,1 km/h (4 Bft) O-NO 57 1 min 0,000 mm 2,7 UV-I 446 W/m 11,4 C 14,7 C 32,2 km/h (5 Bft) 96,67 %
10.05.2016 14:28 19,6 C 60 % 1008,8 hPa 0,0 l/m 27,4 km/h (4 Bft) O-NO 72 0 min 0,000 mm 2,7 UV-I 440 W/m 11,6 C 14,5 C 32,2 km/h (5 Bft) 100,00 %
10.05.2016 14:29 19,6 C 59 % 1008,7 hPa 0,0 l/m 22,5 km/h (4 Bft) O-NO 57 0 min 0,000 mm 2,7 UV-I 439 W/m 11,4 C 15,2 C 32,2 km/h (5 Bft) 100,00 %
10.05.2016 14:30 19,6 C 59 % 1008,8 hPa 0,0 l/m 25,4 km/h (4 Bft) O-NO 67 0 min 0,000 mm 2,7 UV-I 441 W/m 11,4 C 14,8 C 33,8 km/h (5 Bft) 96,15 %
10.05.2016 14:31 19,6 C 59 % 1008,8 hPa 0,0 l/m 29,4 km/h (5 Bft) O-NO 74 0 min 0,000 mm 2,7 UV-I 437 W/m 11,4 C 14,2 C 33,8 km/h (5 Bft) 95,83 %
10.05.2016 14:32 19,6 C 60 % 1008,8 hPa 0,0 l/m 25,2 km/h (4 Bft) O-NO 58 1 min 0,000 mm 2,7 UV-I 443 W/m 11,6 C 14,8 C 33,8 km/h (5 Bft) 100,00 %
10.05.2016 14:33 19,6 C 61 % 1008,8 hPa 0,0 l/m 25,4 km/h (4 Bft) NO 42 0 min 0,000 mm 2,7 UV-I 439 W/m 11,9 C 14,8 C 30,6 km/h (5 Bft) 86,67 %
10.05.2016 14:34 19,6 C 59 % 1008,8 hPa 0,0 l/m 24,0 km/h (4 Bft) O 79 0 min 0,000 mm 2,6 UV-I 439 W/m 11,4 C 15,0 C 29,0 km/h (5 Bft) 100,00 %
10.05.2016 14:35 19,6 C 60 % 1008,8 hPa 0,0 l/m 22,6 km/h (4 Bft) O-NO 62 1 min 0,000 mm 2,6 UV-I 446 W/m 11,6 C 15,2 C 30,6 km/h (5 Bft) 93,10 %
10.05.2016 14:36 19,6 C 60 % 1008,8 hPa 0,0 l/m 25,3 km/h (4 Bft) O-NO 76 1 min 0,000 mm 2,6 UV-I 449 W/m 11,6 C 14,8 C 37,0 km/h (5 Bft) 96,55 %
10.05.2016 14:37 19,6 C 58 % 1008,8 hPa 0,0 l/m 29,0 km/h (5 Bft) O-SO 112 0 min 0,000 mm 2,6 UV-I 436 W/m 11,1 C 14,3 C 38,6 km/h (5 Bft) 100,00 %
10.05.2016 14:38 19,6 C 59 % 1008,7 hPa 0,0 l/m 19,8 km/h (3 Bft) NO 56 0 min 0,000 mm 2,5 UV-I 433 W/m 11,4 C 15,7 C 32,2 km/h (5 Bft) 97,14 %
10.05.2016 14:39 19,6 C 60 % 1008,8 hPa 0,0 l/m 24,7 km/h (4 Bft) O 89 1 min 0,000 mm 2,6 UV-I 444 W/m 11,6 C 14,9 C 29,0 km/h (5 Bft) 100,00 %
10.05.2016 14:40 19,5 C 61 % 1008,7 hPa 0,0 l/m 20,7 km/h (4 Bft) O 93 1 min 0,000 mm 2,6 UV-I 448 W/m 11,8 C 15,4 C 27,4 km/h (4 Bft) 93,33 %
10.05.2016 14:41 19,5 C 60 % 1008,7 hPa 0,0 l/m 20,6 km/h (4 Bft) O-NO 59 1 min 0,000 mm 2,6 UV-I 450 W/m 11,5 C 15,4 C 29,0 km/h (5 Bft) 95,65 %
10.05.2016 14:42 19,5 C 61 % 1008,7 hPa 0,0 l/m 23,3 km/h (4 Bft) NO 51 0 min 0,000 mm 2,5 UV-I 420 W/m 11,8 C 15,0 C 33,8 km/h (5 Bft) 95,24 %
10.05.2016 14:43 19,6 C 60 % 1008,7 hPa 0,0 l/m 29,6 km/h (5 Bft) O-NO 61 0 min 0,000 mm 2,4 UV-I 411 W/m 11,6 C 14,2 C 35,4 km/h (5 Bft) 96,15 %
10.05.2016 14:44 19,6 C 59 % 1008,7 hPa 0,0 l/m 21,8 km/h (4 Bft) O-NO 70 0 min 0,000 mm 2,4 UV-I 414 W/m 11,4 C 15,4 C 30,6 km/h (5 Bft) 100,00 %
10.05.2016 14:45 19,6 C 60 % 1008,7 hPa 0,0 l/m 24,2 km/h (4 Bft) O-NO 62 0 min 0,000 mm 2,5 UV-I 427 W/m 11,6 C 15,0 C 35,4 km/h (5 Bft) 100,00 %
10.05.2016 14:46 19,6 C 59 % 1008,7 hPa 0,0 l/m 30,7 km/h (5 Bft) O 82 0 min 0,000 mm 2,4 UV-I 426 W/m 11,4 C 14,1 C 40,2 km/h (6 Bft) 100,00 %
10.05.2016 14:47 19,5 C 59 % 1008,7 hPa 0,0 l/m 24,5 km/h (4 Bft) O 86 0 min 0,000 mm 2,4 UV-I 423 W/m 11,3 C 14,8 C 29,0 km/h (5 Bft) 100,00 %
10.05.2016 14:48 19,5 C 60 % 1008,7 hPa 0,0 l/m 20,7 km/h (4 Bft) O-NO 76 0 min 0,000 mm 2,4 UV-I 420 W/m 11,5 C 15,4 C 25,7 km/h (4 Bft) 100,00 %
10.05.2016 14:49 19,5 C 60 % 1008,7 hPa 0,0 l/m 23,9 km/h (4 Bft) O-NO 61 0 min 0,000 mm 2,4 UV-I 420 W/m 11,5 C 14,9 C 29,0 km/h (5 Bft) 100,00 %
10.05.2016 14:50 19,5 C 59 % 1008,7 hPa 0,0 l/m 25,1 km/h (4 Bft) NO 46 0 min 0,000 mm 2,4 UV-I 418 W/m 11,3 C 14,7 C 30,6 km/h (5 Bft) 100,00 %
10.05.2016 14:51 19,5 C 59 % 1008,7 hPa 0,0 l/m 25,2 km/h (4 Bft) O-NO 65 0 min 0,000 mm 2,4 UV-I 420 W/m 11,3 C 14,7 C 33,8 km/h (5 Bft) 96,15 %
10.05.2016 14:52 19,5 C 59 % 1008,6 hPa 0,0 l/m 24,7 km/h (4 Bft) NO 53 0 min 0,000 mm 2,4 UV-I 421 W/m 11,3 C 14,8 C 30,6 km/h (5 Bft) 100,00 %
10.05.2016 14:53 19,5 C 59 % 1008,7 hPa 0,0 l/m 23,3 km/h (4 Bft) NO 47 0 min 0,000 mm 2,3 UV-I 420 W/m 11,3 C 15,0 C 30,6 km/h (5 Bft) 100,00 %
10.05.2016 14:54 19,5 C 60 % 1008,6 hPa 0,0 l/m 21,1 km/h (4 Bft) O-SO 104 0 min 0,000 mm 2,3 UV-I 418 W/m 11,5 C 15,4 C 27,4 km/h (4 Bft) 100,00 %
10.05.2016 14:55 19,5 C 60 % 1008,7 hPa 0,0 l/m 24,1 km/h (4 Bft) O-NO 71 0 min 0,000 mm 2,3 UV-I 413 W/m 11,5 C 14,8 C 35,4 km/h (5 Bft) 100,00 %
10.05.2016 14:56 19,5 C 60 % 1008,6 hPa 0,0 l/m 26,4 km/h (4 Bft) O-NO 62 0 min 0,000 mm 2,3 UV-I 413 W/m 11,5 C 14,5 C 35,4 km/h (5 Bft) 100,00 %
10.05.2016 14:57 19,5 C 60 % 1008,6 hPa 0,0 l/m 22,0 km/h (4 Bft) O-NO 67 0 min 0,000 mm 2,3 UV-I 408 W/m 11,5 C 15,2 C 30,6 km/h (5 Bft) 100,00 %
10.05.2016 14:58 19,5 C 60 % 1008,6 hPa 0,0 l/m 16,7 km/h (3 Bft) O 92 0 min 0,000 mm 2,3 UV-I 406 W/m 11,5 C 16,2 C 20,9 km/h (4 Bft) 100,00 %
10.05.2016 14:59 19,5 C 59 % 1008,6 hPa 0,0 l/m 22,5 km/h (4 Bft) O-NO 77 0 min 0,000 mm 2,2 UV-I 402 W/m 11,3 C 15,1 C 33,8 km/h (5 Bft) 100,00 %
10.05.2016 15:00 19,5 C 60 % 1008,6 hPa 0,0 l/m 22,0 km/h (4 Bft) O 82 0 min 0,000 mm 2,2 UV-I 401 W/m 11,5 C 15,2 C 27,4 km/h (4 Bft) 100,00 %
10.05.2016 15:01 19,5 C 60 % 1008,6 hPa 0,0 l/m 21,0 km/h (4 Bft) O-NO 65 0 min 0,381 mm 2,2 UV-I 399 W/m 11,5 C 15,4 C 25,7 km/h (4 Bft) 100,00 %
10.05.2016 15:02 19,5 C 61 % 1008,6 hPa 0,0 l/m 16,5 km/h (3 Bft) O-NO 63 0 min 0,000 mm 2,2 UV-I 397 W/m 11,8 C 16,3 C 22,5 km/h (4 Bft) 100,00 %
10.05.2016 15:03 19,6 C 61 % 1008,6 hPa 0,0 l/m 19,9 km/h (4 Bft) NO 55 0 min 0,000 mm 2,2 UV-I 396 W/m 11,9 C 15,7 C 25,7 km/h (4 Bft) 100,00 %
10.05.2016 15:04 19,6 C 61 % 1008,6 hPa 0,0 l/m 18,1 km/h (3 Bft) O-NO 65 0 min 0,000 mm 2,2 UV-I 396 W/m 11,9 C 16,1 C 22,5 km/h (4 Bft) 100,00 %
10.05.2016 15:05 19,6 C 60 % 1008,6 hPa 0,0 l/m 25,3 km/h (4 Bft) O 80 0 min 0,000 mm 2,2 UV-I 396 W/m 11,6 C 14,8 C 30,6 km/h (5 Bft) 100,00 %
10.05.2016 15:06 19,6 C 60 % 1008,6 hPa 0,0 l/m 21,5 km/h (4 Bft) O-NO 69 0 min 0,000 mm 2,1 UV-I 396 W/m 11,6 C 15,4 C 32,2 km/h (5 Bft) 100,00 %
10.05.2016 15:07 19,6 C 59 % 1008,6 hPa 0,0 l/m 23,7 km/h (4 Bft) O 92 0 min 0,000 mm 2,1 UV-I 396 W/m 11,4 C 15,0 C 30,6 km/h (5 Bft) 96,67 %
10.05.2016 15:08 19,6 C 61 % 1008,6 hPa 0,0 l/m 15,3 km/h (3 Bft) O 92 0 min 0,000 mm 2,1 UV-I 396 W/m 11,9 C 16,7 C 22,5 km/h (4 Bft) 100,00 %
10.05.2016 15:09 19,6 C 62 % 1008,6 hPa 0,0 l/m 17,8 km/h (3 Bft) O-NO 65 0 min 0,000 mm 2,1 UV-I 396 W/m 12,1 C 16,1 C 27,4 km/h (4 Bft) 97,22 %
10.05.2016 15:10 19,6 C 60 % 1008,6 hPa 0,0 l/m 22,6 km/h (4 Bft) O-SO 106 0 min 0,000 mm 2,1 UV-I 395 W/m 11,6 C 15,2 C 25,7 km/h (4 Bft) 100,00 %
10.05.2016 15:11 19,6 C 60 % 1008,6 hPa 0,0 l/m 21,1 km/h (4 Bft) O-NO 59 0 min 0,000 mm 2,1 UV-I 389 W/m 11,6 C 15,5 C 30,6 km/h (5 Bft) 100,00 %
10.05.2016 15:12 19,5 C 60 % 1008,6 hPa 0,0 l/m 25,8 km/h (4 Bft) O-NO 73 0 min 0,000 mm 2,1 UV-I 388 W/m 11,5 C 14,6 C 35,4 km/h (5 Bft) 100,00 %
10.05.2016 15:13 19,5 C 61 % 1008,6 hPa 0,0 l/m 24,7 km/h (4 Bft) O-NO 60 0 min 0,000 mm 2,0 UV-I 383 W/m 11,8 C 14,8 C 32,2 km/h (5 Bft) 100,00 %
10.05.2016 15:14 19,4 C 60 % 1008,6 hPa 0,0 l/m 23,7 km/h (4 Bft) O-NO 69 0 min 0,000 mm 2,0 UV-I 380 W/m 11,4 C 14,8 C 29,0 km/h (5 Bft) 100,00 %
10.05.2016 15:15 19,4 C 60 % 1008,6 hPa 0,0 l/m 23,7 km/h (4 Bft) O-NO 59 0 min 0,000 mm 2,0 UV-I 376 W/m 11,4 C 14,8 C 29,0 km/h (5 Bft) 100,00 %
10.05.2016 15:16 19,4 C 61 % 1008,6 hPa 0,0 l/m 22,9 km/h (4 Bft) O-NO 66 0 min 0,000 mm 2,0 UV-I 370 W/m 11,7 C 14,9 C 33,8 km/h (5 Bft) 100,00 %
10.05.2016 15:17 19,4 C 60 % 1008,6 hPa 0,0 l/m 20,2 km/h (4 Bft) O 87 0 min 0,000 mm 2,0 UV-I 365 W/m 11,4 C 15,4 C 32,2 km/h (5 Bft) 100,00 %
10.05.2016 15:18 19,4 C 61 % 1008,6 hPa 0,0 l/m 22,1 km/h (4 Bft) O-NO 69 0 min 0,000 mm 1,9 UV-I 360 W/m 11,7 C 15,0 C 32,2 km/h (5 Bft) 100,00 %
10.05.2016 15:19 19,4 C 60 % 1008,5 hPa 0,0 l/m 20,2 km/h (4 Bft) O-NO 69 0 min 0,000 mm 1,9 UV-I 359 W/m 11,4 C 15,4 C 27,4 km/h (4 Bft) 100,00 %
10.05.2016 15:20 19,4 C 60 % 1008,6 hPa 0,0 l/m 16,3 km/h (3 Bft) O-NO 73 0 min 0,000 mm 1,9 UV-I 355 W/m 11,4 C 16,2 C 22,5 km/h (4 Bft) 100,00 %
10.05.2016 15:21 19,5 C 61 % 1008,6 hPa 0,0 l/m 20,9 km/h (4 Bft) O 81 0 min 0,000 mm 1,9 UV-I 351 W/m 11,8 C 15,4 C 27,4 km/h (4 Bft) 100,00 %
10.05.2016 15:22 19,4 C 61 % 1008,6 hPa 0,0 l/m 20,5 km/h (4 Bft) O-NO 72 0 min 0,000 mm 1,9 UV-I 349 W/m 11,7 C 15,3 C 24,1 km/h (4 Bft) 100,00 %
10.05.2016 15:23 19,4 C 61 % 1008,6 hPa 0,0 l/m 17,9 km/h (3 Bft) NO 34 0 min 0,000 mm 1,9 UV-I 347 W/m 11,7 C 15,9 C 25,7 km/h (4 Bft) 100,00 %
10.05.2016 15:24 19,5 C 61 % 1008,6 hPa 0,0 l/m 19,8 km/h (3 Bft) NO 42 0 min 0,000 mm 1,8 UV-I 345 W/m 11,8 C 15,6 C 25,7 km/h (4 Bft) 100,00 %
10.05.2016 15:25 19,5 C 60 % 1008,5 hPa 0,0 l/m 19,1 km/h (3 Bft) O 98 0 min 0,000 mm 1,8 UV-I 342 W/m 11,5 C 15,7 C 25,7 km/h (4 Bft) 100,00 %
10.05.2016 15:26 19,5 C 62 % 1008,6 hPa 0,0 l/m 23,3 km/h (4 Bft) O-SO 103 0 min 0,000 mm 1,8 UV-I 340 W/m 12,0 C 15,0 C 29,0 km/h (5 Bft) 100,00 %
10.05.2016 15:27 19,5 C 60 % 1008,6 hPa 0,0 l/m 23,5 km/h (4 Bft) O-NO 78 0 min 0,000 mm 1,8 UV-I 337 W/m 11,5 C 14,9 C 32,2 km/h (5 Bft) 100,00 %
10.05.2016 15:28 19,5 C 61 % 1008,6 hPa 0,0 l/m 23,2 km/h (4 Bft) O-NO 68 0 min 0,000 mm 1,8 UV-I 334 W/m 11,8 C 15,0 C 29,0 km/h (5 Bft) 100,00 %
10.05.2016 15:29 19,4 C 60 % 1008,6 hPa 0,0 l/m 24,0 km/h (4 Bft) O-NO 69 0 min 0,000 mm 1,8 UV-I 332 W/m 11,4 C 14,7 C 30,6 km/h (5 Bft) 100,00 %
10.05.2016 15:30 19,4 C 60 % 1008,6 hPa 0,0 l/m 20,4 km/h (4 Bft) O-NO 69 0 min 0,000 mm 1,8 UV-I 330 W/m 11,4 C 15,4 C 25,7 km/h (4 Bft) 100,00 %
10.05.2016 15:31 19,4 C 61 % 1008,6 hPa 0,0 l/m 22,4 km/h (4 Bft) O 89 0 min 0,000 mm 1,8 UV-I 330 W/m 11,7 C 15,0 C 29,0 km/h (5 Bft) 100,00 %
10.05.2016 15:32 19,4 C 61 % 1008,6 hPa 0,0 l/m 22,6 km/h (4 Bft) O-NO 67 0 min 0,000 mm 1,7 UV-I 326 W/m 11,7 C 15,0 C 32,2 km/h (5 Bft) 100,00 %
10.05.2016 15:33 19,4 C 61 % 1008,5 hPa 0,0 l/m 22,2 km/h (4 Bft) O-NO 78 0 min 0,000 mm 1,7 UV-I 324 W/m 11,7 C 15,0 C 32,2 km/h (5 Bft) 96,15 %
10.05.2016 15:34 19,4 C 61 % 1008,5 hPa 0,0 l/m 23,3 km/h (4 Bft) O-NO 71 0 min 0,000 mm 1,7 UV-I 323 W/m 11,7 C 14,8 C 29,0 km/h (5 Bft) 93,33 %
10.05.2016 15:35 19,4 C 61 % 1008,6 hPa 0,0 l/m 21,6 km/h (4 Bft) O-NO 61 0 min 0,000 mm 1,7 UV-I 322 W/m 11,7 C 15,1 C 30,6 km/h (5 Bft) 100,00 %
10.05.2016 15:36 19,4 C 61 % 1008,6 hPa 0,0 l/m 21,5 km/h (4 Bft) O-NO 77 0 min 0,000 mm 1,7 UV-I 318 W/m 11,7 C 15,2 C 25,7 km/h (4 Bft) 100,00 %
10.05.2016 15:37 19,4 C 61 % 1008,6 hPa 0,0 l/m 23,5 km/h (4 Bft) O-NO 63 0 min 0,000 mm 1,7 UV-I 318 W/m 11,7 C 14,8 C 30,6 km/h (5 Bft) 100,00 %
10.05.2016 15:38 19,3 C 61 % 1008,5 hPa 0,0 l/m 22,0 km/h (4 Bft) O 82 0 min 0,000 mm 1,7 UV-I 316 W/m 11,6 C 14,9 C 30,6 km/h (5 Bft) 98,74 %
10.05.2016 15:39 19,3 C 61 % 1008,6 hPa 0,0 l/m 19,3 km/h (3 Bft) O-NO 60 0 min 0,000 mm 1,7 UV-I 315 W/m 11,6 C 15,4 C 32,2 km/h (5 Bft) 95,45 %
10.05.2016 15:40 19,4 C 61 % 1008,6 hPa 0,0 l/m 23,1 km/h (4 Bft) O-NO 59 0 min 0,000 mm 1,6 UV-I 316 W/m 11,7 C 14,9 C 29,0 km/h (5 Bft) 95,65 %
10.05.2016 15:41 19,3 C 60 % 1008,5 hPa 0,0 l/m 23,7 km/h (4 Bft) O-NO 62 0 min 0,000 mm 1,6 UV-I 315 W/m 11,3 C 14,6 C 27,4 km/h (4 Bft) 100,00 %
10.05.2016 15:42 19,3 C 60 % 1008,6 hPa 0,0 l/m 21,4 km/h (4 Bft) O-NO 62 0 min 0,000 mm 1,6 UV-I 315 W/m 11,3 C 15,0 C 25,7 km/h (4 Bft) 100,00 %
10.05.2016 15:43 19,3 C 60 % 1008,6 hPa 0,0 l/m 19,5 km/h (3 Bft) O-NO 67 0 min 0,000 mm 1,6 UV-I 314 W/m 11,3 C 15,4 C 24,1 km/h (4 Bft) 100,00 %
10.05.2016 15:44 19,4 C 61 % 1008,6 hPa 0,0 l/m 20,4 km/h (4 Bft) NO 56 0 min 0,000 mm 1,6 UV-I 313 W/m 11,7 C 15,4 C 25,7 km/h (4 Bft) 100,00 %
10.05.2016 15:45 19,3 C 61 % 1008,5 hPa 0,0 l/m 23,1 km/h (4 Bft) O-NO 67 0 min 0,000 mm 1,6 UV-I 313 W/m 11,6 C 14,7 C 27,4 km/h (4 Bft) 100,00 %
10.05.2016 15:46 19,4 C 61 % 1008,6 hPa 0,0 l/m 17,3 km/h (3 Bft) O-NO 68 0 min 0,000 mm 1,6 UV-I 313 W/m 11,7 C 16,0 C 24,1 km/h (4 Bft) 100,00 %
10.05.2016 15:47 19,4 C 61 % 1008,6 hPa 0,0 l/m 20,1 km/h (4 Bft) O-NO 77 0 min 0,000 mm 1,6 UV-I 313 W/m 11,7 C 15,4 C 27,4 km/h (4 Bft) 100,00 %
10.05.2016 15:48 19,4 C 62 % 1008,6 hPa 0,0 l/m 16,1 km/h (3 Bft) O-NO 57 0 min 0,000 mm 1,6 UV-I 311 W/m 11,9 C 16,3 C 22,5 km/h (4 Bft) 100,00 %
10.05.2016 15:49 19,4 C 62 % 1008,6 hPa 0,0 l/m 23,3 km/h (4 Bft) O-NO 57 0 min 0,000 mm 1,6 UV-I 312 W/m 11,9 C 14,8 C 27,4 km/h (4 Bft) 100,00 %
10.05.2016 15:50 19,4 C 60 % 1008,6 hPa 0,0 l/m 23,7 km/h (4 Bft) O-NO 59 0 min 0,000 mm 1,6 UV-I 312 W/m 11,4 C 14,8 C 29,0 km/h (5 Bft) 100,00 %
10.05.2016 15:51 19,4 C 61 % 1008,6 hPa 0,0 l/m 18,6 km/h (3 Bft) NO 52 0 min 0,000 mm 1,5 UV-I 310 W/m 11,7 C 15,7 C 25,7 km/h (4 Bft) 100,00 %
10.05.2016 15:52 19,4 C 61 % 1008,6 hPa 0,0 l/m 22,3 km/h (4 Bft) NO 49 0 min 0,000 mm 1,5 UV-I 308 W/m 11,7 C 15,0 C 33,8 km/h (5 Bft) 100,00 %
10.05.2016 15:53 19,4 C 60 % 1008,6 hPa 0,0 l/m 25,3 km/h (4 Bft) O 81 0 min 0,000 mm 1,5 UV-I 306 W/m 11,4 C 14,5 C 27,4 km/h (4 Bft) 100,00 %
10.05.2016 15:54 19,4 C 60 % 1008,6 hPa 0,0 l/m 17,6 km/h (3 Bft) O-NO 68 0 min 0,000 mm 1,5 UV-I 305 W/m 11,4 C 15,9 C 27,4 km/h (4 Bft) 100,00 %
10.05.2016 15:55 19,4 C 61 % 1008,6 hPa 0,0 l/m 17,6 km/h (3 Bft) O 80 0 min 0,000 mm 1,5 UV-I 302 W/m 11,7 C 15,9 C 24,1 km/h (4 Bft) 100,00 %
10.05.2016 15:56 19,4 C 61 % 1008,6 hPa 0,0 l/m 17,6 km/h (3 Bft) O 88 0 min 0,000 mm 1,5 UV-I 301 W/m 11,7 C 15,9 C 20,9 km/h (4 Bft) 100,00 %
10.05.2016 15:57 19,4 C 63 % 1008,6 hPa 0,0 l/m 13,9 km/h (3 Bft) O 86 0 min 0,000 mm 1,5 UV-I 298 W/m 12,2 C 16,8 C 20,9 km/h (4 Bft) 100,00 %
10.05.2016 15:58 19,4 C 62 % 1008,6 hPa 0,0 l/m 20,8 km/h (4 Bft) O 86 0 min 0,000 mm 1,4 UV-I 294 W/m 11,9 C 15,3 C 29,0 km/h (5 Bft) 100,00 %
10.05.2016 15:59 19,4 C 62 % 1008,5 hPa 0,0 l/m 17,0 km/h (3 Bft) O-NO 71 0 min 0,000 mm 1,4 UV-I 292 W/m 11,9 C 16,1 C 20,9 km/h (4 Bft) 100,00 %
10.05.2016 16:00 19,4 C 62 % 1008,6 hPa 0,0 l/m 15,6 km/h (3 Bft) NO 55 0 min 0,000 mm 1,4 UV-I 288 W/m 11,9 C 16,4 C 22,5 km/h (4 Bft) 100,00 %
10.05.2016 16:01 19,4 C 62 % 1008,6 hPa 0,0 l/m 19,6 km/h (3 Bft) O-NO 67 0 min 0,304 mm 1,4 UV-I 285 W/m 11,9 C 15,5 C 22,5 km/h (4 Bft) 96,55 %
10.05.2016 16:02 19,4 C 62 % 1008,6 hPa 0,0 l/m 22,5 km/h (4 Bft) O-NO 60 0 min 0,000 mm 1,4 UV-I 282 W/m 11,9 C 15,0 C 32,2 km/h (5 Bft) 100,00 %
10.05.2016 16:03 19,4 C 61 % 1008,5 hPa 0,0 l/m 22,1 km/h (4 Bft) O-NO 73 0 min 0,000 mm 1,4 UV-I 279 W/m 11,7 C 15,0 C 29,0 km/h (5 Bft) 96,43 %
10.05.2016 16:04 19,3 C 61 % 1008,5 hPa 0,0 l/m 18,6 km/h (3 Bft) NO 51 0 min 0,000 mm 1,3 UV-I 275 W/m 11,6 C 15,6 C 25,7 km/h (4 Bft) 100,00 %
10.05.2016 16:05 19,3 C 61 % 1008,5 hPa 0,0 l/m 20,0 km/h (4 Bft) O-NO 69 0 min 0,000 mm 1,3 UV-I 272 W/m 11,6 C 15,3 C 24,1 km/h (4 Bft) 100,00 %
10.05.2016 16:06 19,3 C 61 % 1008,5 hPa 0,0 l/m 19,9 km/h (4 Bft) O-NO 67 0 min 0,000 mm 1,3 UV-I 269 W/m 11,6 C 15,3 C 24,1 km/h (4 Bft) 96,30 %
10.05.2016 16:07 19,3 C 62 % 1008,6 hPa 0,0 l/m 21,7 km/h (4 Bft) O-NO 65 0 min 0,000 mm 1,3 UV-I 266 W/m 11,8 C 15,0 C 25,7 km/h (4 Bft) 100,00 %
10.05.2016 16:08 19,3 C 61 % 1008,6 hPa 0,0 l/m 25,1 km/h (4 Bft) O 81 0 min 0,000 mm 1,3 UV-I 263 W/m 11,6 C 14,4 C 32,2 km/h (5 Bft) 96,30 %
10.05.2016 16:09 19,3 C 62 % 1008,5 hPa 0,0 l/m 20,3 km/h (4 Bft) O-NO 65 0 min 0,000 mm 1,3 UV-I 261 W/m 11,8 C 15,2 C 27,4 km/h (4 Bft) 100,00 %
10.05.2016 16:10 19,3 C 62 % 1008,5 hPa 0,0 l/m 20,7 km/h (4 Bft) O-NO 61 0 min 0,000 mm 1,2 UV-I 258 W/m 11,8 C 15,2 C 27,4 km/h (4 Bft) 95,83 %
10.05.2016 16:11 19,3 C 62 % 1008,5 hPa 0,0 l/m 20,0 km/h (4 Bft) O-NO 65 0 min 0,000 mm 1,2 UV-I 257 W/m 11,8 C 15,3 C 27,4 km/h (4 Bft) 100,00 %
10.05.2016 16:12 19,3 C 61 % 1008,6 hPa 0,0 l/m 22,6 km/h (4 Bft) NO 55 0 min 0,000 mm 1,2 UV-I 255 W/m 11,6 C 14,8 C 27,4 km/h (4 Bft) 96,67 %
10.05.2016 16:13 19,3 C 61 % 1008,6 hPa 0,0 l/m 19,8 km/h (3 Bft) O-NO 61 0 min 0,000 mm 1,2 UV-I 253 W/m 11,6 C 15,3 C 25,7 km/h (4 Bft) 95,65 %
10.05.2016 16:14 19,3 C 61 % 1008,6 hPa 0,0 l/m 17,8 km/h (3 Bft) O-NO 65 0 min 0,000 mm 1,2 UV-I 252 W/m 11,6 C 15,8 C 25,7 km/h (4 Bft) 100,00 %
10.05.2016 16:15 19,2 C 61 % 1008,5 hPa 0,0 l/m 25,0 km/h (4 Bft) O 84 0 min 0,000 mm 1,2 UV-I 249 W/m 11,5 C 14,3 C 32,2 km/h (5 Bft) 96,67 %
10.05.2016 16:16 19,2 C 61 % 1008,6 hPa 0,0 l/m 23,0 km/h (4 Bft) O 79 0 min 0,000 mm 1,2 UV-I 246 W/m 11,5 C 14,6 C 27,4 km/h (4 Bft) 96,15 %
10.05.2016 16:17 19,2 C 61 % 1008,6 hPa 0,0 l/m 21,7 km/h (4 Bft) O-NO 64 0 min 0,000 mm 1,2 UV-I 244 W/m 11,5 C 14,9 C 27,4 km/h (4 Bft) 96,15 %
10.05.2016 16:18 19,2 C 61 % 1008,5 hPa 0,0 l/m 23,1 km/h (4 Bft) O-NO 63 0 min 0,000 mm 1,1 UV-I 242 W/m 11,5 C 14,6 C 32,2 km/h (5 Bft) 98,73 %
10.05.2016 16:19 19,3 C 61 % 1008,6 hPa 0,0 l/m 22,4 km/h (4 Bft) O-NO 58 0 min 0,000 mm 1,1 UV-I 241 W/m 11,6 C 14,9 C 29,0 km/h (5 Bft) 92,86 %
10.05.2016 16:20 19,2 C 61 % 1008,5 hPa 0,0 l/m 20,4 km/h (4 Bft) NO 53 0 min 0,000 mm 1,1 UV-I 240 W/m 11,5 C 15,1 C 29,0 km/h (5 Bft) 100,00 %
10.05.2016 16:21 19,2 C 62 % 1008,6 hPa 0,0 l/m 20,0 km/h (4 Bft) O-NO 62 0 min 0,000 mm 1,1 UV-I 238 W/m 11,7 C 15,2 C 29,0 km/h (5 Bft) 96,30 %
10.05.2016 16:22 19,2 C 62 % 1008,5 hPa 0,0 l/m 16,6 km/h (3 Bft) O-NO 68 0 min 0,000 mm 1,1 UV-I 236 W/m 11,7 C 15,9 C 20,9 km/h (4 Bft) 96,15 %
10.05.2016 16:23 19,2 C 61 % 1008,6 hPa 0,0 l/m 20,2 km/h (4 Bft) O-NO 78 0 min 0,000 mm 1,1 UV-I 234 W/m 11,5 C 15,1 C 27,4 km/h (4 Bft) 100,00 %
10.05.2016 16:24 19,2 C 61 % 1008,7 hPa 0,0 l/m 14,0 km/h (3 Bft) NO 39 0 min 0,000 mm 1,1 UV-I 232 W/m 11,5 C 16,5 C 19,3 km/h (3 Bft) 96,15 %
10.05.2016 16:25 19,2 C 61 % 1008,7 hPa 0,0 l/m 15,9 km/h (3 Bft) O-NO 77 0 min 0,000 mm 1,1 UV-I 231 W/m 11,5 C 16,1 C 20,9 km/h (4 Bft) 100,00 %
10.05.2016 16:26 19,2 C 61 % 1008,7 hPa 0,0 l/m 21,4 km/h (4 Bft) NO 51 0 min 0,000 mm 1,0 UV-I 229 W/m 11,5 C 14,9 C 29,0 km/h (5 Bft) 96,15 %
10.05.2016 16:27 19,2 C 61 % 1008,7 hPa 0,0 l/m 17,5 km/h (3 Bft) NO 55 0 min 0,000 mm 1,0 UV-I 226 W/m 11,5 C 15,7 C 24,1 km/h (4 Bft) 100,00 %
10.05.2016 16:28 19,2 C 62 % 1008,7 hPa 0,0 l/m 19,2 km/h (3 Bft) NO 56 0 min 0,000 mm 1,0 UV-I 223 W/m 11,7 C 15,3 C 25,7 km/h (4 Bft) 98,71 %
10.05.2016 16:29 19,2 C 62 % 1008,7 hPa 0,0 l/m 21,1 km/h (4 Bft) O-NO 71 0 min 0,000 mm 1,0 UV-I 221 W/m 11,7 C 15,0 C 27,4 km/h (4 Bft) 97,56 %
10.05.2016 16:30 19,2 C 61 % 1008,7 hPa 0,0 l/m 19,5 km/h (3 Bft) NO 55 0 min 0,000 mm 1,0 UV-I 219 W/m 11,5 C 15,3 C 25,7 km/h (4 Bft) 96,15 %
10.05.2016 16:31 19,2 C 62 % 1008,7 hPa 0,0 l/m 14,6 km/h (3 Bft) O-NO 61 0 min 0,000 mm 1,0 UV-I 218 W/m 11,7 C 16,4 C 22,5 km/h (4 Bft) 96,30 %
10.05.2016 16:32 19,2 C 62 % 1008,7 hPa 0,0 l/m 17,3 km/h (3 Bft) O 92 0 min 0,000 mm 1,0 UV-I 215 W/m 11,7 C 15,7 C 27,4 km/h (4 Bft) 100,00 %
10.05.2016 16:33 19,2 C 62 % 1008,7 hPa 0,0 l/m 18,9 km/h (3 Bft) O-NO 59 0 min 0,000 mm 0,9 UV-I 210 W/m 11,7 C 15,4 C 24,1 km/h (4 Bft) 92,31 %
10.05.2016 16:34 19,2 C 62 % 1008,8 hPa 0,0 l/m 14,4 km/h (3 Bft) O-NO 59 0 min 0,000 mm 0,9 UV-I 207 W/m 11,7 C 16,4 C 20,9 km/h (4 Bft) 100,00 %
10.05.2016 16:35 19,2 C 63 % 1008,8 hPa 0,0 l/m 14,4 km/h (3 Bft) O 80 0 min 0,000 mm 0,9 UV-I 202 W/m 12,0 C 16,4 C 19,3 km/h (3 Bft) 94,12 %
10.05.2016 16:36 19,2 C 62 % 1008,8 hPa 0,0 l/m 10,8 km/h (2 Bft) O-NO 72 0 min 0,000 mm 0,9 UV-I 196 W/m 11,7 C 17,5 C 16,1 km/h (3 Bft) 100,00 %
10.05.2016 16:37 19,2 C 63 % 1008,8 hPa 0,0 l/m 10,9 km/h (2 Bft) O 98 0 min 0,000 mm 0,8 UV-I 190 W/m 12,0 C 17,5 C 19,3 km/h (3 Bft) 92,31 %
10.05.2016 16:38 19,2 C 63 % 1008,8 hPa 0,0 l/m 17,2 km/h (3 Bft) O 81 0 min 0,000 mm 0,8 UV-I 178 W/m 12,0 C 15,8 C 22,5 km/h (4 Bft) 100,00 %
10.05.2016 16:39 19,2 C 62 % 1008,8 hPa 0,0 l/m 20,8 km/h (4 Bft) O-NO 76 0 min 0,000 mm 0,7 UV-I 165 W/m 11,7 C 15,0 C 27,4 km/h (4 Bft) 92,31 %
10.05.2016 16:40 19,1 C 61 % 1008,9 hPa 0,0 l/m 17,6 km/h (3 Bft) NO 56 0 min 0,000 mm 0,6 UV-I 154 W/m 11,4 C 15,5 C 22,5 km/h (4 Bft) 100,00 %
10.05.2016 16:41 19,1 C 62 % 1008,9 hPa 0,0 l/m 10,9 km/h (2 Bft) O 80 0 min 0,000 mm 0,6 UV-I 143 W/m 11,6 C 17,3 C 20,9 km/h (4 Bft) 100,00 %
10.05.2016 16:42 19,1 C 62 % 1008,9 hPa 0,0 l/m 12,4 km/h (3 Bft) O 81 0 min 0,000 mm 0,6 UV-I 138 W/m 11,6 C 16,9 C 17,7 km/h (3 Bft) 100,00 %
10.05.2016 16:43 19,1 C 62 % 1008,9 hPa 0,0 l/m 12,7 km/h (3 Bft) O-NO 78 0 min 0,000 mm 0,6 UV-I 135 W/m 11,6 C 16,8 C 20,9 km/h (4 Bft) 100,00 %
10.05.2016 16:44 19,1 C 62 % 1008,9 hPa 0,0 l/m 14,0 km/h (3 Bft) O-NO 60 0 min 0,000 mm 0,5 UV-I 133 W/m 11,6 C 16,4 C 17,7 km/h (3 Bft) 100,00 %
10.05.2016 16:45 19,1 C 62 % 1008,9 hPa 0,0 l/m 11,8 km/h (2 Bft) O-NO 77 0 min 0,000 mm 0,5 UV-I 131 W/m 11,6 C 17,1 C 14,5 km/h (3 Bft) 100,00 %
10.05.2016 16:46 19,1 C 62 % 1008,9 hPa 0,0 l/m 12,0 km/h (2 Bft) NO 56 0 min 0,000 mm 0,5 UV-I 128 W/m 11,6 C 17,0 C 17,7 km/h (3 Bft) 100,00 %
10.05.2016 16:47 19,1 C 62 % 1008,9 hPa 0,0 l/m 10,5 km/h (2 Bft) O-NO 74 0 min 0,000 mm 0,5 UV-I 126 W/m 11,6 C 17,5 C 17,7 km/h (3 Bft) 95,00 %
10.05.2016 16:48 19,1 C 62 % 1008,9 hPa 0,0 l/m 13,8 km/h (3 Bft) O-SO 110 0 min 0,000 mm 0,5 UV-I 124 W/m 11,6 C 16,5 C 17,7 km/h (3 Bft) 100,00 %
10.05.2016 16:49 19,1 C 62 % 1008,9 hPa 0,0 l/m 13,8 km/h (3 Bft) O-NO 65 0 min 0,000 mm 0,5 UV-I 123 W/m 11,6 C 16,5 C 19,3 km/h (3 Bft) 100,00 %
10.05.2016 16:50 19,1 C 62 % 1008,9 hPa 0,0 l/m 11,4 km/h (2 Bft) O-NO 67 0 min 0,000 mm 0,5 UV-I 123 W/m 11,6 C 17,2 C 17,7 km/h (3 Bft) 100,00 %
10.05.2016 16:51 19,1 C 62 % 1008,9 hPa 0,0 l/m 10,6 km/h (2 Bft) O-NO 65 0 min 0,000 mm 0,5 UV-I 123 W/m 11,6 C 17,4 C 16,1 km/h (3 Bft) 95,65 %
10.05.2016 16:52 19,0 C 62 % 1008,9 hPa 0,0 l/m 17,3 km/h (3 Bft) O-NO 67 0 min 0,000 mm 0,5 UV-I 123 W/m 11,6 C 15,5 C 22,5 km/h (4 Bft) 100,00 %
10.05.2016 16:53 19,0 C 61 % 1008,9 hPa 0,0 l/m 13,8 km/h (3 Bft) O 96 0 min 0,000 mm 0,5 UV-I 124 W/m 11,3 C 16,4 C 19,3 km/h (3 Bft) 100,00 %
10.05.2016 16:54 19,0 C 62 % 1008,8 hPa 0,0 l/m 12,8 km/h (3 Bft) O 96 0 min 0,000 mm 0,5 UV-I 125 W/m 11,6 C 16,6 C 19,3 km/h (3 Bft) 100,00 %
10.05.2016 16:55 19,0 C 62 % 1008,9 hPa 0,0 l/m 12,0 km/h (2 Bft) N-NO 32 0 min 0,000 mm 0,5 UV-I 126 W/m 11,6 C 16,9 C 17,7 km/h (3 Bft) 100,00 %
10.05.2016 16:56 19,0 C 63 % 1008,9 hPa 0,0 l/m 7,5 km/h (2 Bft) NO 56 0 min 0,000 mm 0,5 UV-I 127 W/m 11,8 C 18,5 C 11,3 km/h (2 Bft) 100,00 %
10.05.2016 16:57 18,9 C 62 % 1008,9 hPa 0,0 l/m 16,2 km/h (3 Bft) O-NO 63 0 min 0,000 mm 0,5 UV-I 130 W/m 11,5 C 15,6 C 25,7 km/h (4 Bft) 100,00 %
10.05.2016 16:58 19,0 C 61 % 1008,8 hPa 0,0 l/m 14,7 km/h (3 Bft) O-NO 70 0 min 0,000 mm 0,5 UV-I 132 W/m 11,3 C 16,1 C 19,3 km/h (3 Bft) 100,00 %
10.05.2016 16:59 19,0 C 62 % 1008,9 hPa 0,0 l/m 11,6 km/h (2 Bft) O-SO 106 0 min 0,000 mm 0,5 UV-I 134 W/m 11,6 C 17,0 C 14,5 km/h (3 Bft) 100,00 %
10.05.2016 17:00 19,0 C 62 % 1008,9 hPa 0,0 l/m 10,6 km/h (2 Bft) O 82 0 min 0,000 mm 0,5 UV-I 135 W/m 11,6 C 17,3 C 14,5 km/h (3 Bft) 100,00 %
10.05.2016 17:02 18,9 C 62 % 1008,9 hPa 0,0 l/m 9,2 km/h (2 Bft) O-NO 72 0 min 0,204 mm 0,5 UV-I 137 W/m 11,5 C 17,7 C 16,1 km/h (3 Bft) 98,00 %
10.05.2016 17:03 18,9 C 62 % 1008,9 hPa 0,0 l/m 15,8 km/h (3 Bft) O 94 0 min 0,000 mm 0,5 UV-I 141 W/m 11,5 C 15,7 C 19,3 km/h (3 Bft) 100,00 %
10.05.2016 17:04 18,9 C 62 % 1008,9 hPa 0,0 l/m 13,9 km/h (3 Bft) O-NO 65 0 min 0,000 mm 0,5 UV-I 142 W/m 11,5 C 16,2 C 17,7 km/h (3 Bft) 100,00 %
10.05.2016 17:05 18,9 C 62 % 1008,9 hPa 0,0 l/m 9,8 km/h (2 Bft) O-NO 63 0 min 0,000 mm 0,5 UV-I 145 W/m 11,5 C 17,5 C 12,9 km/h (3 Bft) 100,00 %
10.05.2016 17:06 18,9 C 63 % 1008,9 hPa 0,0 l/m 10,9 km/h (2 Bft) O-NO 67 0 min 0,000 mm 0,5 UV-I 148 W/m 11,7 C 17,1 C 14,5 km/h (3 Bft) 100,00 %
10.05.2016 17:07 18,9 C 62 % 1008,9 hPa 0,0 l/m 14,6 km/h (3 Bft) NO 53 0 min 0,000 mm 0,5 UV-I 151 W/m 11,5 C 16,0 C 17,7 km/h (3 Bft) 100,00 %
10.05.2016 17:08 18,9 C 63 % 1008,8 hPa 0,0 l/m 12,3 km/h (3 Bft) O-NO 74 0 min 0,000 mm 0,6 UV-I 155 W/m 11,7 C 16,7 C 16,1 km/h (3 Bft) 95,65 %
10.05.2016 17:09 18,9 C 63 % 1008,8 hPa 0,0 l/m 9,4 km/h (2 Bft) O-NO 64 0 min 0,000 mm 0,6 UV-I 158 W/m 11,7 C 17,6 C 14,5 km/h (3 Bft) 100,00 %
10.05.2016 17:10 18,9 C 63 % 1008,8 hPa 0,0 l/m 10,5 km/h (2 Bft) O 90 0 min 0,000 mm 0,6 UV-I 162 W/m 11,7 C 17,3 C 14,5 km/h (3 Bft) 100,00 %
10.05.2016 17:11 18,9 C 63 % 1008,8 hPa 0,0 l/m 9,3 km/h (2 Bft) O-NO 66 0 min 0,000 mm 0,6 UV-I 162 W/m 11,7 C 17,7 C 14,5 km/h (3 Bft) 100,00 %
10.05.2016 17:12 18,9 C 63 % 1008,8 hPa 0,0 l/m 10,4 km/h (2 Bft) O-NO 66 0 min 0,000 mm 0,6 UV-I 164 W/m 11,7 C 17,3 C 14,5 km/h (3 Bft) 100,00 %
10.05.2016 17:13 18,9 C 63 % 1008,9 hPa 0,0 l/m 11,4 km/h (2 Bft) O-NO 60 0 min 0,000 mm 0,6 UV-I 165 W/m 11,7 C 17,0 C 16,1 km/h (3 Bft) 100,00 %
10.05.2016 17:14 18,9 C 63 % 1008,8 hPa 0,0 l/m 10,6 km/h (2 Bft) NO 53 0 min 0,000 mm 0,6 UV-I 166 W/m 11,7 C 17,2 C 12,9 km/h (3 Bft) 100,00 %
10.05.2016 17:15 19,0 C 64 % 1008,8 hPa 0,0 l/m 10,2 km/h (2 Bft) O-NO 60 0 min 0,000 mm 0,6 UV-I 167 W/m 12,0 C 17,5 C 16,1 km/h (3 Bft) 100,00 %
10.05.2016 17:16 19,0 C 64 % 1008,8 hPa 0,0 l/m 15,8 km/h (3 Bft) O-NO 68 0 min 0,000 mm 0,6 UV-I 168 W/m 12,0 C 15,8 C 20,9 km/h (4 Bft) 100,00 %
10.05.2016 17:17 18,9 C 63 % 1008,8 hPa 0,0 l/m 18,3 km/h (3 Bft) O 89 0 min 0,000 mm 0,6 UV-I 169 W/m 11,7 C 15,1 C 24,1 km/h (4 Bft) 100,00 %
10.05.2016 17:18 18,9 C 62 % 1008,8 hPa 0,0 l/m 16,4 km/h (3 Bft) O-NO 69 0 min 0,000 mm 0,6 UV-I 169 W/m 11,5 C 15,6 C 27,4 km/h (4 Bft) 100,00 %
10.05.2016 17:19 18,9 C 63 % 1008,9 hPa 0,0 l/m 19,2 km/h (3 Bft) O-NO 66 0 min 0,000 mm 0,6 UV-I 169 W/m 11,7 C 14,9 C 29,0 km/h (5 Bft) 100,00 %
10.05.2016 17:20 18,9 C 63 % 1008,9 hPa 0,0 l/m 16,8 km/h (3 Bft) O-NO 73 0 min 0,000 mm 0,6 UV-I 169 W/m 11,7 C 15,5 C 20,9 km/h (4 Bft) 100,00 %
10.05.2016 17:21 18,9 C 62 % 1008,9 hPa 0,0 l/m 18,2 km/h (3 Bft) NO 52 0 min 0,000 mm 0,6 UV-I 167 W/m 11,5 C 15,2 C 22,5 km/h (4 Bft) 100,00 %
10.05.2016 17:22 18,9 C 62 % 1009,0 hPa 0,0 l/m 16,7 km/h (3 Bft) O-NO 61 0 min 0,000 mm 0,6 UV-I 162 W/m 11,5 C 15,5 C 22,5 km/h (4 Bft) 100,00 %
10.05.2016 17:23 18,9 C 62 % 1008,9 hPa 0,0 l/m 20,2 km/h (4 Bft) O 79 0 min 0,000 mm 0,5 UV-I 158 W/m 11,5 C 14,7 C 27,4 km/h (4 Bft) 100,00 %
10.05.2016 17:24 18,9 C 62 % 1008,9 hPa 0,0 l/m 18,4 km/h (3 Bft) NO 41 0 min 0,000 mm 0,5 UV-I 153 W/m 11,5 C 15,1 C 27,4 km/h (4 Bft) 96,30 %
10.05.2016 17:25 18,9 C 62 % 1009,0 hPa 0,0 l/m 15,2 km/h (3 Bft) O-NO 68 0 min 0,000 mm 0,5 UV-I 150 W/m 11,5 C 15,9 C 17,7 km/h (3 Bft) 100,00 %
10.05.2016 17:26 18,9 C 62 % 1009,0 hPa 0,0 l/m 19,2 km/h (3 Bft) O-NO 65 0 min 0,000 mm 0,5 UV-I 148 W/m 11,5 C 14,9 C 29,0 km/h (5 Bft) 100,00 %
10.05.2016 17:27 18,9 C 62 % 1008,9 hPa 0,0 l/m 18,2 km/h (3 Bft) NO 49 0 min 0,000 mm 0,5 UV-I 148 W/m 11,5 C 15,2 C 27,4 km/h (4 Bft) 100,00 %
10.05.2016 17:28 18,9 C 62 % 1009,0 hPa 0,0 l/m 21,2 km/h (4 Bft) NO 53 0 min 0,000 mm 0,5 UV-I 148 W/m 11,5 C 14,6 C 25,7 km/h (4 Bft) 100,00 %
10.05.2016 17:29 18,9 C 62 % 1008,9 hPa 0,0 l/m 18,6 km/h (3 Bft) NO 55 0 min 0,000 mm 0,5 UV-I 149 W/m 11,5 C 15,1 C 22,5 km/h (4 Bft) 100,00 %
10.05.2016 17:30 18,9 C 62 % 1008,9 hPa 0,0 l/m 17,3 km/h (3 Bft) O-NO 71 0 min 0,000 mm 0,5 UV-I 148 W/m 11,5 C 15,4 C 20,9 km/h (4 Bft) 100,00 %
10.05.2016 17:31 18,8 C 62 % 1009,0 hPa 0,0 l/m 15,2 km/h (3 Bft) O-NO 76 0 min 0,000 mm 0,5 UV-I 146 W/m 11,4 C 15,7 C 22,5 km/h (4 Bft) 100,00 %
10.05.2016 17:32 18,8 C 62 % 1009,0 hPa 0,0 l/m 17,4 km/h (3 Bft) NO 49 0 min 0,000 mm 0,5 UV-I 143 W/m 11,4 C 15,2 C 22,5 km/h (4 Bft) 100,00 %
10.05.2016 17:33 18,8 C 62 % 1009,0 hPa 0,0 l/m 18,2 km/h (3 Bft) O-NO 61 0 min 0,000 mm 0,5 UV-I 141 W/m 11,4 C 15,0 C 20,9 km/h (4 Bft) 100,00 %
10.05.2016 17:34 18,8 C 62 % 1009,0 hPa 0,0 l/m 15,7 km/h (3 Bft) NO 43 0 min 0,000 mm 0,5 UV-I 136 W/m 11,4 C 15,6 C 19,3 km/h (3 Bft) 100,00 %
10.05.2016 17:35 18,8 C 63 % 1009,0 hPa 0,0 l/m 15,2 km/h (3 Bft) O-NO 67 0 min 0,000 mm 0,0 UV-I 133 W/m 11,6 C 15,7 C 20,9 km/h (4 Bft) 100,00 %
10.05.2016 17:36 18,8 C 62 % 1009,0 hPa 0,0 l/m 18,5 km/h (3 Bft) O-NO 65 0 min 0,000 mm 0,0 UV-I 129 W/m 11,4 C 15,0 C 22,5 km/h (4 Bft) 100,00 %
10.05.2016 17:37 18,8 C 63 % 1009,0 hPa 0,0 l/m 14,3 km/h (3 Bft) O-NO 77 0 min 0,000 mm 0,0 UV-I 128 W/m 11,6 C 16,0 C 19,3 km/h (3 Bft) 100,00 %
10.05.2016 17:38 18,7 C 63 % 1009,0 hPa 0,0 l/m 17,4 km/h (3 Bft) O 96 0 min 0,000 mm 0,0 UV-I 128 W/m 11,5 C 15,1 C 22,5 km/h (4 Bft) 100,00 %
10.05.2016 17:39 18,7 C 63 % 1009,0 hPa 0,0 l/m 14,9 km/h (3 Bft) O 80 0 min 0,000 mm 0,0 UV-I 128 W/m 11,5 C 15,7 C 17,7 km/h (3 Bft) 100,00 %
10.05.2016 17:40 18,7 C 63 % 1009,1 hPa 0,0 l/m 17,8 km/h (3 Bft) O 90 0 min 0,000 mm 0,0 UV-I 127 W/m 11,5 C 15,0 C 22,5 km/h (4 Bft) 100,00 %
10.05.2016 17:41 18,7 C 63 % 1009,0 hPa 0,0 l/m 12,1 km/h (2 Bft) O-NO 61 0 min 0,000 mm 0,0 UV-I 126 W/m 11,5 C 16,5 C 14,5 km/h (3 Bft) 98,74 %
10.05.2016 17:42 18,7 C 64 % 1009,0 hPa 0,0 l/m 14,0 km/h (3 Bft) O-NO 69 0 min 0,000 mm 0,0 UV-I 124 W/m 11,7 C 15,9 C 17,7 km/h (3 Bft) 100,00 %
10.05.2016 17:43 18,7 C 64 % 1009,0 hPa 0,0 l/m 13,6 km/h (3 Bft) O-NO 59 0 min 0,000 mm 0,0 UV-I 121 W/m 11,7 C 16,1 C 20,9 km/h (4 Bft) 100,00 %
10.05.2016 17:44 18,6 C 63 % 1009,0 hPa 0,0 l/m 19,2 km/h (3 Bft) O-NO 58 0 min 0,000 mm 0,0 UV-I 117 W/m 11,4 C 14,6 C 24,1 km/h (4 Bft) 96,15 %
10.05.2016 17:45 18,6 C 63 % 1009,0 hPa 0,0 l/m 15,2 km/h (3 Bft) O-NO 63 0 min 0,000 mm 0,0 UV-I 111 W/m 11,4 C 15,5 C 20,9 km/h (4 Bft) 100,00 %
10.05.2016 17:46 18,6 C 64 % 1009,1 hPa 0,0 l/m 15,6 km/h (3 Bft) O-NO 61 0 min 0,000 mm 0,0 UV-I 106 W/m 11,7 C 15,4 C 19,3 km/h (3 Bft) 100,00 %
10.05.2016 17:47 18,6 C 64 % 1009,1 hPa 0,0 l/m 14,3 km/h (3 Bft) O-NO 69 0 min 0,000 mm 0,0 UV-I 104 W/m 11,7 C 15,7 C 24,1 km/h (4 Bft) 100,00 %
10.05.2016 17:48 18,6 C 64 % 1009,0 hPa 0,0 l/m 16,6 km/h (3 Bft) O-NO 66 0 min 0,000 mm 0,0 UV-I 101 W/m 11,7 C 15,2 C 24,1 km/h (4 Bft) 100,00 %
10.05.2016 17:49 18,6 C 64 % 1009,1 hPa 0,0 l/m 15,8 km/h (3 Bft) O 92 0 min 0,000 mm 0,0 UV-I 99 W/m 11,7 C 15,3 C 24,1 km/h (4 Bft) 98,75 %
10.05.2016 17:50 18,5 C 64 % 1009,0 hPa 0,0 l/m 18,2 km/h (3 Bft) NO 53 0 min 0,000 mm 0,0 UV-I 97 W/m 11,6 C 14,7 C 22,5 km/h (4 Bft) 100,00 %
10.05.2016 17:51 18,5 C 63 % 1009,0 hPa 0,0 l/m 19,8 km/h (3 Bft) O 94 0 min 0,000 mm 0,0 UV-I 95 W/m 11,3 C 14,3 C 24,1 km/h (4 Bft) 100,00 %
10.05.2016 17:52 18,5 C 64 % 1009,1 hPa 0,0 l/m 15,1 km/h (3 Bft) O-NO 64 0 min 0,000 mm 0,0 UV-I 95 W/m 11,6 C 15,4 C 22,5 km/h (4 Bft) 100,00 %
10.05.2016 17:53 18,4 C 64 % 1009,0 hPa 0,0 l/m 23,3 km/h (4 Bft) O-NO 74 0 min 0,000 mm 0,0 UV-I 92 W/m 11,5 C 13,5 C 27,4 km/h (4 Bft) 100,00 %
10.05.2016 17:54 18,4 C 64 % 1009,1 hPa 0,0 l/m 19,8 km/h (3 Bft) O-NO 65 0 min 0,000 mm 0,0 UV-I 91 W/m 11,5 C 14,2 C 24,1 km/h (4 Bft) 100,00 %
10.05.2016 17:55 18,4 C 63 % 1009,0 hPa 0,0 l/m 17,3 km/h (3 Bft) O-NO 65 0 min 0,000 mm 0,0 UV-I 90 W/m 11,2 C 14,7 C 25,7 km/h (4 Bft) 100,00 %
10.05.2016 17:56 18,4 C 63 % 1009,0 hPa 0,0 l/m 20,2 km/h (4 Bft) O-NO 66 0 min 0,000 mm 0,0 UV-I 88 W/m 11,2 C 14,1 C 25,7 km/h (4 Bft) 100,00 %
10.05.2016 17:57 18,4 C 63 % 1009,0 hPa 0,0 l/m 18,6 km/h (3 Bft) NO 51 0 min 0,000 mm 0,0 UV-I 86 W/m 11,2 C 14,4 C 30,6 km/h (5 Bft) 100,00 %
10.05.2016 17:58 18,4 C 63 % 1009,1 hPa 0,0 l/m 17,8 km/h (3 Bft) O-NO 78 0 min 0,000 mm 0,0 UV-I 83 W/m 11,2 C 14,6 C 22,5 km/h (4 Bft) 100,00 %
10.05.2016 17:59 18,3 C 63 % 1009,0 hPa 0,0 l/m 12,7 km/h (3 Bft) O 86 0 min 0,000 mm 0,0 UV-I 79 W/m 11,1 C 15,9 C 16,1 km/h (3 Bft) 100,00 %
10.05.2016 18:00 18,3 C 64 % 1009,1 hPa 0,0 l/m 11,7 km/h (2 Bft) O-NO 62 0 min 0,000 mm 0,0 UV-I 75 W/m 11,4 C 16,2 C 17,7 km/h (3 Bft) 100,00 %
10.05.2016 18:01 18,3 C 64 % 1009,1 hPa 0,0 l/m 19,4 km/h (3 Bft) O-NO 57 0 min 0,152 mm 0,0 UV-I 73 W/m 11,4 C 14,1 C 25,7 km/h (4 Bft) 100,00 %
10.05.2016 18:02 18,3 C 64 % 1009,1 hPa 0,0 l/m 16,1 km/h (3 Bft) O-NO 57 0 min 0,000 mm 0,0 UV-I 70 W/m 11,4 C 14,9 C 22,5 km/h (4 Bft) 100,00 %
10.05.2016 18:03 18,3 C 64 % 1009,0 hPa 0,0 l/m 15,7 km/h (3 Bft) O 84 0 min 0,000 mm 0,0 UV-I 70 W/m 11,4 C 15,0 C 17,7 km/h (3 Bft) 100,00 %
10.05.2016 18:04 18,3 C 64 % 1009,1 hPa 0,0 l/m 13,1 km/h (3 Bft) O-NO 74 0 min 0,000 mm 0,0 UV-I 70 W/m 11,4 C 15,7 C 17,7 km/h (3 Bft) 100,00 %
10.05.2016 18:05 18,2 C 64 % 1009,1 hPa 0,0 l/m 16,3 km/h (3 Bft) O-NO 60 0 min 0,000 mm 0,0 UV-I 69 W/m 11,3 C 14,7 C 20,9 km/h (4 Bft) 95,65 %
10.05.2016 18:06 18,2 C 65 % 1009,1 hPa 0,0 l/m 18,8 km/h (3 Bft) O-NO 69 0 min 0,000 mm 0,0 UV-I 68 W/m 11,5 C 14,1 C 22,5 km/h (4 Bft) 95,83 %
10.05.2016 18:07 18,2 C 65 % 1009,1 hPa 0,0 l/m 16,0 km/h (3 Bft) O 90 0 min 0,000 mm 0,0 UV-I 66 W/m 11,5 C 14,8 C 22,5 km/h (4 Bft) 100,00 %
10.05.2016 18:08 18,2 C 64 % 1009,1 hPa 0,0 l/m 17,3 km/h (3 Bft) O-NO 65 0 min 0,000 mm 0,0 UV-I 63 W/m 11,3 C 14,5 C 25,7 km/h (4 Bft) 96,30 %
10.05.2016 18:09 18,2 C 65 % 1009,1 hPa 0,0 l/m 16,9 km/h (3 Bft) O-NO 76 0 min 0,000 mm 0,0 UV-I 60 W/m 11,5 C 14,6 C 20,9 km/h (4 Bft) 100,00 %
10.05.2016 18:10 18,2 C 65 % 1009,1 hPa 0,0 l/m 13,0 km/h (3 Bft) O-NO 68 0 min 0,000 mm 0,0 UV-I 57 W/m 11,5 C 15,6 C 17,7 km/h (3 Bft) 96,15 %
10.05.2016 18:11 18,2 C 65 % 1009,1 hPa 0,0 l/m 15,3 km/h (3 Bft) O 84 0 min 0,000 mm 0,0 UV-I 53 W/m 11,5 C 15,0 C 19,3 km/h (3 Bft) 100,00 %
10.05.2016 18:12 18,1 C 64 % 1009,1 hPa 0,0 l/m 20,9 km/h (4 Bft) O 96 0 min 0,000 mm 0,0 UV-I 51 W/m 11,2 C 13,6 C 30,6 km/h (5 Bft) 95,65 %
10.05.2016 18:13 18,1 C 64 % 1009,1 hPa 0,0 l/m 21,3 km/h (4 Bft) O 82 0 min 0,000 mm 0,0 UV-I 47 W/m 11,2 C 13,5 C 27,4 km/h (4 Bft) 96,15 %
10.05.2016 18:14 18,1 C 65 % 1009,1 hPa 0,0 l/m 16,7 km/h (3 Bft) NO 49 0 min 0,000 mm 0,0 UV-I 46 W/m 11,4 C 14,5 C 22,5 km/h (4 Bft) 100,00 %
10.05.2016 18:15 18,1 C 65 % 1009,1 hPa 0,0 l/m 17,2 km/h (3 Bft) O 100 0 min 0,000 mm 0,0 UV-I 46 W/m 11,4 C 14,4 C 22,5 km/h (4 Bft) 100,00 %
10.05.2016 18:16 18,1 C 65 % 1009,1 hPa 0,0 l/m 19,4 km/h (3 Bft) O-NO 67 0 min 0,000 mm 0,0 UV-I 43 W/m 11,4 C 13,9 C 24,1 km/h (4 Bft) 96,88 %
10.05.2016 18:17 18,1 C 65 % 1009,1 hPa 0,0 l/m 13,9 km/h (3 Bft) O-NO 59 0 min 0,000 mm 0,0 UV-I 42 W/m 11,4 C 15,3 C 17,7 km/h (3 Bft) 96,30 %
10.05.2016 18:18 18,1 C 65 % 1009,1 hPa 0,0 l/m 13,8 km/h (3 Bft) O 96 0 min 0,000 mm 0,0 UV-I 40 W/m 11,4 C 15,3 C 22,5 km/h (4 Bft) 100,00 %
10.05.2016 18:19 18,1 C 65 % 1009,1 hPa 0,0 l/m 16,5 km/h (3 Bft) O-NO 58 0 min 0,000 mm 0,0 UV-I 39 W/m 11,4 C 14,6 C 27,4 km/h (4 Bft) 95,83 %
10.05.2016 18:20 18,0 C 65 % 1009,2 hPa 0,0 l/m 16,7 km/h (3 Bft) O 93 0 min 0,000 mm 0,0 UV-I 37 W/m 11,3 C 14,4 C 24,1 km/h (4 Bft) 100,00 %
10.05.2016 18:21 18,0 C 65 % 1009,2 hPa 0,0 l/m 16,7 km/h (3 Bft) NO 36 0 min 0,000 mm 0,0 UV-I 36 W/m 11,3 C 14,4 C 24,1 km/h (4 Bft) 95,83 %
10.05.2016 18:22 17,9 C 65 % 1009,2 hPa 0,0 l/m 20,1 km/h (4 Bft) O 80 0 min 0,000 mm 0,0 UV-I 34 W/m 11,2 C 13,5 C 25,7 km/h (4 Bft) 96,15 %
10.05.2016 18:23 17,9 C 65 % 1009,2 hPa 0,0 l/m 20,3 km/h (4 Bft) O-NO 77 0 min 0,000 mm 0,0 UV-I 33 W/m 11,2 C 13,4 C 24,1 km/h (4 Bft) 100,00 %
10.05.2016 18:24 17,9 C 65 % 1009,2 hPa 0,0 l/m 18,0 km/h (3 Bft) O 80 0 min 0,000 mm 0,0 UV-I 32 W/m 11,2 C 13,9 C 27,4 km/h (4 Bft) 96,55 %
10.05.2016 18:25 17,9 C 65 % 1009,1 hPa 0,0 l/m 15,0 km/h (3 Bft) O-NO 70 0 min 0,000 mm 0,0 UV-I 32 W/m 11,2 C 14,7 C 24,1 km/h (4 Bft) 100,00 %
10.05.2016 18:26 17,9 C 65 % 1009,2 hPa 0,0 l/m 17,2 km/h (3 Bft) O 86 0 min 0,000 mm 0,0 UV-I 32 W/m 11,2 C 14,1 C 22,5 km/h (4 Bft) 96,15 %
10.05.2016 18:27 17,9 C 64 % 1009,1 hPa 0,0 l/m 15,3 km/h (3 Bft) SO 132 0 min 0,000 mm 0,0 UV-I 30 W/m 11,0 C 14,6 C 25,7 km/h (4 Bft) 100,00 %
10.05.2016 18:28 17,9 C 65 % 1009,2 hPa 0,0 l/m 11,9 km/h (2 Bft) O-SO 119 0 min 0,000 mm 0,0 UV-I 29 W/m 11,2 C 15,6 C 17,7 km/h (3 Bft) 96,15 %
10.05.2016 18:29 17,9 C 65 % 1009,2 hPa 0,0 l/m 12,1 km/h (2 Bft) O-NO 57 0 min 0,000 mm 0,0 UV-I 28 W/m 11,2 C 15,6 C 17,7 km/h (3 Bft) 96,30 %
10.05.2016 18:30 17,9 C 65 % 1009,2 hPa 0,0 l/m 10,0 km/h (2 Bft) O-NO 58 0 min 0,000 mm 0,0 UV-I 28 W/m 11,2 C 16,3 C 12,9 km/h (3 Bft) 96,15 %
10.05.2016 18:31 17,8 C 66 % 1009,2 hPa 0,0 l/m 13,8 km/h (3 Bft) SO 140 0 min 0,000 mm 0,0 UV-I 26 W/m 11,4 C 14,9 C 16,1 km/h (3 Bft) 100,00 %
10.05.2016 18:32 17,8 C 65 % 1009,2 hPa 0,0 l/m 13,1 km/h (3 Bft) O-SO 111 0 min 0,000 mm 0,0 UV-I 28 W/m 11,1 C 15,1 C 20,9 km/h (4 Bft) 93,10 %
10.05.2016 18:33 17,8 C 65 % 1009,2 hPa 0,0 l/m 10,6 km/h (2 Bft) O-SO 113 0 min 0,000 mm 0,0 UV-I 28 W/m 11,1 C 16,0 C 12,9 km/h (3 Bft) 95,83 %
10.05.2016 18:34 17,8 C 66 % 1009,2 hPa 0,0 l/m 11,9 km/h (2 Bft) O-SO 107 0 min 0,000 mm 0,0 UV-I 29 W/m 11,4 C 15,5 C 16,1 km/h (3 Bft) 100,00 %
10.05.2016 18:35 17,8 C 66 % 1009,2 hPa 0,0 l/m 11,3 km/h (2 Bft) O-NO 61 0 min 0,000 mm 0,0 UV-I 31 W/m 11,4 C 15,7 C 14,5 km/h (3 Bft) 96,55 %
10.05.2016 18:36 17,8 C 66 % 1009,2 hPa 0,0 l/m 16,6 km/h (3 Bft) O 87 0 min 0,000 mm 0,0 UV-I 33 W/m 11,4 C 14,2 C 24,1 km/h (4 Bft) 100,00 %
10.05.2016 18:37 17,8 C 66 % 1009,2 hPa 0,0 l/m 14,6 km/h (3 Bft) O-SO 102 0 min 0,000 mm 0,0 UV-I 35 W/m 11,4 C 14,7 C 19,3 km/h (3 Bft) 96,15 %
10.05.2016 18:38 17,8 C 66 % 1009,2 hPa 0,0 l/m 9,4 km/h (2 Bft) O 84 0 min 0,000 mm 0,0 UV-I 37 W/m 11,4 C 16,4 C 14,5 km/h (3 Bft) 100,00 %
10.05.2016 18:39 17,7 C 66 % 1009,2 hPa 0,0 l/m 8,5 km/h (2 Bft) O-NO 66 0 min 0,000 mm 0,0 UV-I 41 W/m 11,3 C 16,7 C 11,3 km/h (2 Bft) 100,00 %
10.05.2016 18:40 17,7 C 66 % 1009,2 hPa 0,0 l/m 6,1 km/h (2 Bft) O 83 0 min 0,000 mm 0,0 UV-I 46 W/m 11,3 C 17,7 C 12,9 km/h (3 Bft) 100,00 %
10.05.2016 18:41 17,7 C 67 % 1009,2 hPa 0,0 l/m 16,3 km/h (3 Bft) O-NO 74 0 min 0,000 mm 0,0 UV-I 52 W/m 11,5 C 14,1 C 22,5 km/h (4 Bft) 100,00 %
10.05.2016 18:42 17,7 C 66 % 1009,2 hPa 0,0 l/m 14,7 km/h (3 Bft) O-NO 61 0 min 0,000 mm 0,0 UV-I 60 W/m 11,3 C 14,5 C 19,3 km/h (3 Bft) 96,30 %
10.05.2016 18:43 17,7 C 66 % 1009,1 hPa 0,0 l/m 16,9 km/h (3 Bft) O 79 0 min 0,000 mm 0,0 UV-I 72 W/m 11,3 C 14,0 C 22,5 km/h (4 Bft) 100,00 %
10.05.2016 18:44 17,7 C 67 % 1009,2 hPa 0,0 l/m 18,4 km/h (3 Bft) O-NO 78 0 min 0,000 mm 0,0 UV-I 81 W/m 11,5 C 13,6 C 24,1 km/h (4 Bft) 91,67 %
10.05.2016 18:45 17,7 C 66 % 1009,2 hPa 0,0 l/m 19,6 km/h (3 Bft) O-NO 67 0 min 0,000 mm 0,0 UV-I 88 W/m 11,3 C 13,3 C 27,4 km/h (4 Bft) 100,00 %
10.05.2016 18:46 17,7 C 67 % 1009,1 hPa 0,0 l/m 17,5 km/h (3 Bft) O-NO 63 0 min 0,000 mm 0,0 UV-I 92 W/m 11,5 C 13,8 C 24,1 km/h (4 Bft) 100,00 %
10.05.2016 18:47 17,7 C 67 % 1009,1 hPa 0,0 l/m 15,3 km/h (3 Bft) O-NO 57 0 min 0,000 mm 0,0 UV-I 95 W/m 11,5 C 14,4 C 22,5 km/h (4 Bft) 100,00 %
10.05.2016 18:48 17,7 C 67 % 1009,1 hPa 0,0 l/m 15,8 km/h (3 Bft) O-NO 61 0 min 0,000 mm 0,0 UV-I 92 W/m 11,5 C 14,2 C 22,5 km/h (4 Bft) 100,00 %
10.05.2016 18:49 17,7 C 67 % 1009,1 hPa 0,0 l/m 18,7 km/h (3 Bft) O 82 0 min 0,000 mm 0,0 UV-I 86 W/m 11,5 C 13,5 C 20,9 km/h (4 Bft) 94,12 %
10.05.2016 18:50 17,7 C 66 % 1009,2 hPa 0,0 l/m 16,8 km/h (3 Bft) O 86 0 min 0,000 mm 0,0 UV-I 80 W/m 11,3 C 14,0 C 24,1 km/h (4 Bft) 100,00 %
10.05.2016 18:51 17,7 C 67 % 1009,2 hPa 0,0 l/m 15,7 km/h (3 Bft) O 84 0 min 0,000 mm 0,0 UV-I 75 W/m 11,5 C 14,3 C 22,5 km/h (4 Bft) 100,00 %
10.05.2016 18:52 17,7 C 67 % 1009,2 hPa 0,0 l/m 19,3 km/h (3 Bft) O-NO 64 0 min 0,000 mm 0,0 UV-I 72 W/m 11,5 C 13,4 C 24,1 km/h (4 Bft) 100,00 %
10.05.2016 18:53 17,7 C 67 % 1009,2 hPa 0,0 l/m 18,8 km/h (3 Bft) O-NO 71 0 min 0,000 mm 0,0 UV-I 69 W/m 11,5 C 13,5 C 25,7 km/h (4 Bft) 100,00 %
10.05.2016 18:54 17,7 C 67 % 1009,2 hPa 0,0 l/m 19,0 km/h (3 Bft) O-NO 76 0 min 0,000 mm 0,0 UV-I 67 W/m 11,5 C 13,5 C 24,1 km/h (4 Bft) 100,00 %
10.05.2016 18:55 17,7 C 67 % 1009,2 hPa 0,0 l/m 15,7 km/h (3 Bft) O 89 0 min 0,000 mm 0,0 UV-I 65 W/m 11,5 C 14,3 C 22,5 km/h (4 Bft) 100,00 %
10.05.2016 18:56 17,6 C 67 % 1009,2 hPa 0,0 l/m 15,0 km/h (3 Bft) O-NO 71 0 min 0,000 mm 0,0 UV-I 63 W/m 11,4 C 14,3 C 17,7 km/h (3 Bft) 90,91 %
10.05.2016 18:57 17,6 C 68 % 1009,2 hPa 0,0 l/m 12,6 km/h (3 Bft) NO 55 0 min 0,000 mm 0,0 UV-I 63 W/m 11,6 C 15,1 C 20,9 km/h (4 Bft) 100,00 %
10.05.2016 18:58 17,6 C 68 % 1009,2 hPa 0,0 l/m 17,5 km/h (3 Bft) O-NO 75 0 min 0,000 mm 0,0 UV-I 62 W/m 11,6 C 13,7 C 22,5 km/h (4 Bft) 100,00 %
10.05.2016 18:59 17,6 C 68 % 1009,2 hPa 0,0 l/m 17,9 km/h (3 Bft) O-NO 77 0 min 0,000 mm 0,0 UV-I 62 W/m 11,6 C 13,6 C 22,5 km/h (4 Bft) 93,33 %
10.05.2016 19:00 17,6 C 67 % 1009,2 hPa 0,0 l/m 15,5 km/h (3 Bft) O 90 0 min 0,000 mm 0,0 UV-I 62 W/m 11,4 C 14,2 C 19,3 km/h (3 Bft) 100,00 %
10.05.2016 19:02 17,5 C 68 % 1009,2 hPa 0,0 l/m 18,9 km/h (3 Bft) O-NO 57 0 min 0,102 mm 0,0 UV-I 62 W/m 11,5 C 13,2 C 25,7 km/h (4 Bft) 100,00 %
10.05.2016 19:03 17,4 C 68 % 1009,2 hPa 0,0 l/m 13,9 km/h (3 Bft) O 88 0 min 0,000 mm 0,0 UV-I 62 W/m 11,4 C 14,4 C 17,7 km/h (3 Bft) 100,00 %
10.05.2016 19:04 17,4 C 68 % 1009,2 hPa 0,0 l/m 16,2 km/h (3 Bft) O 89 0 min 0,000 mm 0,0 UV-I 64 W/m 11,4 C 13,8 C 22,5 km/h (4 Bft) 100,00 %
10.05.2016 19:05 17,4 C 68 % 1009,2 hPa 0,0 l/m 14,9 km/h (3 Bft) O-NO 63 0 min 0,000 mm 0,0 UV-I 67 W/m 11,4 C 14,1 C 19,3 km/h (3 Bft) 100,00 %
10.05.2016 19:06 17,4 C 68 % 1009,2 hPa 0,0 l/m 17,7 km/h (3 Bft) O-NO 63 0 min 0,000 mm 0,0 UV-I 67 W/m 11,4 C 13,4 C 22,5 km/h (4 Bft) 100,00 %
10.05.2016 19:07 17,4 C 68 % 1009,1 hPa 0,0 l/m 19,5 km/h (3 Bft) O 88 0 min 0,000 mm 0,0 UV-I 67 W/m 11,4 C 13,0 C 22,5 km/h (4 Bft) 100,00 %
10.05.2016 19:08 17,4 C 68 % 1009,1 hPa 0,0 l/m 16,0 km/h (3 Bft) O-NO 76 0 min 0,000 mm 0,0 UV-I 65 W/m 11,4 C 13,8 C 20,9 km/h (4 Bft) 100,00 %
10.05.2016 19:09 17,4 C 68 % 1009,1 hPa 0,0 l/m 14,0 km/h (3 Bft) O 92 0 min 0,000 mm 0,0 UV-I 64 W/m 11,4 C 14,4 C 17,7 km/h (3 Bft) 95,83 %
10.05.2016 19:10 17,4 C 68 % 1009,1 hPa 0,0 l/m 12,8 km/h (3 Bft) O-NO 61 0 min 0,000 mm 0,0 UV-I 62 W/m 11,4 C 14,8 C 19,3 km/h (3 Bft) 100,00 %
10.05.2016 19:11 17,3 C 68 % 1009,2 hPa 0,0 l/m 18,9 km/h (3 Bft) O-NO 63 0 min 0,000 mm 0,0 UV-I 62 W/m 11,3 C 13,0 C 22,5 km/h (4 Bft) 100,00 %
10.05.2016 19:12 17,3 C 68 % 1009,1 hPa 0,0 l/m 14,0 km/h (3 Bft) O-NO 78 0 min 0,000 mm 0,0 UV-I 60 W/m 11,3 C 14,3 C 20,9 km/h (4 Bft) 100,00 %
10.05.2016 19:13 17,3 C 68 % 1009,1 hPa 0,0 l/m 14,1 km/h (3 Bft) O-NO 67 0 min 0,000 mm 0,0 UV-I 60 W/m 11,3 C 14,2 C 17,7 km/h (3 Bft) 100,00 %
10.05.2016 19:14 17,3 C 68 % 1009,2 hPa 0,0 l/m 14,2 km/h (3 Bft) O-NO 59 0 min 0,000 mm 0,0 UV-I 58 W/m 11,3 C 14,2 C 16,1 km/h (3 Bft) 100,00 %
10.05.2016 19:15 17,3 C 68 % 1009,3 hPa 0,0 l/m 13,5 km/h (3 Bft) O-NO 65 0 min 0,000 mm 0,0 UV-I 55 W/m 11,3 C 14,4 C 17,7 km/h (3 Bft) 92,31 %
10.05.2016 19:16 17,3 C 69 % 1009,2 hPa 0,0 l/m 12,2 km/h (2 Bft) O-NO 62 0 min 0,000 mm 0,0 UV-I 54 W/m 11,6 C 14,9 C 16,1 km/h (3 Bft) 100,00 %
10.05.2016 19:17 17,3 C 69 % 1009,2 hPa 0,0 l/m 12,4 km/h (3 Bft) NO 47 0 min 0,000 mm 0,0 UV-I 50 W/m 11,6 C 14,8 C 17,7 km/h (3 Bft) 100,00 %
10.05.2016 19:18 17,3 C 68 % 1009,2 hPa 0,0 l/m 14,3 km/h (3 Bft) O-NO 68 0 min 0,000 mm 0,0 UV-I 47 W/m 11,3 C 14,2 C 17,7 km/h (3 Bft) 100,00 %
10.05.2016 19:19 17,3 C 69 % 1009,3 hPa 0,0 l/m 16,2 km/h (3 Bft) NO 44 0 min 0,000 mm 0,0 UV-I 45 W/m 11,6 C 13,6 C 19,3 km/h (3 Bft) 100,00 %
10.05.2016 19:20 17,2 C 69 % 1009,2 hPa 0,0 l/m 12,8 km/h (3 Bft) O-NO 61 0 min 0,000 mm 0,0 UV-I 41 W/m 11,5 C 14,5 C 16,1 km/h (3 Bft) 100,00 %
10.05.2016 19:21 17,2 C 69 % 1009,2 hPa 0,0 l/m 12,5 km/h (3 Bft) NO 43 0 min 0,000 mm 0,0 UV-I 40 W/m 11,5 C 14,6 C 16,1 km/h (3 Bft) 100,00 %
10.05.2016 19:22 17,2 C 68 % 1009,2 hPa 0,0 l/m 18,2 km/h (3 Bft) O-NO 78 0 min 0,000 mm 0,0 UV-I 39 W/m 11,2 C 13,0 C 22,5 km/h (4 Bft) 95,83 %
10.05.2016 19:23 17,2 C 68 % 1009,2 hPa 0,0 l/m 17,0 km/h (3 Bft) O 88 0 min 0,000 mm 0,0 UV-I 39 W/m 11,2 C 13,3 C 20,9 km/h (4 Bft) 100,00 %
10.05.2016 19:24 17,2 C 68 % 1009,2 hPa 0,0 l/m 16,7 km/h (3 Bft) O 85 0 min 0,000 mm 0,0 UV-I 39 W/m 11,2 C 13,4 C 20,9 km/h (4 Bft) 100,00 %
10.05.2016 19:25 17,2 C 68 % 1009,2 hPa 0,0 l/m 11,8 km/h (2 Bft) NO 53 0 min 0,000 mm 0,0 UV-I 39 W/m 11,2 C 14,9 C 14,5 km/h (3 Bft) 100,00 %
10.05.2016 19:26 17,2 C 68 % 1009,2 hPa 0,0 l/m 10,5 km/h (2 Bft) O 99 0 min 0,000 mm 0,0 UV-I 39 W/m 11,2 C 15,4 C 14,5 km/h (3 Bft) 96,30 %
10.05.2016 19:27 17,1 C 69 % 1009,2 hPa 0,0 l/m 17,0 km/h (3 Bft) NO 48 0 min 0,000 mm 0,0 UV-I 39 W/m 11,4 C 13,2 C 20,9 km/h (4 Bft) 100,00 %
10.05.2016 19:28 17,1 C 68 % 1009,2 hPa 0,0 l/m 14,1 km/h (3 Bft) O-NO 62 0 min 0,000 mm 0,0 UV-I 40 W/m 11,1 C 14,0 C 22,5 km/h (4 Bft) 100,00 %
10.05.2016 19:29 17,1 C 68 % 1009,2 hPa 0,0 l/m 15,1 km/h (3 Bft) O-NO 76 0 min 0,000 mm 0,0 UV-I 40 W/m 11,1 C 13,7 C 20,9 km/h (4 Bft) 100,00 %
10.05.2016 19:30 17,1 C 68 % 1009,2 hPa 0,0 l/m 21,1 km/h (4 Bft) O-NO 64 0 min 0,000 mm 0,0 UV-I 42 W/m 11,1 C 12,2 C 27,4 km/h (4 Bft) 93,33 %
10.05.2016 19:31 17,1 C 68 % 1009,2 hPa 0,0 l/m 18,6 km/h (3 Bft) O-NO 71 0 min 0,000 mm 0,0 UV-I 42 W/m 11,1 C 12,8 C 24,1 km/h (4 Bft) 100,00 %
10.05.2016 19:32 17,1 C 68 % 1009,2 hPa 0,0 l/m 17,1 km/h (3 Bft) O-NO 72 0 min 0,000 mm 0,0 UV-I 44 W/m 11,1 C 13,2 C 22,5 km/h (4 Bft) 100,00 %
10.05.2016 19:33 17,1 C 68 % 1009,2 hPa 0,0 l/m 15,4 km/h (3 Bft) NO 53 0 min 0,000 mm 0,0 UV-I 46 W/m 11,1 C 13,6 C 22,5 km/h (4 Bft) 96,30 %
10.05.2016 19:34 17,1 C 68 % 1009,2 hPa 0,0 l/m 16,3 km/h (3 Bft) O-NO 59 0 min 0,000 mm 0,0 UV-I 47 W/m 11,1 C 13,4 C 20,9 km/h (4 Bft) 100,00 %
10.05.2016 19:35 17,1 C 69 % 1009,2 hPa 0,0 l/m 13,4 km/h (3 Bft) NO 55 0 min 0,000 mm 0,0 UV-I 47 W/m 11,4 C 14,2 C 17,7 km/h (3 Bft) 100,00 %
10.05.2016 19:36 17,1 C 69 % 1009,2 hPa 0,0 l/m 15,8 km/h (3 Bft) O-NO 59 0 min 0,000 mm 0,0 UV-I 47 W/m 11,4 C 13,5 C 20,9 km/h (4 Bft) 100,00 %
10.05.2016 19:37 17,0 C 68 % 1009,2 hPa 0,0 l/m 16,0 km/h (3 Bft) O-NO 59 0 min 0,000 mm 0,0 UV-I 47 W/m 11,0 C 13,3 C 20,9 km/h (4 Bft) 100,00 %
10.05.2016 19:38 17,0 C 69 % 1009,2 hPa 0,0 l/m 11,9 km/h (2 Bft) NO 48 0 min 0,000 mm 0,0 UV-I 47 W/m 11,3 C 14,6 C 14,5 km/h (3 Bft) 100,00 %
10.05.2016 19:39 17,0 C 70 % 1009,2 hPa 0,0 l/m 11,4 km/h (2 Bft) O-NO 73 0 min 0,000 mm 0,0 UV-I 46 W/m 11,5 C 14,8 C 17,7 km/h (3 Bft) 100,00 %
10.05.2016 19:40 16,9 C 69 % 1009,2 hPa 0,0 l/m 15,4 km/h (3 Bft) O-NO 58 0 min 0,000 mm 0,0 UV-I 44 W/m 11,2 C 13,4 C 24,1 km/h (4 Bft) 100,00 %
10.05.2016 19:41 16,9 C 69 % 1009,3 hPa 0,0 l/m 16,9 km/h (3 Bft) O-NO 61 0 min 0,000 mm 0,0 UV-I 44 W/m 11,2 C 13,0 C 20,9 km/h (4 Bft) 100,00 %
10.05.2016 19:42 16,9 C 69 % 1009,3 hPa 0,0 l/m 15,5 km/h (3 Bft) NO 52 0 min 0,000 mm 0,0 UV-I 42 W/m 11,2 C 13,3 C 20,9 km/h (4 Bft) 100,00 %
10.05.2016 19:43 16,9 C 70 % 1009,2 hPa 0,0 l/m 11,9 km/h (2 Bft) O-NO 57 0 min 0,000 mm 0,0 UV-I 40 W/m 11,4 C 14,5 C 16,1 km/h (3 Bft) 100,00 %
10.05.2016 19:44 16,9 C 70 % 1009,3 hPa 0,0 l/m 9,7 km/h (2 Bft) O-NO 59 0 min 0,000 mm 0,0 UV-I 38 W/m 11,4 C 15,3 C 14,5 km/h (3 Bft) 96,15 %
10.05.2016 19:45 16,9 C 69 % 1009,3 hPa 0,0 l/m 13,7 km/h (3 Bft) O-NO 59 0 min 0,000 mm 0,0 UV-I 37 W/m 11,2 C 13,9 C 16,1 km/h (3 Bft) 100,00 %
10.05.2016 19:46 16,8 C 70 % 1009,3 hPa 0,0 l/m 10,7 km/h (2 Bft) NO 44 0 min 0,000 mm 0,0 UV-I 36 W/m 11,3 C 14,8 C 14,5 km/h (3 Bft) 100,00 %
10.05.2016 19:47 16,8 C 70 % 1009,2 hPa 0,0 l/m 9,8 km/h (2 Bft) O 79 0 min 0,000 mm 0,0 UV-I 35 W/m 11,3 C 15,2 C 14,5 km/h (3 Bft) 100,00 %
10.05.2016 19:48 16,8 C 70 % 1009,2 hPa 0,0 l/m 10,7 km/h (2 Bft) O-NO 60 0 min 0,000 mm 0,0 UV-I 35 W/m 11,3 C 14,8 C 16,1 km/h (3 Bft) 100,00 %
10.05.2016 19:49 16,8 C 70 % 1009,3 hPa 0,0 l/m 12,3 km/h (3 Bft) O-NO 74 0 min 0,000 mm 0,0 UV-I 33 W/m 11,3 C 14,2 C 16,1 km/h (3 Bft) 100,00 %
10.05.2016 19:50 16,8 C 70 % 1009,2 hPa 0,0 l/m 11,2 km/h (2 Bft) O-NO 57 0 min 0,000 mm 0,0 UV-I 33 W/m 11,3 C 14,6 C 16,1 km/h (3 Bft) 100,00 %
10.05.2016 19:51 16,8 C 70 % 1009,3 hPa 0,0 l/m 9,8 km/h (2 Bft) O-NO 71 0 min 0,000 mm 0,0 UV-I 31 W/m 11,3 C 15,2 C 12,9 km/h (3 Bft) 100,00 %
10.05.2016 19:52 16,8 C 70 % 1009,3 hPa 0,0 l/m 9,2 km/h (2 Bft) O-NO 62 0 min 0,000 mm 0,0 UV-I 29 W/m 11,3 C 15,4 C 16,1 km/h (3 Bft) 100,00 %
10.05.2016 19:54 16,8 C 70 % 1009,3 hPa 0,0 l/m 7,8 km/h (2 Bft) NO 38 0 min 0,000 mm 0,0 UV-I 24 W/m 11,3 C 16,1 C 11,3 km/h (2 Bft) 100,00 %
10.05.2016 19:55 16,8 C 70 % 1009,3 hPa 0,0 l/m 14,5 km/h (3 Bft) O-NO 61 0 min 0,000 mm 0,0 UV-I 21 W/m 11,3 C 13,5 C 16,1 km/h (3 Bft) 100,00 %
10.05.2016 19:59 16,7 C 71 % 1009,3 hPa 0,0 l/m 14,7 km/h (3 Bft) NO 48 0 min 0,000 mm 0,0 UV-I 18 W/m 11,4 C 13,3 C 17,7 km/h (3 Bft) 97,83 %
10.05.2016 20:00 16,7 C 70 % 1009,3 hPa 0,0 l/m 14,3 km/h (3 Bft) NO 43 0 min 0,000 mm 0,0 UV-I 16 W/m 11,2 C 13,5 C 19,3 km/h (3 Bft) 98,76 %
10.05.2016 20:01 16,7 C 70 % 1009,2 hPa 0,0 l/m 9,6 km/h (2 Bft) O-NO 63 0 min 0,076 mm 0,0 UV-I 16 W/m 11,2 C 15,2 C 14,5 km/h (3 Bft) 97,56 %
10.05.2016 20:02 16,7 C 71 % 1009,3 hPa 0,0 l/m 11,1 km/h (2 Bft) O-NO 57 0 min 0,000 mm 0,0 UV-I 15 W/m 11,4 C 14,6 C 16,1 km/h (3 Bft) 100,00 %
10.05.2016 20:03 16,7 C 70 % 1009,3 hPa 0,0 l/m 18,0 km/h (3 Bft) O-NO 67 0 min 0,000 mm 0,0 UV-I 14 W/m 11,2 C 12,4 C 24,1 km/h (4 Bft) 93,33 %
10.05.2016 20:04 16,7 C 70 % 1009,3 hPa 0,0 l/m 16,3 km/h (3 Bft) O-NO 78 0 min 0,000 mm 0,0 UV-I 13 W/m 11,2 C 12,9 C 22,5 km/h (4 Bft) 95,12 %
10.05.2016 20:05 16,7 C 70 % 1009,3 hPa 0,0 l/m 15,4 km/h (3 Bft) O-NO 66 0 min 0,000 mm 0,0 UV-I 12 W/m 11,2 C 13,1 C 22,5 km/h (4 Bft) 100,00 %
10.05.2016 20:06 16,7 C 70 % 1009,3 hPa 0,0 l/m 11,7 km/h (2 Bft) NO 44 0 min 0,000 mm 0,0 UV-I 11 W/m 11,2 C 14,3 C 14,5 km/h (3 Bft) 100,00 %
10.05.2016 20:07 16,7 C 70 % 1009,3 hPa 0,0 l/m 12,8 km/h (3 Bft) O-NO 68 0 min 0,000 mm 0,0 UV-I 10 W/m 11,2 C 14,0 C 17,7 km/h (3 Bft) 90,91 %
10.05.2016 20:08 16,6 C 71 % 1009,3 hPa 0,0 l/m 11,2 km/h (2 Bft) O-NO 64 0 min 0,000 mm 0,0 UV-I 9 W/m 11,3 C 14,4 C 14,5 km/h (3 Bft) 97,37 %
10.05.2016 20:09 16,6 C 71 % 1009,3 hPa 0,0 l/m 13,8 km/h (3 Bft) O-NO 75 0 min 0,000 mm 0,0 UV-I 9 W/m 11,3 C 13,5 C 20,9 km/h (4 Bft) 100,00 %
10.05.2016 20:10 16,6 C 71 % 1009,3 hPa 0,0 l/m 14,7 km/h (3 Bft) O-NO 69 0 min 0,000 mm 0,0 UV-I 9 W/m 11,3 C 13,2 C 17,7 km/h (3 Bft) 91,67 %
10.05.2016 20:11 16,6 C 71 % 1009,3 hPa 0,0 l/m 12,9 km/h (3 Bft) O-NO 59 0 min 0,000 mm 0,0 UV-I 9 W/m 11,3 C 13,8 C 16,1 km/h (3 Bft) 100,00 %
10.05.2016 20:12 16,6 C 71 % 1009,3 hPa 0,0 l/m 11,7 km/h (2 Bft) O-NO 75 0 min 0,000 mm 0,0 UV-I 9 W/m 11,3 C 14,2 C 16,1 km/h (3 Bft) 95,83 %
10.05.2016 20:13 16,6 C 71 % 1009,2 hPa 0,0 l/m 10,3 km/h (2 Bft) NO 56 0 min 0,000 mm 0,0 UV-I 9 W/m 11,3 C 14,8 C 16,1 km/h (3 Bft) 100,00 %
10.05.2016 20:14 16,5 C 71 % 1009,3 hPa 0,0 l/m 14,3 km/h (3 Bft) O-NO 68 0 min 0,000 mm 0,0 UV-I 9 W/m 11,2 C 13,2 C 19,3 km/h (3 Bft) 96,67 %
10.05.2016 20:15 16,4 C 71 % 1009,2 hPa 0,0 l/m 13,6 km/h (3 Bft) O-NO 76 0 min 0,000 mm 0,0 UV-I 8 W/m 11,1 C 13,3 C 20,9 km/h (4 Bft) 100,00 %
10.05.2016 20:16 16,4 C 71 % 1009,2 hPa 0,0 l/m 15,5 km/h (3 Bft) NO 51 0 min 0,000 mm 0,0 UV-I 7 W/m 11,1 C 12,7 C 20,9 km/h (4 Bft) 95,83 %
10.05.2016 20:17 16,4 C 71 % 1009,2 hPa 0,0 l/m 18,3 km/h (3 Bft) O-NO 63 0 min 0,000 mm 0,0 UV-I 7 W/m 11,1 C 12,0 C 25,7 km/h (4 Bft) 96,55 %
10.05.2016 20:18 16,4 C 71 % 1009,2 hPa 0,0 l/m 12,0 km/h (2 Bft) O-NO 57 0 min 0,000 mm 0,0 UV-I 7 W/m 11,1 C 13,9 C 19,3 km/h (3 Bft) 100,00 %
10.05.2016 20:19 16,4 C 71 % 1009,2 hPa 0,0 l/m 10,1 km/h (2 Bft) O 90 0 min 0,000 mm 0,0 UV-I 7 W/m 11,1 C 14,6 C 17,7 km/h (3 Bft) 95,65 %
10.05.2016 20:20 16,4 C 72 % 1009,3 hPa 0,0 l/m 11,7 km/h (2 Bft) O 91 0 min 0,000 mm 0,0 UV-I 6 W/m 11,3 C 14,0 C 16,1 km/h (3 Bft) 100,00 %
10.05.2016 20:21 16,3 C 72 % 1009,3 hPa 0,0 l/m 10,1 km/h (2 Bft) O-NO 59 0 min 0,000 mm 0,0 UV-I 5 W/m 11,2 C 14,5 C 17,7 km/h (3 Bft) 92,86 %
10.05.2016 20:22 16,3 C 72 % 1009,2 hPa 0,0 l/m 8,0 km/h (2 Bft) O 80 0 min 0,000 mm 0,0 UV-I 5 W/m 11,2 C 15,5 C 11,3 km/h (2 Bft) 100,00 %
10.05.2016 20:23 16,3 C 72 % 1009,2 hPa 0,0 l/m 8,3 km/h (2 Bft) O-NO 76 0 min 0,000 mm 0,0 UV-I 5 W/m 11,2 C 15,3 C 12,9 km/h (3 Bft) 94,12 %
10.05.2016 20:24 16,3 C 72 % 1009,2 hPa 0,0 l/m 10,1 km/h (2 Bft) O-NO 64 0 min 0,000 mm 0,0 UV-I 5 W/m 11,2 C 14,5 C 16,1 km/h (3 Bft) 96,67 %
10.05.2016 20:25 16,3 C 72 % 1009,2 hPa 0,0 l/m 15,8 km/h (3 Bft) O 86 0 min 0,000 mm 0,0 UV-I 3 W/m 11,2 C 12,5 C 19,3 km/h (3 Bft) 100,00 %
10.05.2016 20:26 16,3 C 72 % 1009,2 hPa 0,0 l/m 14,4 km/h (3 Bft) O-NO 65 0 min 0,000 mm 0,0 UV-I 0 W/m 11,2 C 13,0 C 20,9 km/h (4 Bft) 96,30 %
10.05.2016 20:27 16,3 C 72 % 1009,2 hPa 0,0 l/m 11,3 km/h (2 Bft) O-NO 64 0 min 0,000 mm 0,0 UV-I 0 W/m 11,2 C 14,0 C 16,1 km/h (3 Bft) 100,00 %
10.05.2016 20:28 16,2 C 73 % 1009,2 hPa 0,0 l/m 9,7 km/h (2 Bft) O-NO 60 0 min 0,000 mm 0,0 UV-I 0 W/m 11,4 C 14,6 C 14,5 km/h (3 Bft) 95,83 %
10.05.2016 20:29 16,2 C 72 % 1009,2 hPa 0,0 l/m 15,0 km/h (3 Bft) NO 53 0 min 0,000 mm 0,0 UV-I 0 W/m 11,1 C 12,6 C 19,3 km/h (3 Bft) 100,00 %
10.05.2016 20:30 16,2 C 72 % 1009,2 hPa 0,0 l/m 12,4 km/h (3 Bft) O-NO 74 0 min 0,000 mm 0,0 UV-I 0 W/m 11,1 C 13,5 C 16,1 km/h (3 Bft) 93,33 %
10.05.2016 20:31 16,2 C 73 % 1009,2 hPa 0,0 l/m 12,3 km/h (3 Bft) O-NO 67 0 min 0,000 mm 0,0 UV-I 0 W/m 11,4 C 13,5 C 16,1 km/h (3 Bft) 100,00 %
10.05.2016 20:32 16,2 C 73 % 1009,3 hPa 0,0 l/m 8,9 km/h (2 Bft) O-NO 57 0 min 0,000 mm 0,0 UV-I 0 W/m 11,4 C 14,9 C 12,9 km/h (3 Bft) 95,65 %
10.05.2016 20:33 16,2 C 73 % 1009,3 hPa 0,0 l/m 8,0 km/h (2 Bft) O-NO 57 0 min 0,000 mm 0,0 UV-I 0 W/m 11,4 C 15,4 C 11,3 km/h (2 Bft) 87,50 %
10.05.2016 20:34 16,2 C 73 % 1009,3 hPa 0,0 l/m 10,4 km/h (2 Bft) O-NO 59 0 min 0,000 mm 0,0 UV-I 0 W/m 11,4 C 14,3 C 16,1 km/h (3 Bft) 96,55 %
10.05.2016 20:35 16,1 C 73 % 1009,3 hPa 0,0 l/m 10,5 km/h (2 Bft) O-NO 72 0 min 0,000 mm 0,0 UV-I 0 W/m 11,3 C 14,1 C 19,3 km/h (3 Bft) 100,00 %
10.05.2016 20:36 16,1 C 73 % 1009,3 hPa 0,0 l/m 13,3 km/h (3 Bft) O-NO 65 0 min 0,000 mm 0,0 UV-I 0 W/m 11,3 C 13,1 C 16,1 km/h (3 Bft) 100,00 %
10.05.2016 20:37 16,1 C 73 % 1009,3 hPa 0,0 l/m 9,2 km/h (2 Bft) O-NO 66 0 min 0,000 mm 0,0 UV-I 0 W/m 11,3 C 14,7 C 16,1 km/h (3 Bft) 100,00 %
10.05.2016 20:38 16,1 C 73 % 1009,3 hPa 0,0 l/m 11,2 km/h (2 Bft) NO 36 0 min 0,000 mm 0,0 UV-I 0 W/m 11,3 C 13,8 C 16,1 km/h (3 Bft) 100,00 %
10.05.2016 20:39 16,1 C 73 % 1009,3 hPa 0,0 l/m 13,4 km/h (3 Bft) NO 52 0 min 0,000 mm 0,0 UV-I 0 W/m 11,3 C 13,0 C 19,3 km/h (3 Bft) 100,00 %
10.05.2016 20:40 16,1 C 73 % 1009,3 hPa 0,0 l/m 9,6 km/h (2 Bft) O-NO 62 0 min 0,000 mm 0,0 UV-I 0 W/m 11,3 C 14,5 C 14,5 km/h (3 Bft) 81,82 %
10.05.2016 20:41 16,1 C 73 % 1009,4 hPa 0,0 l/m 11,9 km/h (2 Bft) NO 56 0 min 0,000 mm 0,0 UV-I 0 W/m 11,3 C 13,6 C 19,3 km/h (3 Bft) 96,30 %
10.05.2016 20:42 16,1 C 73 % 1009,4 hPa 0,0 l/m 13,7 km/h (3 Bft) O-NO 65 0 min 0,000 mm 0,0 UV-I 0 W/m 11,3 C 12,9 C 19,3 km/h (3 Bft) 100,00 %
10.05.2016 20:43 16,1 C 73 % 1009,4 hPa 0,0 l/m 12,9 km/h (3 Bft) O-NO 71 0 min 0,000 mm 0,0 UV-I 0 W/m 11,3 C 13,2 C 19,3 km/h (3 Bft) 100,00 %
10.05.2016 20:44 16,0 C 73 % 1009,4 hPa 0,0 l/m 9,7 km/h (2 Bft) NO 43 0 min 0,000 mm 0,0 UV-I 0 W/m 11,2 C 14,4 C 14,5 km/h (3 Bft) 100,00 %
10.05.2016 20:45 16,0 C 74 % 1009,4 hPa 0,0 l/m 9,6 km/h (2 Bft) O 86 0 min 0,000 mm 0,0 UV-I 0 W/m 11,4 C 14,4 C 14,5 km/h (3 Bft) 100,00 %
10.05.2016 20:46 16,0 C 74 % 1009,4 hPa 0,0 l/m 7,5 km/h (2 Bft) NO 51 0 min 0,000 mm 0,0 UV-I 0 W/m 11,4 C 15,4 C 11,3 km/h (2 Bft) 95,65 %
10.05.2016 20:47 15,9 C 74 % 1009,4 hPa 0,0 l/m 10,2 km/h (2 Bft) O-NO 62 0 min 0,000 mm 0,0 UV-I 0 W/m 11,3 C 14,0 C 14,5 km/h (3 Bft) 100,00 %
10.05.2016 20:48 15,9 C 74 % 1009,3 hPa 0,0 l/m 10,2 km/h (2 Bft) O-NO 66 0 min 0,000 mm 0,0 UV-I 0 W/m 11,3 C 14,0 C 14,5 km/h (3 Bft) 100,00 %
10.05.2016 20:49 15,8 C 74 % 1009,4 hPa 0,0 l/m 8,4 km/h (2 Bft) O-NO 74 0 min 0,000 mm 0,0 UV-I 0 W/m 11,2 C 14,7 C 11,3 km/h (2 Bft) 100,00 %
10.05.2016 20:50 15,8 C 74 % 1009,5 hPa 0,0 l/m 8,4 km/h (2 Bft) O-NO 78 0 min 0,000 mm 0,0 UV-I 0 W/m 11,2 C 14,7 C 14,5 km/h (3 Bft) 100,00 %
10.05.2016 20:51 15,8 C 75 % 1009,4 hPa 0,0 l/m 8,3 km/h (2 Bft) O-NO 64 0 min 0,000 mm 0,0 UV-I 0 W/m 11,4 C 14,8 C 12,9 km/h (3 Bft) 100,00 %
10.05.2016 20:52 15,8 C 75 % 1009,5 hPa 0,0 l/m 9,4 km/h (2 Bft) O-NO 60 0 min 0,000 mm 0,0 UV-I 0 W/m 11,4 C 14,3 C 14,5 km/h (3 Bft) 100,00 %
10.05.2016 20:53 15,8 C 75 % 1009,5 hPa 0,0 l/m 8,1 km/h (2 Bft) O-NO 65 0 min 0,000 mm 0,0 UV-I 0 W/m 11,4 C 14,9 C 12,9 km/h (3 Bft) 96,15 %
10.05.2016 20:54 15,7 C 75 % 1009,5 hPa 0,0 l/m 9,3 km/h (2 Bft) NO 51 0 min 0,000 mm 0,0 UV-I 0 W/m 11,3 C 14,2 C 14,5 km/h (3 Bft) 100,00 %
10.05.2016 20:55 15,7 C 75 % 1009,5 hPa 0,0 l/m 6,9 km/h (2 Bft) O 87 0 min 0,000 mm 0,0 UV-I 0 W/m 11,3 C 15,4 C 8,0 km/h (2 Bft) 100,00 %
10.05.2016 20:56 15,7 C 75 % 1009,5 hPa 0,0 l/m 10,4 km/h (2 Bft) O-NO 60 0 min 0,000 mm 0,0 UV-I 0 W/m 11,3 C 13,7 C 16,1 km/h (3 Bft) 100,00 %
10.05.2016 20:57 15,7 C 75 % 1009,6 hPa 0,0 l/m 10,3 km/h (2 Bft) O-NO 70 0 min 0,000 mm 0,0 UV-I 0 W/m 11,3 C 13,8 C 14,5 km/h (3 Bft) 100,00 %
10.05.2016 20:58 15,7 C 75 % 1009,5 hPa 0,0 l/m 13,1 km/h (3 Bft) O-NO 57 0 min 0,000 mm 0,0 UV-I 0 W/m 11,3 C 12,7 C 19,3 km/h (3 Bft) 100,00 %
10.05.2016 20:59 15,7 C 75 % 1009,6 hPa 0,0 l/m 9,3 km/h (2 Bft) NO 55 0 min 0,000 mm 0,0 UV-I 0 W/m 11,3 C 14,2 C 14,5 km/h (3 Bft) 100,00 %
10.05.2016 21:00 15,7 C 75 % 1009,6 hPa 0,0 l/m 8,6 km/h (2 Bft) NO 55 0 min 0,000 mm 0,0 UV-I 0 W/m 11,3 C 14,5 C 11,3 km/h (2 Bft) 100,00 %
10.05.2016 21:02 15,7 C 76 % 1009,7 hPa 0,0 l/m 9,2 km/h (2 Bft) O-NO 62 0 min 0,051 mm 0,0 UV-I 0 W/m 11,5 C 14,3 C 14,5 km/h (3 Bft) 97,73 %
10.05.2016 21:03 15,6 C 76 % 1009,7 hPa 0,0 l/m 7,9 km/h (2 Bft) O 80 0 min 0,000 mm 0,0 UV-I 0 W/m 11,4 C 14,8 C 11,3 km/h (2 Bft) 100,00 %
10.05.2016 21:04 15,6 C 75 % 1009,7 hPa 0,0 l/m 9,8 km/h (2 Bft) NO 55 0 min 0,000 mm 0,0 UV-I 0 W/m 11,2 C 13,9 C 16,1 km/h (3 Bft) 96,15 %
10.05.2016 21:05 15,6 C 75 % 1009,7 hPa 0,0 l/m 14,5 km/h (3 Bft) O 86 0 min 0,000 mm 0,0 UV-I 0 W/m 11,2 C 12,1 C 17,7 km/h (3 Bft) 96,15 %
10.05.2016 21:06 15,6 C 75 % 1009,7 hPa 0,0 l/m 12,2 km/h (2 Bft) O-NO 62 0 min 0,000 mm 0,0 UV-I 0 W/m 11,2 C 12,9 C 16,1 km/h (3 Bft) 100,00 %
10.05.2016 21:07 15,6 C 75 % 1009,7 hPa 0,0 l/m 12,9 km/h (3 Bft) O-NO 60 0 min 0,000 mm 0,0 UV-I 0 W/m 11,2 C 12,6 C 20,9 km/h (4 Bft) 100,00 %
10.05.2016 21:08 15,6 C 75 % 1009,7 hPa 0,0 l/m 14,8 km/h (3 Bft) O-NO 67 0 min 0,000 mm 0,0 UV-I 0 W/m 11,2 C 12,0 C 19,3 km/h (3 Bft) 100,00 %
10.05.2016 21:09 15,6 C 75 % 1009,7 hPa 0,0 l/m 14,5 km/h (3 Bft) O-NO 65 0 min 0,000 mm 0,0 UV-I 0 W/m 11,2 C 12,1 C 22,5 km/h (4 Bft) 100,00 %
10.05.2016 21:10 15,6 C 75 % 1009,7 hPa 0,0 l/m 13,4 km/h (3 Bft) NO 56 0 min 0,000 mm 0,0 UV-I 0 W/m 11,2 C 12,5 C 19,3 km/h (3 Bft) 93,10 %
10.05.2016 21:11 15,6 C 75 % 1009,6 hPa 0,0 l/m 15,9 km/h (3 Bft) O-NO 77 0 min 0,000 mm 0,0 UV-I 0 W/m 11,2 C 11,6 C 20,9 km/h (4 Bft) 100,00 %
10.05.2016 21:12 15,6 C 75 % 1009,6 hPa 0,0 l/m 13,4 km/h (3 Bft) O-NO 57 0 min 0,000 mm 0,0 UV-I 0 W/m 11,2 C 12,5 C 17,7 km/h (3 Bft) 95,83 %
10.05.2016 21:13 15,6 C 75 % 1009,7 hPa 0,0 l/m 7,8 km/h (2 Bft) O 84 0 min 0,000 mm 0,0 UV-I 0 W/m 11,2 C 14,8 C 11,3 km/h (2 Bft) 100,00 %
10.05.2016 21:14 15,6 C 75 % 1009,7 hPa 0,0 l/m 15,4 km/h (3 Bft) O-NO 60 0 min 0,000 mm 0,0 UV-I 0 W/m 11,2 C 11,8 C 19,3 km/h (3 Bft) 100,00 %
10.05.2016 21:15 15,6 C 75 % 1009,7 hPa 0,0 l/m 13,0 km/h (3 Bft) O-NO 63 0 min 0,000 mm 0,0 UV-I 0 W/m 11,2 C 12,6 C 17,7 km/h (3 Bft) 100,00 %
10.05.2016 21:16 15,6 C 75 % 1009,7 hPa 0,0 l/m 18,5 km/h (3 Bft) O-NO 69 0 min 0,000 mm 0,0 UV-I 0 W/m 11,2 C 10,9 C 24,1 km/h (4 Bft) 100,00 %
10.05.2016 21:17 15,6 C 75 % 1009,7 hPa 0,0 l/m 12,1 km/h (2 Bft) O-NO 73 0 min 0,000 mm 0,0 UV-I 0 W/m 11,2 C 12,9 C 16,1 km/h (3 Bft) 100,00 %
10.05.2016 21:18 15,6 C 75 % 1009,7 hPa 0,0 l/m 13,2 km/h (3 Bft) O 87 0 min 0,000 mm 0,0 UV-I 0 W/m 11,2 C 12,5 C 16,1 km/h (3 Bft) 100,00 %
10.05.2016 21:19 15,5 C 75 % 1009,7 hPa 0,0 l/m 12,4 km/h (3 Bft) NO 53 0 min 0,000 mm 0,0 UV-I 0 W/m 11,1 C 12,7 C 17,7 km/h (3 Bft) 100,00 %
10.05.2016 21:20 15,5 C 75 % 1009,7 hPa 0,0 l/m 10,9 km/h (2 Bft) O-NO 71 0 min 0,000 mm 0,0 UV-I 0 W/m 11,1 C 13,3 C 20,9 km/h (4 Bft) 100,00 %
10.05.2016 21:21 15,5 C 75 % 1009,7 hPa 0,0 l/m 6,7 km/h (2 Bft) O 89 0 min 0,000 mm 0,0 UV-I 0 W/m 11,1 C 15,3 C 8,0 km/h (2 Bft) 100,00 %
10.05.2016 21:22 15,5 C 75 % 1009,8 hPa 0,0 l/m 10,8 km/h (2 Bft) O-NO 76 0 min 0,000 mm 0,0 UV-I 0 W/m 11,1 C 13,3 C 16,1 km/h (3 Bft) 100,00 %
10.05.2016 21:23 15,5 C 76 % 1009,8 hPa 0,0 l/m 13,7 km/h (3 Bft) O-NO 66 0 min 0,000 mm 0,0 UV-I 0 W/m 11,3 C 12,2 C 17,7 km/h (3 Bft) 100,00 %
10.05.2016 21:24 15,5 C 76 % 1009,8 hPa 0,0 l/m 12,9 km/h (3 Bft) O 92 0 min 0,000 mm 0,0 UV-I 0 W/m 11,3 C 12,5 C 17,7 km/h (3 Bft) 100,00 %
10.05.2016 21:25 15,4 C 76 % 1009,8 hPa 0,0 l/m 11,8 km/h (2 Bft) O 100 0 min 0,000 mm 0,0 UV-I 0 W/m 11,2 C 12,8 C 16,1 km/h (3 Bft) 100,00 %
10.05.2016 21:26 15,4 C 76 % 1009,8 hPa 0,0 l/m 9,0 km/h (2 Bft) O-SO 106 0 min 0,000 mm 0,0 UV-I 0 W/m 11,2 C 14,0 C 14,5 km/h (3 Bft) 100,00 %
10.05.2016 21:27 15,4 C 76 % 1009,8 hPa 0,0 l/m 9,1 km/h (2 Bft) O-NO 78 0 min 0,000 mm 0,0 UV-I 0 W/m 11,2 C 14,0 C 12,9 km/h (3 Bft) 100,00 %
10.05.2016 21:28 15,4 C 76 % 1009,8 hPa 0,0 l/m 11,1 km/h (2 Bft) O-NO 67 0 min 0,000 mm 0,0 UV-I 0 W/m 11,2 C 13,1 C 17,7 km/h (3 Bft) 100,00 %
10.05.2016 21:29 15,4 C 76 % 1009,8 hPa 0,0 l/m 12,1 km/h (2 Bft) O 89 0 min 0,000 mm 0,0 UV-I 0 W/m 11,2 C 12,7 C 19,3 km/h (3 Bft) 100,00 %
10.05.2016 21:30 15,4 C 76 % 1009,9 hPa 0,0 l/m 16,3 km/h (3 Bft) O-NO 74 0 min 0,000 mm 0,0 UV-I 0 W/m 11,2 C 11,3 C 24,1 km/h (4 Bft) 100,00 %
10.05.2016 21:31 15,4 C 76 % 1009,9 hPa 0,0 l/m 12,1 km/h (2 Bft) O-SO 107 0 min 0,000 mm 0,0 UV-I 0 W/m 11,2 C 12,7 C 16,1 km/h (3 Bft) 100,00 %
10.05.2016 21:32 15,4 C 76 % 1009,9 hPa 0,0 l/m 14,0 km/h (3 Bft) O 86 0 min 0,000 mm 0,0 UV-I 0 W/m 11,2 C 12,0 C 17,7 km/h (3 Bft) 100,00 %
10.05.2016 21:33 15,4 C 76 % 1009,9 hPa 0,0 l/m 15,7 km/h (3 Bft) O 84 0 min 0,000 mm 0,0 UV-I 0 W/m 11,2 C 11,5 C 17,7 km/h (3 Bft) 100,00 %
10.05.2016 21:34 15,4 C 76 % 1009,9 hPa 0,0 l/m 12,6 km/h (3 Bft) O-NO 66 0 min 0,000 mm 0,0 UV-I 0 W/m 11,2 C 12,5 C 19,3 km/h (3 Bft) 100,00 %
10.05.2016 21:35 15,3 C 76 % 1009,9 hPa 0,0 l/m 12,7 km/h (3 Bft) O-NO 75 0 min 0,000 mm 0,0 UV-I 0 W/m 11,1 C 12,4 C 16,1 km/h (3 Bft) 100,00 %
10.05.2016 21:36 15,3 C 76 % 1009,9 hPa 0,0 l/m 10,9 km/h (2 Bft) O-NO 65 0 min 0,000 mm 0,0 UV-I 0 W/m 11,1 C 13,1 C 16,1 km/h (3 Bft) 100,00 %
10.05.2016 21:37 15,3 C 76 % 1009,9 hPa 0,0 l/m 13,9 km/h (3 Bft) O 82 0 min 0,000 mm 0,0 UV-I 0 W/m 11,1 C 11,9 C 17,7 km/h (3 Bft) 92,86 %
10.05.2016 21:38 15,3 C 76 % 1009,9 hPa 0,0 l/m 11,6 km/h (2 Bft) O 82 0 min 0,000 mm 0,0 UV-I 0 W/m 11,1 C 12,8 C 17,7 km/h (3 Bft) 93,33 %
10.05.2016 21:39 15,3 C 76 % 1009,9 hPa 0,0 l/m 9,8 km/h (2 Bft) O-NO 73 0 min 0,000 mm 0,0 UV-I 0 W/m 11,1 C 13,5 C 12,9 km/h (3 Bft) 100,00 %
10.05.2016 21:40 15,3 C 76 % 1009,9 hPa 0,0 l/m 11,3 km/h (2 Bft) O-SO 121 0 min 0,000 mm 0,0 UV-I 0 W/m 11,1 C 12,9 C 17,7 km/h (3 Bft) 96,30 %
10.05.2016 21:41 15,3 C 76 % 1009,9 hPa 0,0 l/m 14,7 km/h (3 Bft) NO 48 0 min 0,000 mm 0,0 UV-I 0 W/m 11,1 C 11,7 C 20,9 km/h (4 Bft) 100,00 %
10.05.2016 21:42 15,3 C 76 % 1009,9 hPa 0,0 l/m 11,9 km/h (2 Bft) O 81 0 min 0,000 mm 0,0 UV-I 0 W/m 11,1 C 12,7 C 19,3 km/h (3 Bft) 100,00 %
10.05.2016 21:43 15,2 C 76 % 1009,9 hPa 0,0 l/m 12,7 km/h (3 Bft) O 82 0 min 0,000 mm 0,0 UV-I 0 W/m 11,0 C 12,2 C 17,7 km/h (3 Bft) 100,00 %
10.05.2016 21:44 15,2 C 76 % 1009,9 hPa 0,0 l/m 14,8 km/h (3 Bft) O 86 0 min 0,000 mm 0,0 UV-I 0 W/m 11,0 C 11,5 C 17,7 km/h (3 Bft) 100,00 %
10.05.2016 21:45 15,2 C 76 % 1009,9 hPa 0,0 l/m 16,2 km/h (3 Bft) O-NO 78 0 min 0,000 mm 0,0 UV-I 0 W/m 11,0 C 11,1 C 22,5 km/h (4 Bft) 100,00 %
10.05.2016 21:46 15,2 C 76 % 1009,9 hPa 0,0 l/m 16,9 km/h (3 Bft) O-NO 68 0 min 0,000 mm 0,0 UV-I 0 W/m 11,0 C 10,8 C 25,7 km/h (4 Bft) 100,00 %
10.05.2016 21:47 15,2 C 76 % 1009,9 hPa 0,0 l/m 11,6 km/h (2 Bft) O 95 0 min 0,000 mm 0,0 UV-I 0 W/m 11,0 C 12,7 C 19,3 km/h (3 Bft) 100,00 %
10.05.2016 21:48 15,2 C 76 % 1009,9 hPa 0,0 l/m 13,7 km/h (3 Bft) O-NO 69 0 min 0,000 mm 0,0 UV-I 0 W/m 11,0 C 11,9 C 19,3 km/h (3 Bft) 96,30 %
10.05.2016 21:49 15,2 C 76 % 1009,9 hPa 0,0 l/m 10,6 km/h (2 Bft) O 96 0 min 0,000 mm 0,0 UV-I 0 W/m 11,0 C 13,1 C 14,5 km/h (3 Bft) 100,00 %
10.05.2016 21:50 15,2 C 76 % 1009,9 hPa 0,0 l/m 10,5 km/h (2 Bft) O-NO 57 0 min 0,000 mm 0,0 UV-I 0 W/m 11,0 C 13,1 C 17,7 km/h (3 Bft) 100,00 %
10.05.2016 21:51 15,2 C 76 % 1010,0 hPa 0,0 l/m 11,6 km/h (2 Bft) O-NO 76 0 min 0,000 mm 0,0 UV-I 0 W/m 11,0 C 12,7 C 16,1 km/h (3 Bft) 96,30 %
10.05.2016 21:52 15,2 C 76 % 1010,0 hPa 0,0 l/m 18,7 km/h (3 Bft) O 92 0 min 0,000 mm 0,0 UV-I 0 W/m 11,0 C 10,3 C 25,7 km/h (4 Bft) 100,00 %
10.05.2016 21:53 15,1 C 76 % 1010,0 hPa 0,0 l/m 14,5 km/h (3 Bft) O-NO 65 0 min 0,000 mm 0,0 UV-I 0 W/m 10,9 C 11,5 C 20,9 km/h (4 Bft) 100,00 %
10.05.2016 21:54 15,1 C 76 % 1010,0 hPa 0,0 l/m 14,6 km/h (3 Bft) O-NO 74 0 min 0,000 mm 0,0 UV-I 0 W/m 10,9 C 11,4 C 25,7 km/h (4 Bft) 100,00 %
10.05.2016 21:55 15,1 C 76 % 1010,0 hPa 0,0 l/m 16,6 km/h (3 Bft) O-NO 57 0 min 0,000 mm 0,0 UV-I 0 W/m 10,9 C 10,8 C 22,5 km/h (4 Bft) 100,00 %
10.05.2016 21:56 15,1 C 76 % 1010,1 hPa 0,0 l/m 19,5 km/h (3 Bft) O 90 0 min 0,000 mm 0,0 UV-I 0 W/m 10,9 C 10,0 C 22,5 km/h (4 Bft) 100,00 %
10.05.2016 21:57 15,1 C 76 % 1010,1 hPa 0,0 l/m 16,2 km/h (3 Bft) O-NO 71 0 min 0,000 mm 0,0 UV-I 0 W/m 10,9 C 10,9 C 22,5 km/h (4 Bft) 100,00 %
10.05.2016 21:58 15,1 C 76 % 1010,1 hPa 0,0 l/m 15,7 km/h (3 Bft) O-NO 61 0 min 0,000 mm 0,0 UV-I 0 W/m 10,9 C 11,1 C 20,9 km/h (4 Bft) 100,00 %
10.05.2016 21:59 15,1 C 76 % 1010,1 hPa 0,0 l/m 13,1 km/h (3 Bft) O 82 0 min 0,000 mm 0,0 UV-I 0 W/m 10,9 C 12,0 C 16,1 km/h (3 Bft) 100,00 %
10.05.2016 22:00 15,1 C 76 % 1010,1 hPa 0,0 l/m 14,1 km/h (3 Bft) O-NO 63 0 min 0,000 mm 0,0 UV-I 0 W/m 10,9 C 11,6 C 17,7 km/h (3 Bft) 100,00 %
10.05.2016 22:01 15,1 C 77 % 1010,1 hPa 0,0 l/m 15,4 km/h (3 Bft) NO 51 0 min 0,050 mm 0,0 UV-I 0 W/m 11,1 C 11,2 C 19,3 km/h (3 Bft) 96,30 %
10.05.2016 22:02 15,1 C 77 % 1010,1 hPa 0,0 l/m 12,1 km/h (2 Bft) O-NO 73 0 min 0,000 mm 0,0 UV-I 0 W/m 11,1 C 12,3 C 17,7 km/h (3 Bft) 100,00 %
10.05.2016 22:03 15,1 C 77 % 1010,1 hPa 0,0 l/m 13,6 km/h (3 Bft) O-SO 115 0 min 0,000 mm 0,0 UV-I 0 W/m 11,1 C 11,8 C 25,7 km/h (4 Bft) 93,33 %
10.05.2016 22:04 15,0 C 77 % 1010,1 hPa 0,0 l/m 16,3 km/h (3 Bft) O 85 0 min 0,000 mm 0,0 UV-I 0 W/m 11,0 C 10,8 C 20,9 km/h (4 Bft) 96,30 %
10.05.2016 22:05 15,0 C 76 % 1010,1 hPa 0,0 l/m 13,8 km/h (3 Bft) O-NO 77 0 min 0,000 mm 0,0 UV-I 0 W/m 10,8 C 11,6 C 20,9 km/h (4 Bft) 96,15 %
10.05.2016 22:06 15,0 C 77 % 1010,0 hPa 0,0 l/m 18,5 km/h (3 Bft) O-NO 74 0 min 0,000 mm 0,0 UV-I 0 W/m 11,0 C 10,1 C 22,5 km/h (4 Bft) 96,55 %
10.05.2016 22:07 15,0 C 77 % 1010,0 hPa 0,0 l/m 18,8 km/h (3 Bft) O-NO 72 0 min 0,000 mm 0,0 UV-I 0 W/m 11,0 C 10,1 C 27,4 km/h (4 Bft) 100,00 %
10.05.2016 22:08 14,9 C 76 % 1010,1 hPa 0,0 l/m 19,6 km/h (3 Bft) O-NO 65 0 min 0,000 mm 0,0 UV-I 0 W/m 10,7 C 9,7 C 27,4 km/h (4 Bft) 100,00 %
10.05.2016 22:09 14,9 C 76 % 1010,0 hPa 0,0 l/m 16,6 km/h (3 Bft) O-NO 63 0 min 0,000 mm 0,0 UV-I 0 W/m 10,7 C 10,6 C 22,5 km/h (4 Bft) 96,15 %
10.05.2016 22:10 14,9 C 77 % 1010,1 hPa 0,0 l/m 10,9 km/h (2 Bft) O-NO 57 0 min 0,000 mm 0,0 UV-I 0 W/m 10,9 C 12,6 C 14,5 km/h (3 Bft) 95,83 %
10.05.2016 22:11 14,9 C 77 % 1010,0 hPa 0,0 l/m 14,4 km/h (3 Bft) O 79 0 min 0,000 mm 0,0 UV-I 0 W/m 10,9 C 11,3 C 17,7 km/h (3 Bft) 100,00 %
10.05.2016 22:12 14,9 C 77 % 1010,1 hPa 0,0 l/m 12,9 km/h (3 Bft) O-NO 60 0 min 0,000 mm 0,0 UV-I 0 W/m 10,9 C 11,8 C 17,7 km/h (3 Bft) 91,67 %
10.05.2016 22:13 14,8 C 77 % 1010,1 hPa 0,0 l/m 10,5 km/h (2 Bft) NO 49 0 min 0,000 mm 0,0 UV-I 0 W/m 10,8 C 12,7 C 14,5 km/h (3 Bft) 100,00 %
10.05.2016 22:14 14,8 C 77 % 1010,0 hPa 0,0 l/m 14,7 km/h (3 Bft) O-NO 63 0 min 0,000 mm 0,0 UV-I 0 W/m 10,8 C 11,1 C 22,5 km/h (4 Bft) 94,44 %
10.05.2016 22:15 14,8 C 77 % 1010,0 hPa 0,0 l/m 15,3 km/h (3 Bft) O-NO 68 0 min 0,000 mm 0,0 UV-I 0 W/m 10,8 C 10,9 C 19,3 km/h (3 Bft) 100,00 %
10.05.2016 22:16 14,8 C 77 % 1010,0 hPa 0,0 l/m 17,4 km/h (3 Bft) O-NO 71 0 min 0,000 mm 0,0 UV-I 0 W/m 10,8 C 10,2 C 22,5 km/h (4 Bft) 96,30 %
10.05.2016 22:17 14,8 C 77 % 1010,1 hPa 0,0 l/m 16,9 km/h (3 Bft) O-NO 66 0 min 0,000 mm 0,0 UV-I 0 W/m 10,8 C 10,3 C 25,7 km/h (4 Bft) 100,00 %
10.05.2016 22:18 14,8 C 77 % 1010,0 hPa 0,0 l/m 20,2 km/h (4 Bft) NO 56 0 min 0,000 mm 0,0 UV-I 0 W/m 10,8 C 9,4 C 25,7 km/h (4 Bft) 92,59 %
10.05.2016 22:19 14,8 C 77 % 1010,0 hPa 0,0 l/m 16,7 km/h (3 Bft) O 79 0 min 0,000 mm 0,0 UV-I 0 W/m 10,8 C 10,4 C 20,9 km/h (4 Bft) 96,15 %
10.05.2016 22:20 14,7 C 77 % 1010,0 hPa 0,0 l/m 18,7 km/h (3 Bft) O-NO 78 0 min 0,000 mm 0,0 UV-I 0 W/m 10,7 C 9,7 C 24,1 km/h (4 Bft) 100,00 %
10.05.2016 22:21 14,7 C 77 % 1010,0 hPa 0,0 l/m 16,0 km/h (3 Bft) O 89 0 min 0,000 mm 0,0 UV-I 0 W/m 10,7 C 10,5 C 24,1 km/h (4 Bft) 95,65 %
10.05.2016 22:22 14,7 C 77 % 1010,0 hPa 0,0 l/m 17,9 km/h (3 Bft) O 84 0 min 0,000 mm 0,0 UV-I 0 W/m 10,7 C 9,9 C 22,5 km/h (4 Bft) 100,00 %
10.05.2016 22:23 14,7 C 77 % 1009,9 hPa 0,0 l/m 14,5 km/h (3 Bft) O-NO 65 0 min 0,000 mm 0,0 UV-I 0 W/m 10,7 C 11,0 C 17,7 km/h (3 Bft) 93,75 %
10.05.2016 22:24 14,7 C 77 % 1010,0 hPa 0,0 l/m 13,5 km/h (3 Bft) O-NO 71 0 min 0,000 mm 0,0 UV-I 0 W/m 10,7 C 11,4 C 17,7 km/h (3 Bft) 91,67 %
10.05.2016 22:25 14,7 C 77 % 1010,0 hPa 0,0 l/m 14,2 km/h (3 Bft) O 84 0 min 0,000 mm 0,0 UV-I 0 W/m 10,7 C 11,1 C 19,3 km/h (3 Bft) 100,00 %
10.05.2016 22:26 14,7 C 77 % 1009,9 hPa 0,0 l/m 17,1 km/h (3 Bft) O 84 0 min 0,000 mm 0,0 UV-I 0 W/m 10,7 C 10,2 C 24,1 km/h (4 Bft) 100,00 %
10.05.2016 22:27 14,7 C 77 % 1009,9 hPa 0,0 l/m 18,1 km/h (3 Bft) O-NO 69 0 min 0,000 mm 0,0 UV-I 0 W/m 10,7 C 9,9 C 22,5 km/h (4 Bft) 96,30 %
10.05.2016 22:28 14,7 C 77 % 1009,9 hPa 0,0 l/m 15,6 km/h (3 Bft) O-NO 67 0 min 0,000 mm 0,0 UV-I 0 W/m 10,7 C 10,6 C 20,9 km/h (4 Bft) 96,15 %
10.05.2016 22:29 14,7 C 77 % 1009,9 hPa 0,0 l/m 20,3 km/h (4 Bft) O 88 0 min 0,000 mm 0,0 UV-I 0 W/m 10,7 C 9,3 C 27,4 km/h (4 Bft) 100,00 %
10.05.2016 22:30 14,7 C 77 % 1009,8 hPa 0,0 l/m 20,2 km/h (4 Bft) O-NO 69 0 min 0,000 mm 0,0 UV-I 0 W/m 10,7 C 9,3 C 24,1 km/h (4 Bft) 95,83 %
10.05.2016 22:31 14,6 C 77 % 1009,8 hPa 0,0 l/m 17,2 km/h (3 Bft) O 86 0 min 0,000 mm 0,0 UV-I 0 W/m 10,6 C 10,0 C 22,5 km/h (4 Bft) 100,00 %
10.05.2016 22:32 14,6 C 77 % 1009,8 hPa 0,0 l/m 16,3 km/h (3 Bft) O-NO 71 0 min 0,000 mm 0,0 UV-I 0 W/m 10,6 C 10,3 C 22,5 km/h (4 Bft) 95,65 %
10.05.2016 22:33 14,6 C 77 % 1009,8 hPa 0,0 l/m 19,0 km/h (3 Bft) NO 46 0 min 0,000 mm 0,0 UV-I 0 W/m 10,6 C 9,5 C 24,1 km/h (4 Bft) 100,00 %
10.05.2016 22:34 14,6 C 77 % 1009,8 hPa 0,0 l/m 15,9 km/h (3 Bft) O 92 0 min 0,000 mm 0,0 UV-I 0 W/m 10,6 C 10,4 C 20,9 km/h (4 Bft) 96,15 %
10.05.2016 22:35 14,6 C 77 % 1009,8 hPa 0,0 l/m 17,5 km/h (3 Bft) O-NO 57 0 min 0,000 mm 0,0 UV-I 0 W/m 10,6 C 9,9 C 22,5 km/h (4 Bft) 100,00 %
10.05.2016 22:36 14,6 C 77 % 1009,8 hPa 0,0 l/m 19,1 km/h (3 Bft) O-NO 65 0 min 0,000 mm 0,0 UV-I 0 W/m 10,6 C 9,5 C 22,5 km/h (4 Bft) 100,00 %
10.05.2016 22:37 14,6 C 77 % 1009,8 hPa 0,0 l/m 16,9 km/h (3 Bft) O-NO 67 0 min 0,000 mm 0,0 UV-I 0 W/m 10,6 C 10,1 C 24,1 km/h (4 Bft) 95,24 %
10.05.2016 22:38 14,6 C 77 % 1009,8 hPa 0,0 l/m 18,5 km/h (3 Bft) O-NO 77 0 min 0,000 mm 0,0 UV-I 0 W/m 10,6 C 9,6 C 25,7 km/h (4 Bft) 100,00 %
10.05.2016 22:39 14,6 C 77 % 1009,8 hPa 0,0 l/m 19,1 km/h (3 Bft) O-NO 63 0 min 0,000 mm 0,0 UV-I 0 W/m 10,6 C 9,5 C 22,5 km/h (4 Bft) 100,00 %
10.05.2016 22:40 14,6 C 77 % 1009,8 hPa 0,0 l/m 15,7 km/h (3 Bft) NO 51 0 min 0,000 mm 0,0 UV-I 0 W/m 10,6 C 10,5 C 20,9 km/h (4 Bft) 96,15 %
10.05.2016 22:41 14,6 C 78 % 1009,9 hPa 0,0 l/m 15,0 km/h (3 Bft) O-NO 63 0 min 0,000 mm 0,0 UV-I 0 W/m 10,8 C 10,7 C 19,3 km/h (3 Bft) 100,00 %
10.05.2016 22:42 14,5 C 78 % 1009,8 hPa 0,0 l/m 10,0 km/h (2 Bft) O-NO 74 0 min 0,000 mm 0,0 UV-I 0 W/m 10,7 C 12,6 C 16,1 km/h (3 Bft) 100,00 %
10.05.2016 22:43 14,5 C 77 % 1009,9 hPa 0,0 l/m 18,8 km/h (3 Bft) O-NO 69 0 min 0,000 mm 0,0 UV-I 0 W/m 10,5 C 9,4 C 25,7 km/h (4 Bft) 100,00 %
10.05.2016 22:44 14,5 C 77 % 1009,9 hPa 0,0 l/m 16,1 km/h (3 Bft) O-NO 63 0 min 0,000 mm 0,0 UV-I 0 W/m 10,5 C 10,2 C 17,7 km/h (3 Bft) 100,00 %
10.05.2016 22:45 14,5 C 78 % 1009,9 hPa 0,0 l/m 16,8 km/h (3 Bft) O-NO 66 0 min 0,000 mm 0,0 UV-I 0 W/m 10,7 C 10,0 C 22,5 km/h (4 Bft) 100,00 %
10.05.2016 22:46 14,4 C 78 % 1009,9 hPa 0,0 l/m 16,5 km/h (3 Bft) O-NO 70 0 min 0,000 mm 0,0 UV-I 0 W/m 10,6 C 10,0 C 22,5 km/h (4 Bft) 96,15 %
10.05.2016 22:47 14,4 C 77 % 1009,9 hPa 0,0 l/m 16,8 km/h (3 Bft) O-NO 57 0 min 0,000 mm 0,0 UV-I 0 W/m 10,4 C 9,9 C 24,1 km/h (4 Bft) 100,00 %
10.05.2016 22:48 14,4 C 78 % 1009,9 hPa 0,0 l/m 14,6 km/h (3 Bft) O-SO 111 0 min 0,000 mm 0,0 UV-I 0 W/m 10,6 C 10,6 C 19,3 km/h (3 Bft) 100,00 %
10.05.2016 22:49 14,4 C 78 % 1010,0 hPa 0,0 l/m 12,1 km/h (2 Bft) O 80 0 min 0,000 mm 0,0 UV-I 0 W/m 10,6 C 11,5 C 19,3 km/h (3 Bft) 100,00 %
10.05.2016 22:50 14,4 C 78 % 1010,0 hPa 0,0 l/m 13,2 km/h (3 Bft) O 80 0 min 0,000 mm 0,0 UV-I 0 W/m 10,6 C 11,1 C 19,3 km/h (3 Bft) 100,00 %
10.05.2016 22:51 14,4 C 78 % 1010,0 hPa 0,0 l/m 17,8 km/h (3 Bft) O-NO 64 0 min 0,000 mm 0,0 UV-I 0 W/m 10,6 C 9,6 C 22,5 km/h (4 Bft) 100,00 %
10.05.2016 22:52 14,4 C 78 % 1009,9 hPa 0,0 l/m 14,5 km/h (3 Bft) NO 54 0 min 0,000 mm 0,0 UV-I 0 W/m 10,6 C 10,6 C 17,7 km/h (3 Bft) 100,00 %
10.05.2016 22:53 14,4 C 78 % 1010,0 hPa 0,0 l/m 13,8 km/h (3 Bft) NO 41 0 min 0,000 mm 0,0 UV-I 0 W/m 10,6 C 10,9 C 22,5 km/h (4 Bft) 100,00 %
10.05.2016 22:54 14,4 C 78 % 1010,0 hPa 0,0 l/m 17,8 km/h (3 Bft) O 85 0 min 0,000 mm 0,0 UV-I 0 W/m 10,6 C 9,6 C 22,5 km/h (4 Bft) 100,00 %
10.05.2016 22:55 14,3 C 78 % 1010,0 hPa 0,0 l/m 16,0 km/h (3 Bft) NO 36 0 min 0,000 mm 0,0 UV-I 0 W/m 10,5 C 10,0 C 22,5 km/h (4 Bft) 100,00 %
10.05.2016 22:56 14,3 C 78 % 1010,0 hPa 0,0 l/m 16,9 km/h (3 Bft) O 86 0 min 0,000 mm 0,0 UV-I 0 W/m 10,5 C 9,7 C 24,1 km/h (4 Bft) 100,00 %
10.05.2016 22:57 14,3 C 78 % 1010,0 hPa 0,0 l/m 18,2 km/h (3 Bft) O 86 0 min 0,000 mm 0,0 UV-I 0 W/m 10,5 C 9,3 C 24,1 km/h (4 Bft) 100,00 %
10.05.2016 22:58 14,3 C 78 % 1010,0 hPa 0,0 l/m 17,0 km/h (3 Bft) NO 54 0 min 0,000 mm 0,0 UV-I 0 W/m 10,5 C 9,7 C 25,7 km/h (4 Bft) 100,00 %
10.05.2016 22:59 14,3 C 78 % 1010,0 hPa 0,0 l/m 17,8 km/h (3 Bft) O 88 0 min 0,000 mm 0,0 UV-I 0 W/m 10,5 C 9,5 C 22,5 km/h (4 Bft) 100,00 %
10.05.2016 23:00 14,3 C 78 % 1009,9 hPa 0,0 l/m 21,0 km/h (4 Bft) O-NO 61 0 min 0,000 mm 0,0 UV-I 0 W/m 10,5 C 8,6 C 27,4 km/h (4 Bft) 100,00 %
10.05.2016 23:01 14,3 C 78 % 1009,9 hPa 0,0 l/m 17,8 km/h (3 Bft) O-SO 109 0 min 0,051 mm 0,0 UV-I 0 W/m 10,5 C 9,5 C 25,7 km/h (4 Bft) 100,00 %
10.05.2016 23:02 14,3 C 78 % 1009,9 hPa 0,0 l/m 18,8 km/h (3 Bft) O-NO 65 0 min 0,000 mm 0,0 UV-I 0 W/m 10,5 C 9,2 C 25,7 km/h (4 Bft) 100,00 %
10.05.2016 23:03 14,3 C 78 % 1009,9 hPa 0,0 l/m 14,6 km/h (3 Bft) O 92 0 min 0,000 mm 0,0 UV-I 0 W/m 10,5 C 10,5 C 20,9 km/h (4 Bft) 100,00 %
10.05.2016 23:04 14,3 C 78 % 1009,9 hPa 0,0 l/m 18,4 km/h (3 Bft) O 100 0 min 0,000 mm 0,0 UV-I 0 W/m 10,5 C 9,3 C 24,1 km/h (4 Bft) 100,00 %
10.05.2016 23:05 14,3 C 78 % 1009,9 hPa 0,0 l/m 20,8 km/h (4 Bft) O 94 0 min 0,000 mm 0,0 UV-I 0 W/m 10,5 C 8,6 C 25,7 km/h (4 Bft) 100,00 %
10.05.2016 23:06 14,3 C 78 % 1009,8 hPa 0,0 l/m 17,8 km/h (3 Bft) O-NO 77 0 min 0,000 mm 0,0 UV-I 0 W/m 10,5 C 9,5 C 22,5 km/h (4 Bft) 100,00 %
10.05.2016 23:07 14,3 C 78 % 1009,9 hPa 0,0 l/m 16,6 km/h (3 Bft) O-NO 69 0 min 0,000 mm 0,0 UV-I 0 W/m 10,5 C 9,8 C 22,5 km/h (4 Bft) 100,00 %
10.05.2016 23:08 14,3 C 78 % 1009,8 hPa 0,0 l/m 14,7 km/h (3 Bft) O 93 0 min 0,000 mm 0,0 UV-I 0 W/m 10,5 C 10,4 C 19,3 km/h (3 Bft) 100,00 %
10.05.2016 23:09 14,3 C 78 % 1009,8 hPa 0,0 l/m 17,2 km/h (3 Bft) O-NO 65 0 min 0,000 mm 0,0 UV-I 0 W/m 10,5 C 9,6 C 25,7 km/h (4 Bft) 100,00 %
10.05.2016 23:10 14,3 C 79 % 1009,8 hPa 0,0 l/m 14,9 km/h (3 Bft) N-NO 32 0 min 0,000 mm 0,0 UV-I 0 W/m 10,7 C 10,4 C 19,3 km/h (3 Bft) 95,65 %
10.05.2016 23:11 14,3 C 79 % 1009,8 hPa 0,0 l/m 13,8 km/h (3 Bft) O 96 0 min 0,000 mm 0,0 UV-I 0 W/m 10,7 C 10,8 C 17,7 km/h (3 Bft) 100,00 %
10.05.2016 23:12 14,3 C 79 % 1009,8 hPa 0,0 l/m 14,8 km/h (3 Bft) O-NO 60 0 min 0,000 mm 0,0 UV-I 0 W/m 10,7 C 10,4 C 19,3 km/h (3 Bft) 100,00 %
10.05.2016 23:13 14,3 C 79 % 1009,9 hPa 0,0 l/m 14,5 km/h (3 Bft) O 82 0 min 0,000 mm 0,0 UV-I 0 W/m 10,7 C 10,5 C 20,9 km/h (4 Bft) 100,00 %
10.05.2016 23:14 14,2 C 79 % 1009,8 hPa 0,0 l/m 8,8 km/h (2 Bft) O-NO 71 0 min 0,000 mm 0,0 UV-I 0 W/m 10,6 C 12,8 C 12,9 km/h (3 Bft) 90,91 %
10.05.2016 23:15 14,2 C 79 % 1009,9 hPa 0,0 l/m 14,1 km/h (3 Bft) O-NO 74 0 min 0,000 mm 0,0 UV-I 0 W/m 10,6 C 10,5 C 19,3 km/h (3 Bft) 100,00 %
10.05.2016 23:16 14,2 C 79 % 1009,9 hPa 0,0 l/m 13,1 km/h (3 Bft) O 82 0 min 0,000 mm 0,0 UV-I 0 W/m 10,6 C 10,9 C 16,1 km/h (3 Bft) 100,00 %
10.05.2016 23:17 14,2 C 79 % 1009,9 hPa 0,0 l/m 11,2 km/h (2 Bft) O-NO 67 0 min 0,000 mm 0,0 UV-I 0 W/m 10,6 C 11,7 C 16,1 km/h (3 Bft) 96,30 %
10.05.2016 23:18 14,2 C 79 % 1009,9 hPa 0,0 l/m 16,1 km/h (3 Bft) O 86 0 min 0,000 mm 0,0 UV-I 0 W/m 10,6 C 9,9 C 20,9 km/h (4 Bft) 100,00 %
10.05.2016 23:19 14,2 C 79 % 1009,9 hPa 0,0 l/m 13,0 km/h (3 Bft) O-NO 70 0 min 0,000 mm 0,0 UV-I 0 W/m 10,6 C 11,0 C 16,1 km/h (3 Bft) 100,00 %
10.05.2016 23:20 14,2 C 79 % 1009,9 hPa 0,0 l/m 12,1 km/h (2 Bft) O-NO 63 0 min 0,000 mm 0,0 UV-I 0 W/m 10,6 C 11,3 C 17,7 km/h (3 Bft) 100,00 %
10.05.2016 23:21 14,2 C 79 % 1009,9 hPa 0,0 l/m 14,5 km/h (3 Bft) O-NO 67 0 min 0,000 mm 0,0 UV-I 0 W/m 10,6 C 10,4 C 17,7 km/h (3 Bft) 94,44 %
10.05.2016 23:22 14,2 C 79 % 1009,9 hPa 0,0 l/m 14,4 km/h (3 Bft) NO 55 0 min 0,000 mm 0,0 UV-I 0 W/m 10,6 C 10,4 C 20,9 km/h (4 Bft) 100,00 %
10.05.2016 23:23 14,2 C 79 % 1009,9 hPa 0,0 l/m 15,4 km/h (3 Bft) O-NO 58 0 min 0,000 mm 0,0 UV-I 0 W/m 10,6 C 10,1 C 19,3 km/h (3 Bft) 100,00 %
10.05.2016 23:24 14,2 C 79 % 1009,9 hPa 0,0 l/m 13,5 km/h (3 Bft) NO 56 0 min 0,000 mm 0,0 UV-I 0 W/m 10,6 C 10,8 C 19,3 km/h (3 Bft) 100,00 %
10.05.2016 23:25 14,2 C 79 % 1009,9 hPa 0,0 l/m 14,1 km/h (3 Bft) NO 46 0 min 0,000 mm 0,0 UV-I 0 W/m 10,6 C 10,5 C 19,3 km/h (3 Bft) 100,00 %
10.05.2016 23:26 14,2 C 79 % 1009,9 hPa 0,0 l/m 11,5 km/h (2 Bft) O-NO 73 0 min 0,000 mm 0,0 UV-I 0 W/m 10,6 C 11,6 C 16,1 km/h (3 Bft) 100,00 %
10.05.2016 23:27 14,1 C 79 % 1009,9 hPa 0,0 l/m 13,9 km/h (3 Bft) O-NO 58 0 min 0,000 mm 0,0 UV-I 0 W/m 10,5 C 10,5 C 19,3 km/h (3 Bft) 96,88 %
10.05.2016 23:28 14,1 C 80 % 1009,9 hPa 0,0 l/m 13,6 km/h (3 Bft) NO 46 0 min 0,000 mm 0,0 UV-I 0 W/m 10,7 C 10,6 C 19,3 km/h (3 Bft) 100,00 %
10.05.2016 23:29 14,1 C 80 % 1009,9 hPa 0,0 l/m 12,8 km/h (3 Bft) O-NO 59 0 min 0,000 mm 0,0 UV-I 0 W/m 10,7 C 10,9 C 16,1 km/h (3 Bft) 100,00 %
10.05.2016 23:30 14,1 C 80 % 1009,8 hPa 0,0 l/m 10,9 km/h (2 Bft) N-NO 31 0 min 0,000 mm 0,0 UV-I 0 W/m 10,7 C 11,7 C 17,7 km/h (3 Bft) 93,33 %
10.05.2016 23:31 14,1 C 80 % 1009,9 hPa 0,0 l/m 12,0 km/h (2 Bft) O-NO 69 0 min 0,000 mm 0,0 UV-I 0 W/m 10,7 C 11,2 C 16,1 km/h (3 Bft) 96,15 %
10.05.2016 23:32 14,1 C 80 % 1009,9 hPa 0,0 l/m 13,9 km/h (3 Bft) NO 42 0 min 0,000 mm 0,0 UV-I 0 W/m 10,7 C 10,5 C 19,3 km/h (3 Bft) 100,00 %
10.05.2016 23:33 14,1 C 80 % 1009,9 hPa 0,0 l/m 15,7 km/h (3 Bft) NO 44 0 min 0,000 mm 0,0 UV-I 0 W/m 10,7 C 9,9 C 20,9 km/h (4 Bft) 100,00 %
10.05.2016 23:34 14,1 C 80 % 1009,8 hPa 0,0 l/m 17,4 km/h (3 Bft) NO 55 0 min 0,000 mm 0,0 UV-I 0 W/m 10,7 C 9,3 C 20,9 km/h (4 Bft) 96,67 %
10.05.2016 23:35 14,1 C 80 % 1009,8 hPa 0,0 l/m 18,7 km/h (3 Bft) NO 39 0 min 0,000 mm 0,0 UV-I 0 W/m 10,7 C 8,9 C 25,7 km/h (4 Bft) 96,15 %
10.05.2016 23:36 14,1 C 80 % 1009,8 hPa 0,0 l/m 16,1 km/h (3 Bft) O-NO 58 0 min 0,000 mm 0,0 UV-I 0 W/m 10,7 C 9,7 C 20,9 km/h (4 Bft) 100,00 %
10.05.2016 23:37 14,1 C 80 % 1009,8 hPa 0,0 l/m 17,7 km/h (3 Bft) NO 44 0 min 0,000 mm 0,0 UV-I 0 W/m 10,7 C 9,2 C 24,1 km/h (4 Bft) 100,00 %
10.05.2016 23:38 14,1 C 80 % 1009,8 hPa 0,0 l/m 17,9 km/h (3 Bft) O-NO 71 0 min 0,000 mm 0,0 UV-I 0 W/m 10,7 C 9,2 C 24,1 km/h (4 Bft) 100,00 %
10.05.2016 23:39 14,1 C 80 % 1009,8 hPa 0,0 l/m 20,2 km/h (4 Bft) O-NO 61 0 min 0,000 mm 0,0 UV-I 0 W/m 10,7 C 8,5 C 24,1 km/h (4 Bft) 100,00 %
10.05.2016 23:40 14,1 C 80 % 1009,7 hPa 0,0 l/m 15,9 km/h (3 Bft) NO 51 0 min 0,000 mm 0,0 UV-I 0 W/m 10,7 C 9,8 C 20,9 km/h (4 Bft) 100,00 %
10.05.2016 23:41 14,1 C 80 % 1009,7 hPa 0,0 l/m 16,5 km/h (3 Bft) O-NO 77 0 min 0,000 mm 0,0 UV-I 0 W/m 10,7 C 9,6 C 19,3 km/h (3 Bft) 100,00 %
10.05.2016 23:42 14,1 C 80 % 1009,7 hPa 0,0 l/m 16,7 km/h (3 Bft) O-NO 59 0 min 0,000 mm 0,0 UV-I 0 W/m 10,7 C 9,5 C 24,1 km/h (4 Bft) 95,12 %
10.05.2016 23:43 14,0 C 80 % 1009,7 hPa 0,0 l/m 15,7 km/h (3 Bft) NO 51 0 min 0,000 mm 0,0 UV-I 0 W/m 10,6 C 9,7 C 19,3 km/h (3 Bft) 100,00 %
10.05.2016 23:44 14,0 C 80 % 1009,7 hPa 0,0 l/m 14,9 km/h (3 Bft) O-NO 65 0 min 0,000 mm 0,0 UV-I 0 W/m 10,6 C 10,0 C 20,9 km/h (4 Bft) 100,00 %
10.05.2016 23:45 14,0 C 80 % 1009,6 hPa 0,0 l/m 17,3 km/h (3 Bft) NO 52 0 min 0,000 mm 0,0 UV-I 0 W/m 10,6 C 9,2 C 22,5 km/h (4 Bft) 100,00 %
10.05.2016 23:46 13,9 C 80 % 1009,7 hPa 0,0 l/m 18,3 km/h (3 Bft) O-NO 72 0 min 0,000 mm 0,0 UV-I 0 W/m 10,5 C 8,8 C 24,1 km/h (4 Bft) 98,72 %
10.05.2016 23:47 13,9 C 80 % 1009,6 hPa 0,0 l/m 16,5 km/h (3 Bft) NO 41 0 min 0,000 mm 0,0 UV-I 0 W/m 10,5 C 9,4 C 19,3 km/h (3 Bft) 100,00 %
10.05.2016 23:48 13,9 C 80 % 1009,6 hPa 0,0 l/m 18,1 km/h (3 Bft) NO 50 0 min 0,000 mm 0,0 UV-I 0 W/m 10,5 C 8,9 C 25,7 km/h (4 Bft) 100,00 %
10.05.2016 23:49 13,9 C 80 % 1009,6 hPa 0,0 l/m 17,2 km/h (3 Bft) O-NO 63 0 min 0,000 mm 0,0 UV-I 0 W/m 10,5 C 9,1 C 22,5 km/h (4 Bft) 100,00 %
10.05.2016 23:50 13,9 C 80 % 1009,5 hPa 0,0 l/m 18,5 km/h (3 Bft) O-NO 69 0 min 0,000 mm 0,0 UV-I 0 W/m 10,5 C 8,7 C 24,1 km/h (4 Bft) 100,00 %
10.05.2016 23:51 13,9 C 80 % 1009,5 hPa 0,0 l/m 17,6 km/h (3 Bft) O-NO 68 0 min 0,000 mm 0,0 UV-I 0 W/m 10,5 C 9,0 C 22,5 km/h (4 Bft) 100,00 %
10.05.2016 23:52 13,9 C 80 % 1009,5 hPa 0,0 l/m 14,4 km/h (3 Bft) NO 46 0 min 0,000 mm 0,0 UV-I 0 W/m 10,5 C 10,1 C 19,3 km/h (3 Bft) 95,65 %
10.05.2016 23:53 13,9 C 80 % 1009,5 hPa 0,0 l/m 14,0 km/h (3 Bft) NO 36 0 min 0,000 mm 0,0 UV-I 0 W/m 10,5 C 10,2 C 20,9 km/h (4 Bft) 100,00 %
10.05.2016 23:54 13,9 C 80 % 1009,5 hPa 0,0 l/m 18,7 km/h (3 Bft) O-NO 77 0 min 0,000 mm 0,0 UV-I 0 W/m 10,5 C 8,7 C 25,7 km/h (4 Bft) 100,00 %
10.05.2016 23:55 13,9 C 80 % 1009,5 hPa 0,0 l/m 19,2 km/h (3 Bft) O-NO 59 0 min 0,000 mm 0,0 UV-I 0 W/m 10,5 C 8,5 C 22,5 km/h (4 Bft) 100,00 %
10.05.2016 23:56 13,9 C 80 % 1009,5 hPa 0,0 l/m 19,4 km/h (3 Bft) O-NO 69 0 min 0,000 mm 0,0 UV-I 0 W/m 10,5 C 8,5 C 25,7 km/h (4 Bft) 100,00 %
10.05.2016 23:57 13,8 C 80 % 1009,5 hPa 0,0 l/m 22,0 km/h (4 Bft) O 89 0 min 0,000 mm 0,0 UV-I 0 W/m 10,4 C 7,7 C 29,0 km/h (5 Bft) 100,00 %
10.05.2016 23:58 13,8 C 81 % 1009,4 hPa 0,0 l/m 19,4 km/h (3 Bft) NO 56 0 min 0,000 mm 0,0 UV-I 0 W/m 10,6 C 8,4 C 24,1 km/h (4 Bft) 100,00 %
10.05.2016 23:59 13,8 C 81 % 1009,4 hPa 0,0 l/m 20,4 km/h (4 Bft) NO 48 0 min 0,000 mm 0,0 UV-I 0 W/m 10,6 C 8,1 C 25,7 km/h (4 Bft) 100,00 %
_ Min-Zeit 05:47 13:03 15:19 - 18:40 - - - - - - 05:47 05:56 20:55 07:12
Minimum _ 10,9 C 57 % 1008,5 hPa - 6,1 km/h (2 Bft) - - - - - - 8,5 C 2,7 C 8,0 km/h (2 Bft) 81,82 %
_ Max-Zeit 13:48 05:25 00:25 00:00 11:57 - - 11:02 13:00 12:54 12:03 15:57 16:56 13:58 00:00
Maximum _ 20,0 C 85 % 1012,8 hPa 0,0 l/m 31,6 km/h
O-NO (5 Bft)
- - 2 min 0,584 mm 5,0 UV-I 849 W/m 12,2 C 18,5 C 43,5 km/h
NO (6 Bft)
100,00 %
Durchschnitt _ 15,5 C 73 % 1010,3 hPa #0,0 l/m 18,1 km/h (3 Bft) O-NO - #7:04 h #4,394 mm 2,5 UV-I 345 W/m 10,5 C 11,2 C 24,3 km/h (4 Bft) 98,66 %